GFSSW_con_sbcape_000.txt.gz
CAPE
0 0 3 5 4 0 0 0 0 0 2 0 11 35 81 71 36 0 0 0 0 0 0 0 0 0 0 0 0 0 0 0 0 0 0 0 0 0 0 0 0 0 0 0 0
0 0 3 4 4 1 0 0 0 0 1 4 6 0 22 38 23 4 0 11 20 3 0 0 0 0 0 0 0 0 0 0 0 0 0 0 0 0 0 0 0 0 0 0 0
0 0 4 7 5 2 0 0 0 0 0 11 9 26 36 13 2 0 1 24 41 37 0 0 0 0 0 0 0 0 0 0 0 0 0 0 0 0 0 0 0 0 0 0 0
19 4 6 7 5 1 0 0 0 0 3 1 16 22 38 22 0 0 0 0 20 30 0 0 0 0 0 0 0 0 0 0 0 0 0 0 0 0 0 0 0 0 0 0 0
32 6 6 6 8 1 0 0 0 2 0 8 20 37 1 11 0 0 0 0 0 0 0 0 0 0 0 0 0 0 0 0 0 0 0 0 0 0 0 0 0 0 0 0 0
65 23 5 3 9 2 0 0 0 0 8 0 25 18 0 0 0 0 0 0 0 0 0 0 0 0 0 0 0 0 1 0 0 0 0 0 0 0 0 0 0 0 0 0 0
79 55 44 7 7 7 0 9 12 0 1 5 24 9 15 0 0 0 0 0 0 1 13 14 0 12 13 0 0 0 0 0 0 0 0 0 0 0 0 0 0 0 0 0 0
98 97 61 38 28 23 12 27 2 18 8 24 34 16 0 0 0 0 0 0 0 0 0 0 0 34 23 21 0 0 0 4 0 0 0 6 0 0 0 0 0 0 0 0 0
118 97 76 50 53 52 47 31 12 0 11 29 3 2 0 0 0 0 0 0 0 0 0 0 0 0 0 32 21 3 4 0 5 1 10 5 0 0 0 0 0 0 0 0 0
102 108 91 62 65 70 63 30 22 20 18 23 15 11 0 0 0 0 0 0 0 0 0 0 0 0 0 23 8 8 12 0 0 6 18 0 0 0 0 0 0 0 0 0 0
91 88 97 70 60 66 12 0 0 0 16 0 0 0 0 0 0 0 0 0 0 0 0 0 10 3 0 0 0 0 1 0 0 2 0 0 0 0 0 0 0 0 0 0 0
68 95 97 91 71 70 0 0 0 0 0 0 0 0 0 0 0 0 0 0 0 0 0 0 6 0 0 0 0 0 0 0 0 0 0 1 0 0 0 0 0 0 0 0 0
105 108 100 92 76 52 4 1 0 0 0 0 0 0 0 2 1 2 0 0 0 4 4 1 0 0 0 0 2 0 0 0 0 0 0 0 0 0 0 0 0 0 0 0 0
122 152 113 73 28 0 11 0 0 3 0 0 0 0 9 22 21 4 0 0 6 2 1 3 0 0 0 5 0 1 0 0 0 32 0 65 4 0 0 0 0 0 0 0 0
101 168 117 12 0 1 0 0 0 13 0 0 0 0 14 7 3 0 1 9 8 0 0 0 0 0 0 0 0 0 0 0 11 15 22 0 15 0 0 0 0 0 0 0 0
81 164 31 0 0 0 0 0 8 3 0 0 0 0 11 11 12 5 18 26 9 12 11 0 0 0 0 0 0 15 5 5 15 42 16 0 28 0 0 0 0 0 0 0 0
8 119 2 0 0 0 0 1 2 0 0 1 4 2 0 6 9 19 6 32 12 10 5 11 3 0 0 0 0 11 25 41 29 22 8 2 0 0 0 0 0 0 0 0 0
24 30 0 0 0 0 0 18 0 0 0 0 0 0 2 0 12 6 29 11 29 11 19 2 2 0 0 0 0 0 1 15 3 2 0 57 4 0 0 0 0 0 0 0 0
59 16 1 2 0 0 1 20 0 0 0 0 3 8 8 12 1 15 31 10 1 6 5 4 2 0 0 0 0 0 16 0 6 15 23 3 0 0 0 0 0 0 0 0 0
48 2 3 5 1 2 14 0 0 0 0 0 0 2 3 1 8 6 8 0 4 0 0 0 0 0 0 34 3 5 0 3 20 9 22 10 0 0 0 0 0 0 0 0 0
5 11 23 7 8 26 11 0 0 0 0 0 7 13 0 0 0 0 0 0 0 0 0 0 0 1 0 0 59 19 25 21 0 9 42 29 0 0 0 0 0 0 0 0 0
54 13 32 14 17 14 18 5 0 0 1 4 1 7 0 0 0 0 0 0 0 0 0 0 31 5 0 0 0 1 0 0 4 0 7 2 0 0 0 0 0 0 0 0 0
55 22 26 11 6 8 8 5 7 26 15 10 8 4 0 1 0 0 0 0 0 0 0 6 52 6 8 11 10 76 0 11 0 35 15 1 0 0 0 0 0 0 0 0 0
32 17 33 17 23 5 6 14 10 12 13 13 22 6 16 24 0 0 0 0 0 0 28 9 22 19 5 3 6 12 19 4 10 20 2 0 0 0 0 0 0 0 0 0 0
46 22 12 11 16 1 4 13 1 15 3 3 7 6 8 5 0 0 0 0 0 14 28 10 4 0 2 6 6 5 10 2 21 0 0 0 0 0 0 0 0 0 0 0 0
34 14 14 0 4 11 5 19 20 24 19 8 3 5 0 9 0 0 0 0 2 4 9 8 1 4 6 0 5 8 3 14 1 1 2 0 0 0 0 0 0 0 0 0 0
16 0 8 1 2 5 6 2 0 9 4 0 7 11 8 0 3 24 7 0 0 15 0 1 4 4 4 11 3 20 1 0 0 2 0 1 0 0 0 0 0 0 0 0 0

GFSSW_con_sbcape_003.txt.gz
CAPE
12 0 3 5 9 11 5 1 3 1 10 13 42 89 87 79 34 4 0 0 0 0 0 0 0 0 0 0 0 0 0 0 0 0 0 0 0 0 0 0 0 0 0 0 0
22 5 1 7 9 6 6 1 0 2 2 10 7 16 33 59 23 16 0 12 11 15 0 0 0 0 0 0 0 0 0 0 0 0 0 0 0 0 0 0 0 0 0 0 0
33 14 1 7 13 10 8 10 3 4 8 25 12 26 15 36 1 1 10 28 40 17 0 0 0 0 0 0 0 0 0 0 0 0 0 0 0 0 0 0 0 0 0 0 0
80 28 9 6 5 13 13 12 11 11 12 12 9 10 70 23 0 0 0 0 12 13 0 0 0 0 0 0 0 0 0 0 0 0 0 0 0 0 0 0 0 0 0 0 0
119 51 27 7 8 15 10 13 8 12 0 8 12 17 6 5 0 0 0 0 0 3 0 2 0 0 0 0 0 0 0 0 0 0 0 0 0 0 0 0 0 0 0 0 0
142 79 47 15 10 16 12 10 8 14 21 9 21 10 0 0 0 0 0 0 0 0 0 0 0 2 0 0 0 0 0 0 0 0 0 0 0 0 0 0 0 0 0 0 0
97 116 85 51 27 16 18 24 30 24 18 18 33 5 0 0 0 0 0 0 0 0 0 0 0 33 16 13 0 0 0 0 0 0 0 0 0 0 0 0 0 0 0 0 0
117 106 89 80 61 47 29 31 52 35 35 25 38 13 0 0 0 0 0 0 0 0 0 0 2 11 29 13 1 12 1 0 0 0 0 0 0 0 0 0 0 0 0 0 0
126 104 103 82 74 61 70 53 36 17 30 45 0 0 0 0 0 0 0 0 0 0 0 0 0 0 7 32 22 9 0 0 2 0 9 0 0 0 0 0 0 0 0 0 0
132 130 104 89 84 66 80 64 48 24 29 12 2 2 0 0 0 0 0 0 0 0 0 0 1 4 7 28 2 1 11 6 3 0 0 0 0 0 0 0 0 0 0 0 0
45 103 116 127 83 88 33 0 0 0 24 0 0 0 0 0 0 0 0 0 0 0 0 0 7 10 0 0 6 1 0 5 0 0 0 0 0 0 0 0 0 0 0 0 0
27 125 136 140 127 96 0 0 0 0 0 0 0 0 0 0 0 0 0 0 0 0 0 0 0 0 0 0 0 0 21 15 2 1 1 0 0 0 0 0 0 0 0 0 0
46 121 146 145 132 39 0 0 0 0 0 0 0 0 0 0 1 0 0 0 0 0 0 0 0 0 0 0 0 0 0 11 8 0 0 0 0 0 0 0 0 0 0 0 0
47 19 143 151 30 7 10 0 0 0 0 0 0 0 0 8 10 0 0 0 0 0 0 8 0 0 0 0 0 4 0 0 0 3 2 3 1 0 0 0 0 0 0 0 0
90 56 172 18 0 4 0 0 0 0 0 0 0 0 7 0 0 0 0 3 2 0 0 0 0 0 0 0 0 2 0 0 15 29 18 0 11 0 0 0 0 0 0 0 0
76 94 184 0 0 0 0 0 22 0 0 0 1 1 16 13 13 2 0 14 2 0 3 0 0 0 0 0 0 3 3 0 0 0 12 0 0 0 0 0 0 0 0 0 0
64 97 45 0 0 0 0 0 2 2 0 1 2 5 0 6 7 14 22 24 29 24 1 36 3 0 0 0 0 0 7 23 16 10 5 0 0 0 0 0 0 0 0 0 0
66 65 71 0 0 0 0 0 0 0 0 0 0 4 0 0 2 1 20 19 32 3 12 0 1 2 0 0 0 0 0 0 2 0 0 0 0 0 0 0 0 0 0 0 0
15 34 96 1 0 2 0 0 0 0 0 0 2 4 7 2 0 9 24 0 0 6 0 0 0 0 0 0 0 4 26 0 0 0 33 0 0 0 0 0 0 0 0 0 0
56 0 58 9 0 7 0 0 0 0 0 0 0 1 0 3 6 9 1 0 0 0 0 1 1 0 0 0 0 0 0 13 10 27 16 0 11 3 0 0 0 0 0 0 0
8 6 42 2 9 15 2 0 0 0 0 0 0 1 0 0 0 0 0 0 0 0 0 3 0 0 0 10 1 8 6 2 0 0 14 10 0 0 0 0 0 0 0 0 0
10 2 36 13 10 13 1 0 0 0 0 0 0 1 0 0 0 0 0 0 0 0 4 3 8 0 0 0 0 3 0 0 12 0 0 4 0 0 0 0 0 0 0 0 0
19 38 39 9 3 7 11 1 0 6 0 6 1 3 0 0 0 0 0 0 0 0 0 1 47 1 52 21 11 71 0 0 0 2 0 0 0 0 0 0 0 0 0 0 0
36 6 41 39 18 2 3 1 1 8 3 11 12 3 2 1 0 0 0 0 0 0 15 5 23 9 0 15 17 7 6 0 0 0 0 0 0 0 0 0 0 0 0 0 0
21 26 1 13 6 0 5 7 0 3 12 6 9 17 6 3 1 0 0 0 0 10 9 19 4 2 1 1 16 15 6 1 6 0 0 0 0 0 0 0 0 0 0 0 0
34 24 11 0 10 2 3 1 18 0 20 13 8 3 6 15 0 0 0 0 0 9 8 19 6 3 6 5 4 9 2 25 0 3 1 22 0 0 0 0 0 0 0 0 0
5 1 0 4 16 7 0 0 2 16 15 1 0 3 10 6 0 0 0 0 1 5 10 8 4 5 2 7 9 17 5 4 1 2 2 2 0 0 0 0 0 0 0 0 0

GFSSW_con_sbcape_006.txt.gz
CAPE
46 21 7 0 2 10 9 6 5 12 10 26 25 88 97 83 53 11 1 0 0 0 0 0 0 0 0 0 0 0 0 0 0 0 0 0 0 0 0 0 0 0 0 0 0
80 43 16 0 0 5 10 9 5 8 15 27 26 41 67 76 34 19 0 2 0 6 0 0 0 0 0 0 0 0 0 0 0 0 0 0 0 0 0 0 0 0 0 0 0
76 76 29 10 0 2 9 12 12 12 24 29 13 44 38 38 14 2 9 40 55 48 0 0 0 0 0 0 0 0 0 0 0 0 0 0 0 0 0 0 0 0 0 0 0
65 96 72 26 2 2 8 11 12 19 22 21 25 19 52 38 8 0 0 0 53 23 0 0 0 0 0 0 0 0 0 0 0 0 0 0 0 0 0 0 0 0 0 0 0
114 105 106 55 12 2 10 7 13 13 9 26 39 35 42 11 1 0 0 0 0 0 6 2 1 0 0 0 0 0 0 0 0 0 0 0 0 0 0 0 0 0 0 0 0
102 134 140 98 41 20 6 6 12 9 28 19 56 15 0 0 0 0 0 0 0 4 5 1 7 0 0 0 0 0 0 0 0 0 0 0 0 0 0 0 0 0 0 0 0
136 149 189 118 79 20 15 11 14 5 18 16 47 3 0 0 0 0 0 0 0 0 0 0 0 12 4 0 0 0 0 0 0 0 0 0 0 0 0 0 0 0 0 0 0
33 105 124 111 100 69 32 19 35 45 57 32 53 8 0 0 0 0 0 0 0 0 0 0 0 4 3 0 0 4 2 1 0 0 0 0 0 0 0 0 0 0 0 0 0
21 24 108 135 128 105 88 62 46 25 37 42 0 0 0 0 0 0 0 0 0 0 0 0 0 0 1 3 0 1 0 0 0 0 0 0 0 0 0 0 0 0 0 0 0
22 8 13 110 144 101 123 74 58 28 9 0 0 0 0 0 0 0 0 0 0 0 0 0 0 1 2 1 0 0 3 0 0 0 0 0 0 0 0 0 0 0 0 0 0
32 33 5 25 127 103 47 0 0 13 24 0 0 0 0 0 0 0 0 0 0 0 0 0 2 6 1 0 0 0 0 0 0 0 0 0 0 0 0 0 0 0 0 0 0
55 29 24 5 173 62 0 0 0 0 0 0 0 0 0 0 0 0 0 0 0 0 0 1 1 0 0 0 0 2 7 1 0 0 0 0 0 0 0 0 0 0 0 0 0
54 32 17 7 102 11 0 0 0 0 0 0 0 0 0 0 0 0 0 0 0 0 0 0 0 0 0 0 0 0 0 0 0 0 0 0 0 0 0 0 0 0 0 0 0
64 20 23 20 37 2 2 0 0 0 0 0 1 0 0 0 0 0 0 0 0 0 0 0 0 0 0 0 0 1 0 0 0 0 0 0 0 0 0 0 0 0 0 0 0
62 18 18 30 20 2 0 0 0 0 0 0 0 0 0 0 0 0 0 1 0 0 0 0 0 0 0 0 0 2 0 0 4 15 8 0 7 0 0 0 0 0 0 0 0
86 40 45 22 16 0 0 0 0 0 0 0 0 21 13 3 12 0 2 7 2 1 1 0 0 0 0 0 0 1 0 0 0 19 1 0 0 0 0 0 0 0 0 0 0
123 71 74 17 13 0 0 0 0 0 0 2 4 13 12 14 10 7 3 8 16 15 8 15 1 0 0 0 0 0 7 3 19 11 0 0 0 0 0 0 0 0 0 0 0
116 92 29 44 79 0 2 0 0 0 0 0 0 3 2 5 7 7 13 24 17 9 17 0 0 0 0 0 0 0 0 0 0 13 0 0 0 0 0 0 0 0 0 0 0
98 65 82 12 56 0 2 0 0 0 0 0 1 1 2 0 0 8 16 5 0 9 18 1 0 0 0 0 0 33 1 0 0 0 1 0 0 0 0 0 0 0 0 0 0
51 15 16 16 26 28 0 0 0 0 0 0 0 0 0 1 0 5 0 0 5 2 1 0 5 0 0 0 0 8 0 21 4 0 0 0 0 0 0 0 0 0 0 0 0
14 13 60 18 38 14 0 0 0 0 0 0 0 0 0 0 0 3 0 0 0 0 0 0 3 0 8 0 1 4 11 1 2 0 0 0 0 0 0 0 0 0 0 0 0
13 0 50 72 10 13 0 0 0 0 0 1 0 0 0 0 0 0 0 0 0 0 0 5 39 1 0 0 0 0 0 0 1 0 0 0 0 2 6 0 0 0 0 0 0
12 51 30 28 3 6 0 0 0 0 0 0 0 0 5 0 0 0 0 0 0 0 0 1 33 3 0 1 1 11 0 0 0 0 0 0 0 0 0 0 0 0 0 0 0
13 12 39 37 21 0 0 0 0 0 0 2 6 0 0 4 0 0 0 0 0 0 0 1 36 3 0 1 4 13 4 0 1 2 0 0 0 0 0 0 0 0 0 0 0
14 7 3 1 14 0 2 0 0 0 0 12 20 10 6 23 0 0 0 0 0 0 21 14 4 6 3 0 4 13 9 4 2 0 0 0 0 0 0 0 0 0 0 0 0
8 1 0 0 0 0 0 0 0 1 18 7 2 0 4 15 0 0 0 0 0 0 4 15 1 0 2 14 2 14 17 16 8 0 0 0 0 0 0 0 0 0 0 0 0
4 3 2 14 6 0 0 0 0 4 0 0 1 12 12 12 4 1 0 0 0 0 8 5 3 9 0 15 9 11 4 4 4 0 0 0 0 0 0 0 0 0 0 0 0

GFSSW_con_sbcape_009.txt.gz
CAPE
102 98 75 23 5 0 2 7 10 10 4 0 18 29 95 109 59 16 0 0 0 0 0 0 0 0 0 0 0 0 0 0 0 0 0 0 0 0 0 0 0 0 0 0 0
105 94 124 75 12 0 0 3 8 10 3 0 15 34 69 79 24 12 0 4 16 18 0 0 0 0 0 0 0 0 0 0 0 0 0 0 0 0 0 0 0 0 0 0 0
107 90 108 108 30 2 0 0 10 7 12 3 8 14 40 59 26 4 39 72 63 75 0 0 0 0 0 0 0 0 0 0 0 0 0 0 0 0 0 0 0 0 0 0 0
99 86 129 131 88 15 0 3 5 7 15 11 0 14 45 47 0 0 0 7 107 13 1 0 0 0 0 0 0 0 0 0 0 0 0 0 0 0 0 0 0 0 0 0 0
37 96 110 132 117 36 0 0 1 0 14 0 8 11 15 17 13 0 0 0 1 0 9 3 0 0 0 0 0 0 0 0 0 0 0 0 0 0 0 0 0 0 0 0 0
19 44 51 97 141 101 26 0 0 0 13 5 16 0 0 3 0 0 0 0 1 35 7 1 0 0 0 0 0 0 0 0 0 0 0 0 0 0 0 0 0 0 0 0 0
21 39 26 71 111 133 20 0 0 0 16 20 22 0 0 0 0 0 0 0 0 3 15 2 0 0 0 0 0 0 0 0 0 0 0 0 0 0 0 0 0 0 0 0 0
35 22 35 9 92 138 90 28 1 30 43 32 35 0 0 0 0 0 0 0 0 0 0 0 0 12 8 0 0 1 1 0 0 0 0 0 0 0 0 0 0 0 0 0 0
56 25 37 18 22 110 94 100 50 47 48 68 0 0 0 0 0 0 0 0 0 0 0 0 0 0 2 0 0 0 0 0 0 0 0 0 0 0 0 0 0 0 0 0 0
60 54 46 13 13 84 78 91 68 19 5 0 0 0 0 0 0 0 0 0 0 0 0 0 0 0 1 3 0 0 0 0 0 0 0 0 0 0 0 0 0 0 0 0 0
61 77 73 23 28 47 39 17 7 8 5 0 0 0 0 0 0 0 0 0 0 0 0 0 2 1 0 0 0 0 0 0 0 0 0 0 0 0 0 0 0 0 0 0 0
96 73 68 25 18 21 7 0 0 0 0 0 0 0 0 0 0 0 0 0 0 0 0 0 2 0 0 0 0 0 4 2 0 0 0 0 0 0 0 0 0 0 0 0 0
118 86 77 59 21 21 4 0 0 0 0 0 0 0 0 0 0 0 0 0 0 0 0 0 0 0 0 0 2 6 5 1 1 0 0 0 0 0 0 0 0 0 0 0 0
130 77 65 65 25 30 2 0 0 0 0 0 0 0 0 0 0 0 0 0 0 0 1 0 0 0 0 0 0 3 0 0 0 5 2 0 0 0 0 0 0 0 0 0 0
71 81 92 77 47 50 0 0 0 0 0 0 0 0 2 0 0 0 0 0 0 0 0 0 0 0 3 0 0 0 0 0 0 10 5 3 13 0 0 0 0 0 0 0 0
59 112 90 72 55 1 1 0 0 0 0 0 1 24 7 2 17 0 8 19 2 1 1 0 0 0 0 0 0 0 1 1 0 10 26 0 4 0 0 0 0 0 0 0 0
59 84 35 85 6 20 6 7 0 0 0 5 5 32 13 8 10 9 7 14 9 9 2 1 0 0 0 0 0 0 34 11 23 28 1 0 0 0 0 0 0 0 0 0 0
57 59 17 69 2 2 5 2 0 0 0 0 2 17 10 4 7 9 0 16 10 2 1 0 0 0 0 0 0 0 0 2 8 0 0 0 0 0 0 0 0 0 0 0 0
81 25 51 8 12 13 13 0 0 0 0 0 4 6 3 1 1 6 16 7 5 1 1 0 0 0 0 0 0 5 2 0 5 0 6 0 0 0 0 0 0 0 0 0 0
19 42 21 25 2 35 3 0 0 0 0 0 0 0 1 0 2 9 6 0 0 0 2 1 1 0 0 0 0 4 0 9 7 11 16 0 0 0 0 0 0 0 0 0 0
10 38 55 31 4 23 2 0 0 0 0 0 0 0 0 0 0 3 0 0 0 0 0 0 1 0 5 3 0 3 33 29 17 16 1 0 0 0 0 0 0 0 0 0 0
14 16 40 7 0 2 2 0 0 0 0 0 0 0 0 0 0 0 0 0 0 0 0 0 5 6 0 0 0 0 0 0 10 0 0 0 0 0 0 5 0 0 0 0 0
7 24 48 0 5 7 0 0 0 0 0 0 0 0 0 0 0 0 0 0 0 0 0 0 24 0 0 0 0 7 0 0 0 0 0 0 0 0 0 0 0 0 0 0 0
9 7 26 34 5 0 0 0 0 0 0 0 0 0 0 2 0 0 0 0 0 0 0 0 5 0 0 0 2 12 2 3 3 5 0 0 0 0 0 0 0 0 0 0 0
18 11 2 4 5 0 0 0 0 0 0 0 4 6 0 17 3 0 0 0 0 0 0 1 6 4 3 0 0 12 11 6 6 0 0 0 0 0 0 0 0 0 0 0 0
8 7 0 0 0 0 0 0 0 0 0 0 0 2 8 20 0 0 0 0 0 0 5 11 7 3 3 7 6 3 19 18 5 1 0 0 0 0 0 0 0 0 0 0 0
3 4 1 9 0 0 0 0 0 0 0 1 0 7 13 5 1 1 1 0 1 0 1 8 2 6 0 0 8 9 1 5 9 7 0 2 0 0 0 0 1 0 0 0 0

GFSSW_con_sbcape_012.txt.gz
CAPE
70 102 101 100 62 4 0 0 1 3 4 5 7 21 45 67 70 42 18 0 0 1 0 0 0 0 0 0 0 0 0 0 0 0 0 0 0 0 0 0 0 0 0 0 0
35 106 112 119 99 25 0 0 0 4 2 2 11 25 46 71 45 19 5 14 13 23 0 0 0 0 0 0 0 1 0 0 0 0 0 0 0 0 0 0 0 0 0 0 0
23 31 72 120 109 66 3 0 0 2 1 6 6 22 23 47 37 14 35 58 77 71 1 0 0 0 0 0 0 0 0 0 0 0 0 0 0 0 0 0 0 0 0 0 0
18 23 45 62 94 115 26 0 0 1 0 0 4 16 17 30 19 0 19 64 147 69 7 0 0 0 0 0 1 0 0 0 0 0 0 0 0 0 0 0 0 0 0 0 0
16 18 28 38 48 101 90 4 0 1 0 0 2 7 24 21 4 0 0 0 28 74 29 7 1 0 1 0 0 0 0 0 0 0 0 0 0 0 0 0 0 0 0 0 0
16 36 19 42 20 98 133 69 0 2 0 10 10 0 0 13 0 0 0 4 52 105 44 5 7 0 0 0 0 0 0 0 0 0 0 0 0 0 0 0 0 0 0 0 0
23 41 27 5 26 20 116 35 21 2 0 19 10 0 0 0 0 0 0 0 2 100 65 6 3 8 8 12 12 1 0 0 0 0 0 0 0 0 0 0 0 0 0 0 0
20 53 50 11 38 20 88 97 73 43 8 13 11 0 0 0 0 0 0 0 0 0 60 55 41 12 0 2 2 0 0 0 0 0 0 0 0 0 0 0 0 0 0 0 0
53 36 42 28 32 16 25 128 78 71 47 40 0 0 0 0 0 0 0 0 0 0 22 41 1 0 0 0 0 0 0 0 0 0 0 0 0 0 0 0 0 0 0 0 0
43 53 49 46 44 21 10 125 92 60 38 0 0 1 0 0 0 0 0 0 0 3 0 4 13 10 0 5 0 0 0 0 0 0 0 0 0 0 0 0 0 0 0 0 0
83 91 80 76 41 17 11 66 1 30 18 0 0 0 0 0 0 0 0 0 0 20 24 11 19 3 0 0 0 0 0 0 0 0 0 0 0 0 0 0 0 0 0 0 0
143 124 125 62 69 24 39 8 0 0 4 0 0 0 0 0 0 0 0 0 0 3 14 9 7 0 0 0 0 1 0 0 0 0 0 0 0 0 0 0 0 0 0 0 0
110 133 121 87 57 8 24 28 0 0 0 4 0 0 0 0 0 0 0 0 1 7 5 1 0 0 1 3 5 3 6 2 0 0 1 0 0 0 0 0 0 0 0 0 0
103 112 110 88 47 19 21 22 0 0 2 0 7 1 0 0 0 0 0 0 0 0 4 5 2 0 1 3 1 2 0 0 6 4 1 0 0 0 0 0 0 0 0 0 0
95 113 111 79 83 14 29 1 0 0 5 0 7 9 9 0 0 2 0 0 2 0 0 0 0 2 2 1 2 0 0 2 8 16 5 0 10 0 0 0 0 0 0 0 0
49 76 77 61 81 10 47 2 0 2 1 9 18 31 21 10 7 8 14 12 4 5 2 3 0 0 0 0 0 1 10 11 6 8 15 0 0 0 0 0 0 0 0 0 0
73 66 49 56 41 122 82 5 3 11 0 11 18 22 2 7 28 11 25 25 12 18 20 5 6 0 0 5 6 17 19 5 5 7 1 0 0 0 0 0 0 0 0 0 0
74 112 38 58 48 84 25 5 2 0 1 3 20 11 16 16 22 22 21 27 19 6 8 4 0 3 0 3 2 8 9 4 0 0 3 7 3 0 0 0 0 0 0 0 0
85 54 45 44 117 7 14 12 6 0 1 3 23 13 21 6 8 9 12 5 2 1 5 4 1 0 0 0 2 7 11 1 33 7 34 15 1 0 0 0 0 0 3 0 0
57 11 113 75 21 18 4 36 0 0 0 0 2 1 2 9 5 3 8 0 7 3 2 5 6 0 1 3 0 12 9 23 45 17 31 18 6 1 0 21 53 127 15 0 0
18 20 137 51 4 3 18 2 8 1 0 0 0 0 0 5 4 4 1 0 0 0 7 11 3 3 8 11 0 7 10 40 23 58 20 18 2 13 0 43 11 67 3 0 0
6 8 84 33 6 7 15 0 8 0 0 0 0 0 0 1 3 3 1 0 0 0 9 4 11 13 3 0 0 3 4 6 33 7 37 33 7 7 38 108 381 102 10 0 0
6 20 53 85 52 47 5 4 5 0 0 0 0 0 0 0 0 1 0 0 0 0 0 9 22 7 0 2 0 6 0 2 16 22 15 32 2 0 0 8 20 44 2 0 0
10 13 14 13 29 0 3 0 3 0 0 0 0 0 0 0 0 0 0 0 0 0 0 0 12 1 0 0 6 44 5 5 21 20 4 6 0 16 15 4 0 0 0 0 0
11 17 6 36 7 11 0 0 0 0 0 0 0 0 0 1 3 0 0 0 0 0 0 13 16 11 3 2 8 17 11 18 7 1 7 0 2 1 1 2 0 0 0 0 0
6 15 10 12 1 0 0 0 0 0 0 0 0 0 0 4 1 2 0 0 0 0 1 15 6 15 4 3 8 10 11 13 18 22 18 13 6 0 1 8 1 2 0 0 2
3 2 15 15 8 2 1 0 0 0 0 1 0 0 7 0 1 10 3 0 1 3 5 11 12 14 2 5 8 9 5 6 4 5 4 15 0 1 0 3 0 0 0 6 5

GFSSW_con_sbcape_015.txt.gz
CAPE
9 16 61 98 110 105 60 0 1 0 1 5 3 2 19 54 67 41 5 0 11 8 0 1 0 0 0 0 0 0 8 0 0 0 0 0 0 0 0 0 0 0 0 0 0
2 7 10 38 85 96 94 16 1 0 1 2 3 1 14 69 26 12 0 1 0 0 0 0 0 0 0 0 0 1 0 0 0 0 0 0 0 0 0 0 0 0 0 0 0
5 5 5 15 47 74 99 73 7 0 5 4 7 0 3 65 45 12 84 16 20 8 2 4 4 0 0 0 0 0 0 0 0 0 0 0 0 0 0 0 0 0 0 0 0
10 10 14 13 15 32 84 123 38 7 7 6 0 0 8 73 59 52 17 20 81 56 27 13 7 4 0 0 0 0 0 0 0 0 0 0 0 0 0 0 0 0 0 0 0
10 7 17 18 13 19 21 114 96 2 6 9 0 0 13 56 20 0 0 0 81 67 24 12 19 13 9 1 1 2 0 0 0 0 0 0 0 0 0 0 0 0 0 0 0
17 11 10 28 11 12 22 78 127 8 6 9 0 4 7 43 0 0 0 3 15 80 54 24 24 17 24 14 2 6 0 0 0 0 0 0 0 0 0 0 0 0 0 0 0
19 20 13 18 10 10 18 23 100 55 4 28 0 1 12 1 0 0 0 7 44 63 76 40 15 5 6 7 8 0 0 0 0 0 0 0 0 0 0 0 0 0 0 0 0
19 25 28 21 28 11 14 16 12 74 16 36 4 4 11 0 0 0 0 8 41 64 77 9 2 15 7 6 1 0 0 0 0 0 0 0 0 0 0 0 0 0 0 0 0
31 47 44 29 30 29 18 10 5 102 67 60 0 4 5 0 0 0 0 14 11 7 45 39 41 9 7 5 0 0 0 0 0 0 0 0 0 0 0 0 0 0 0 0 0
80 69 67 68 68 51 30 10 1 72 68 28 7 1 0 0 0 0 0 14 7 6 12 3 2 5 6 6 0 0 0 0 0 0 0 0 0 0 0 0 0 0 0 0 0
121 84 112 102 89 57 38 0 62 70 68 24 0 0 0 0 0 0 0 16 15 11 3 7 12 2 0 1 0 0 0 0 0 0 0 0 0 0 0 0 0 0 0 0 0
157 184 147 138 126 89 54 14 6 10 16 13 0 2 2 0 1 2 0 7 6 17 12 4 9 0 4 0 0 0 0 0 0 0 0 0 0 0 0 0 0 0 0 0 0
160 106 142 149 125 64 40 0 0 5 17 17 6 6 0 0 2 4 0 2 15 8 2 11 0 0 0 1 0 0 0 0 0 0 0 0 0 0 0 0 0 0 0 0 0
57 54 123 121 69 65 52 18 25 1 13 11 9 3 0 0 1 2 0 4 6 2 1 10 1 0 0 0 0 0 0 0 0 0 0 0 0 0 0 0 0 0 0 0 0
37 54 71 64 57 46 44 14 8 0 7 0 11 8 7 0 0 6 5 2 6 4 0 3 0 1 1 0 0 0 0 0 1 7 0 0 1 0 0 0 0 0 0 0 0
45 61 39 22 62 13 50 64 0 2 7 14 9 12 6 9 9 15 13 9 6 1 7 1 0 0 0 0 0 0 1 2 2 2 5 0 0 0 0 0 0 0 0 0 0
45 73 68 53 7 83 100 86 7 43 1 18 10 27 13 4 7 2 8 19 4 10 11 4 3 1 0 0 3 4 1 5 14 20 0 0 0 0 0 0 0 0 0 0 0
113 81 57 2 34 140 2 33 17 3 1 2 24 23 18 4 3 10 9 8 6 3 4 2 7 2 2 1 2 2 5 1 0 0 0 0 0 0 0 0 0 0 0 0 0
62 52 57 67 60 33 37 15 84 3 3 14 14 21 16 5 10 21 7 13 8 8 2 4 0 0 0 0 0 6 8 1 12 3 8 0 0 0 0 0 0 0 0 0 7
37 19 29 68 21 32 14 52 3 4 0 8 9 7 5 7 13 12 10 2 3 4 4 1 1 0 2 2 2 1 2 6 20 6 0 0 0 0 0 0 3 0 4 7 36
12 13 66 68 68 26 30 22 15 7 6 5 3 5 2 4 4 2 2 0 5 6 8 4 1 2 1 3 0 3 12 19 6 16 16 10 0 0 0 0 18 11 57 172 103
1 5 61 56 53 30 43 10 16 3 2 0 2 0 0 1 4 3 2 0 0 1 4 6 5 5 0 0 0 1 1 1 25 1 3 23 3 0 0 12 21 35 206 73 35
7 12 42 36 51 14 4 18 18 23 38 8 1 0 0 0 0 2 1 0 0 0 5 4 14 5 2 0 0 2 0 1 6 20 19 46 1 0 0 0 0 2 18 38 10
9 15 11 26 28 2 17 31 31 32 13 0 0 0 0 0 0 2 0 0 0 0 0 13 8 10 0 16 2 26 6 6 10 28 6 9 6 0 10 11 13 63 69 24 7
16 30 16 12 20 15 15 11 16 11 5 0 0 0 0 0 0 0 1 0 0 0 0 5 33 14 5 2 7 6 3 4 2 8 12 0 6 0 2 2 0 13 58 0 6
5 11 4 2 13 0 0 21 18 7 0 0 0 0 0 3 5 0 5 6 4 1 2 9 22 16 5 3 1 4 3 4 9 6 7 9 6 0 6 0 0 2 5 0 0
10 3 9 9 6 1 7 8 0 3 1 0 3 3 5 9 3 10 4 1 3 1 5 7 9 9 0 0 0 2 2 5 3 3 4 10 0 5 0 1 0 0 8 0 0

GFSSW_con_sbcape_018.txt.gz
CAPE
3 0 1 8 16 30 80 129 65 4 1 0 7 2 6 25 49 45 26 0 0 30 0 0 0 0 0 0 0 0 0 0 0 0 0 0 0 0 0 0 0 0 0 0 111
6 8 5 7 8 17 29 88 145 48 4 0 8 1 5 36 30 14 0 1 15 34 0 0 0 0 0 0 0 0 0 0 0 0 0 0 0 0 0 0 0 0 0 0 0
13 11 7 6 7 19 18 26 128 105 15 1 5 3 6 14 46 0 9 2 33 15 0 0 0 0 0 0 0 0 0 0 0 0 0 0 0 0 0 0 0 0 0 0 0
20 20 12 6 21 11 12 32 39 100 49 4 0 1 27 32 10 20 55 73 55 11 0 0 0 0 0 0 0 0 0 0 0 0 0 0 0 0 0 0 0 0 0 0 0
30 28 21 19 13 21 17 16 16 93 71 4 0 0 12 54 46 13 42 49 69 80 6 15 1 0 0 0 0 0 0 0 0 0 0 0 0 0 0 0 0 0 0 0 0
55 41 40 35 26 26 22 15 20 49 67 17 1 9 0 44 30 0 0 2 45 90 54 21 18 15 16 8 2 2 0 0 0 0 0 0 0 0 0 0 0 0 0 0 0
122 91 25 41 52 27 30 18 23 37 119 50 25 4 5 0 0 0 0 5 22 108 69 48 35 21 20 16 7 0 0 0 0 0 0 0 0 0 0 0 0 0 0 0 0
168 151 121 38 50 36 37 27 25 10 70 74 89 4 8 0 0 0 0 6 11 85 93 34 1 13 9 2 4 0 0 0 0 0 0 0 0 0 0 0 0 0 0 0 0
171 161 134 66 70 68 61 62 21 6 46 64 48 16 1 0 0 0 0 3 55 74 95 26 15 5 1 0 0 0 0 0 0 0 0 0 0 0 0 0 0 0 0 0 0
155 150 141 105 97 93 72 66 1 0 122 73 54 30 0 0 0 0 0 3 38 71 67 69 2 0 0 0 0 0 0 0 0 0 0 0 0 0 0 0 0 0 0 0 0
166 159 184 161 124 120 101 42 51 97 32 9 0 2 0 0 0 0 0 3 8 51 4 6 1 0 0 0 0 0 0 0 0 0 0 0 0 0 0 0 0 0 0 0 0
123 143 147 152 161 172 113 18 0 9 6 12 6 22 1 0 1 0 0 4 2 4 2 1 0 0 0 0 0 0 0 0 0 0 0 0 0 0 0 0 0 0 0 0 0
69 63 45 119 174 137 85 6 14 14 18 6 11 18 5 0 0 0 0 2 2 5 0 2 0 0 0 0 0 0 0 0 0 0 0 0 0 0 0 0 0 0 0 0 0
49 24 62 70 86 70 8 39 23 38 3 19 0 14 0 10 4 0 0 1 13 8 11 4 0 0 0 0 0 0 0 0 0 0 0 0 0 0 0 0 0 0 0 0 0
40 32 42 20 39 11 41 65 43 23 15 12 6 7 0 1 0 6 3 2 5 1 0 1 0 0 0 0 0 0 0 0 0 0 0 0 0 0 0 0 0 0 0 0 0
56 74 111 42 9 1 23 69 10 4 6 26 2 4 23 19 8 2 7 1 0 1 5 0 0 0 0 0 0 0 0 0 0 0 0 0 0 0 0 0 0 0 0 0 0
94 129 89 68 12 16 74 29 6 6 3 14 14 16 9 14 21 10 8 7 0 0 3 0 0 0 0 0 0 1 1 0 0 2 0 0 0 0 0 0 0 0 0 0 0
116 158 66 14 2 36 40 7 1 6 0 1 11 12 4 12 12 14 12 14 8 0 0 0 0 0 0 0 0 3 2 0 0 0 0 0 0 0 0 0 0 0 0 0 0
175 136 146 98 86 9 32 11 19 3 7 6 24 7 6 6 6 12 14 10 4 2 0 0 0 0 0 0 0 4 0 0 0 0 0 0 0 0 0 0 0 0 0 0 0
81 64 72 115 32 29 50 37 5 4 3 4 2 7 4 0 9 14 6 0 1 0 0 1 1 0 0 0 0 0 0 0 7 0 0 0 0 0 0 0 0 0 0 0 0
33 24 49 70 68 47 23 4 12 9 1 5 0 1 0 1 7 3 0 0 0 1 1 0 1 0 0 0 0 0 1 2 0 0 0 0 0 0 0 0 0 0 0 0 10
4 10 25 65 16 8 35 11 6 1 16 0 5 0 0 0 0 0 0 0 0 0 1 0 1 0 0 0 0 0 0 0 8 0 0 0 0 0 0 0 0 0 0 0 0
34 35 13 9 16 14 4 9 1 12 23 1 0 1 0 0 1 3 1 0 0 0 2 0 1 0 0 0 0 0 0 0 0 0 0 1 0 0 0 0 0 0 0 0 0
8 10 3 8 0 0 6 5 18 26 11 2 0 0 0 0 1 0 0 0 0 0 2 2 4 0 0 0 0 0 0 0 0 3 0 0 0 0 0 0 0 0 0 0 9
22 15 4 5 2 0 8 24 5 2 0 0 0 0 0 1 0 0 2 0 0 0 0 0 2 0 0 0 0 0 0 0 0 2 4 0 0 0 0 3 9 0 0 0 0
7 3 0 1 0 0 0 7 5 2 9 0 0 1 0 1 10 1 0 1 0 0 0 0 4 1 1 0 0 0 0 0 0 5 6 3 2 0 0 0 0 0 0 0 0
8 5 5 2 0 0 0 6 4 10 0 0 1 0 8 7 1 0 1 0 0 0 0 7 4 1 0 0 0 0 0 1 1 1 4 6 2 0 0 1 0 1 0 0 1

GFSSW_con_sbcape_021.txt.gz
CAPE
21 21 15 11 9 13 31 37 71 136 60 1 0 0 4 7 33 39 5 0 0 8 2 0 0 0 0 0 0 0 0 0 0 0 0 0 0 0 0 0 0 0 0 45 154
37 35 30 18 14 14 15 33 41 63 159 23 0 1 2 32 23 20 0 12 2 0 0 0 0 0 0 0 0 0 0 0 0 0 0 0 0 0 0 0 0 0 0 0 102
45 37 45 45 34 16 16 28 31 46 127 92 0 3 7 31 16 0 0 24 54 26 0 0 0 0 0 0 0 0 0 0 0 0 0 0 0 0 0 0 0 0 0 0 0
64 75 48 60 24 37 18 12 17 24 83 145 11 10 2 15 2 10 82 127 7 4 0 0 0 0 0 0 0 0 0 0 0 0 0 0 0 0 0 0 0 0 0 0 0
92 95 69 72 45 51 20 30 11 19 38 162 62 58 25 35 0 6 154 77 47 28 0 0 0 0 0 0 0 0 0 0 0 0 0 0 0 0 0 0 0 0 0 0 0
104 131 118 115 85 53 47 24 20 18 32 111 80 80 30 10 0 3 3 50 59 55 45 0 0 0 0 0 0 0 0 0 0 0 0 0 0 0 0 0 0 0 0 0 0
122 177 164 151 114 66 31 39 22 26 20 45 115 38 17 0 0 0 0 4 21 60 37 44 27 34 10 1 0 0 0 0 0 0 0 0 0 0 0 0 0 0 0 0 0
162 151 157 142 110 71 78 59 33 25 16 15 95 54 10 0 0 0 0 0 1 37 58 29 12 14 9 0 0 0 0 0 0 0 0 0 0 0 0 0 0 0 0 0 0
148 143 162 161 156 119 97 79 34 32 12 4 60 42 1 0 0 0 0 5 13 100 19 31 11 10 1 2 0 0 0 0 0 0 0 0 0 0 0 0 0 0 0 0 0
108 109 140 155 170 135 118 94 29 17 3 95 36 36 2 0 0 0 0 0 39 95 65 27 4 0 0 0 0 0 0 0 0 0 0 0 0 0 0 0 0 0 0 0 0
82 86 96 128 138 137 34 4 7 80 47 34 4 0 0 0 0 0 0 2 19 24 4 19 0 0 0 0 0 0 0 0 0 0 0 0 0 0 0 0 0 0 0 0 0
56 54 67 37 133 175 64 22 30 11 5 40 3 7 0 0 0 0 0 4 7 12 0 0 1 0 0 0 0 0 0 0 0 0 0 0 0 0 0 0 0 0 0 0 0
33 42 38 54 23 27 32 38 22 0 5 55 40 7 0 0 0 0 0 0 0 2 0 0 0 0 0 0 0 0 0 0 0 0 0 0 0 0 0 0 0 0 0 0 0
21 21 35 20 2 0 8 47 11 0 1 21 10 5 0 2 0 0 0 0 2 2 0 0 0 0 0 0 0 0 0 0 0 0 0 0 0 0 0 0 0 0 0 0 0
63 78 99 101 7 0 26 13 1 0 0 6 4 6 14 0 0 2 0 2 1 0 0 0 0 0 0 0 0 0 0 0 0 0 0 0 0 0 0 0 0 0 0 0 0
82 118 201 108 4 0 0 12 4 0 0 21 1 23 16 11 3 0 1 0 0 8 0 0 0 0 0 0 0 0 0 0 0 0 0 0 0 0 0 0 0 0 0 0 0
69 208 134 42 32 0 15 14 0 0 5 19 17 7 6 11 2 4 1 0 0 0 1 1 0 0 0 0 0 0 0 0 0 0 0 0 0 0 0 0 0 0 0 0 0
165 196 43 28 16 0 11 0 0 51 6 0 11 10 7 2 2 6 4 1 0 0 0 0 0 0 0 0 0 0 0 0 0 0 0 0 0 0 0 0 0 0 0 0 0
89 1 16 25 28 5 17 0 1 25 1 11 7 6 19 14 0 6 6 2 0 0 0 0 0 0 0 0 0 0 0 0 0 0 0 0 0 0 0 0 0 0 0 0 0
0 0 14 35 23 14 31 8 5 7 1 5 1 8 5 13 0 9 9 0 0 0 0 0 0 0 0 0 0 0 0 0 0 0 0 0 0 0 0 0 0 0 0 0 0
0 3 7 19 4 1 18 3 7 0 2 1 0 1 0 1 0 2 0 0 0 0 0 0 0 0 0 0 0 0 0 0 0 0 0 0 0 0 0 0 0 0 0 0 0
0 1 0 0 0 0 2 4 10 0 12 18 0 0 0 0 0 0 0 0 0 0 0 0 0 0 0 0 0 0 0 0 0 0 0 0 0 0 0 0 0 0 0 0 0
0 0 0 0 0 2 0 1 3 5 1 0 0 0 0 0 0 0 0 0 0 0 0 0 0 0 1 0 0 0 0 0 0 0 0 0 0 0 0 0 0 0 0 0 0
0 0 0 0 0 0 2 1 0 0 0 0 0 0 0 0 0 0 0 0 0 0 2 0 0 0 0 0 0 0 0 0 0 0 0 0 0 0 0 0 0 4 4 0 0
0 0 1 0 0 0 0 0 0 0 0 0 0 0 0 0 0 0 0 0 0 0 0 0 0 0 0 0 0 0 0 0 0 0 1 0 0 0 0 0 6 0 0 0 0
0 3 0 0 0 0 0 0 0 0 0 0 0 0 0 0 0 0 0 0 0 0 0 0 0 0 0 0 0 0 0 0 0 0 1 1 0 0 2 0 0 0 0 0 0
3 2 7 0 0 0 0 0 0 0 0 0 0 0 0 2 1 0 1 0 0 0 0 1 0 0 0 0 0 0 0 0 0 3 0 1 0 0 0 0 0 0 0 0 0

GFSSW_con_sbcape_024.txt.gz
CAPE
41 36 37 35 32 25 9 3 21 40 75 138 79 5 4 13 20 35 1 0 0 0 0 0 0 0 0 0 0 0 0 0 0 0 0 0 0 0 0 0 0 0 0 0 18
48 59 43 50 62 30 30 14 20 20 31 73 185 31 8 39 23 2 0 0 0 4 0 0 0 0 0 0 0 0 0 0 0 0 0 0 0 0 0 0 0 0 0 0 4
67 75 74 66 60 54 46 22 15 0 3 12 150 60 40 48 38 0 0 0 88 10 0 0 0 0 0 0 0 0 0 0 0 0 0 0 0 0 0 0 0 0 1 0 1
144 145 108 79 68 62 41 37 25 13 0 7 23 119 88 50 0 5 29 147 136 19 0 0 0 0 0 0 0 0 0 0 0 0 0 0 0 0 0 0 0 0 0 0 0
96 94 129 144 118 108 75 32 24 16 0 4 8 137 34 27 0 0 202 308 65 12 0 0 0 0 0 0 0 0 0 0 0 0 0 0 0 0 0 0 0 0 0 0 0
138 156 179 188 107 113 68 22 10 22 0 1 5 106 3 7 0 11 92 118 60 1 0 0 0 0 0 0 0 0 0 0 0 0 0 0 0 0 0 0 0 0 0 0 0
115 143 162 159 149 104 88 61 37 27 10 11 2 70 2 0 0 17 177 106 78 57 12 0 7 2 0 0 0 0 0 0 0 0 0 0 0 0 0 0 0 0 0 0 0
95 96 109 156 156 142 140 111 45 13 11 17 8 57 1 0 0 0 0 0 48 49 39 35 23 6 0 0 0 0 0 0 0 0 0 0 0 0 0 0 0 0 0 0 0
78 61 89 107 135 148 133 118 67 34 13 12 17 42 0 0 0 0 0 0 10 65 36 66 37 14 1 0 0 0 0 0 0 0 0 0 0 0 0 0 0 0 0 0 0
64 66 86 99 111 124 130 137 65 13 1 1 64 18 0 0 0 0 0 0 83 105 97 60 15 1 0 0 0 0 0 0 0 0 0 0 0 0 0 0 0 0 0 0 0
56 46 53 65 62 122 25 0 3 4 22 13 26 0 0 0 0 0 0 21 25 13 21 8 1 2 0 0 0 0 0 0 0 0 0 0 0 0 0 0 0 0 0 0 0
25 24 10 23 57 42 0 0 15 0 2 0 14 2 0 0 0 0 0 38 59 2 0 0 5 0 1 0 0 0 0 0 0 0 0 0 0 0 0 0 0 0 0 0 0
36 53 43 49 17 7 0 4 18 4 2 0 47 14 0 0 0 0 0 0 34 0 0 0 0 0 0 0 0 0 0 0 0 0 0 0 0 0 0 0 0 0 0 0 0
85 124 137 131 20 2 2 37 1 0 0 19 20 25 1 0 0 0 4 0 0 1 0 0 0 0 0 0 0 0 0 0 0 0 0 0 0 0 0 0 0 0 0 0 0
101 146 176 193 3 7 0 0 0 0 0 17 28 18 5 0 0 1 0 0 0 0 0 0 0 0 0 0 0 0 0 0 0 0 0 0 0 0 0 0 0 0 0 0 0
206 203 191 7 7 25 1 0 0 0 0 6 5 1 18 0 0 8 2 0 2 10 0 0 0 0 0 0 0 0 0 0 0 0 0 0 0 0 0 0 0 0 0 0 0
204 122 40 22 24 2 7 1 0 0 6 16 14 13 5 4 3 13 1 1 0 12 3 0 0 0 0 0 0 0 0 0 0 0 0 0 0 0 0 0 0 0 0 0 0
64 31 30 31 0 0 16 1 0 19 11 6 8 5 2 4 14 4 1 0 0 0 0 0 0 0 0 0 0 0 0 0 0 0 0 0 0 0 0 0 0 0 0 0 0
0 0 8 7 1 0 0 0 0 7 17 10 0 0 1 0 2 0 0 1 0 0 0 0 0 0 0 0 0 0 0 0 0 0 0 0 0 0 0 0 0 0 0 0 0
0 0 0 1 0 0 0 10 3 5 0 0 0 0 3 0 0 0 0 0 0 0 0 0 0 0 0 0 0 0 0 0 0 0 0 0 0 0 0 0 0 0 0 0 0
0 0 0 0 0 0 5 1 10 2 1 6 0 0 1 1 0 0 0 0 0 0 0 0 0 0 0 0 0 0 0 0 0 0 0 0 0 0 0 0 0 0 0 0 0
0 0 0 0 0 2 5 2 1 1 0 0 0 0 0 0 0 0 0 0 0 0 0 0 0 0 0 0 0 0 0 0 0 0 0 0 0 0 0 0 0 0 0 0 0
0 0 0 0 0 2 0 0 0 0 0 0 0 0 0 0 0 0 0 0 0 0 0 0 0 0 0 0 0 0 0 0 0 0 0 0 0 0 0 0 0 0 0 0 0
0 0 0 0 0 0 0 0 0 0 0 0 0 0 0 0 0 0 0 0 0 0 2 0 0 0 0 0 0 0 0 0 0 0 0 0 0 0 0 0 0 0 0 0 0
0 0 0 0 0 0 0 0 0 0 0 0 0 0 0 0 0 0 0 0 0 1 2 0 0 0 0 0 0 0 0 0 0 0 0 0 0 0 0 0 0 0 0 0 0
0 1 0 0 0 0 0 0 0 0 0 0 0 0 0 0 0 0 0 0 0 0 0 0 0 0 0 0 0 0 0 0 0 0 0 0 0 0 0 0 0 0 0 0 0
0 1 7 0 0 0 0 0 0 0 0 0 0 0 0 0 0 0 0 0 0 0 0 0 0 1 0 0 0 0 0 0 0 0 0 0 0 0 0 0 0 1 0 0 0

GFSSW_con_sbcape_027.txt.gz
CAPE
68 61 62 59 69 48 48 29 0 1 1 1 20 128 20 6 18 23 13 0 0 0 0 0 0 0 0 0 0 0 0 0 0 0 0 0 0 0 0 0 0 0 0 0 0
80 97 109 82 92 64 43 24 40 2 0 0 2 15 56 26 20 7 0 1 0 0 33 0 0 0 0 0 0 0 0 0 0 0 0 0 0 0 0 0 0 0 0 0 0
95 101 123 116 105 84 90 72 19 18 9 1 0 9 69 36 13 0 0 1 0 12 1 0 0 0 0 0 0 0 0 0 0 0 0 0 0 0 0 0 0 0 0 0 6
74 98 97 115 145 141 118 90 57 7 10 0 0 2 14 35 0 1 29 31 57 13 0 0 0 0 0 0 0 0 0 0 0 0 0 0 0 0 0 0 0 0 0 0 0
78 88 104 113 152 114 157 116 87 32 9 6 0 5 24 20 0 0 124 298 41 102 10 2 0 0 0 0 0 0 0 0 0 0 0 0 0 0 0 0 0 0 0 0 0
74 84 79 94 119 127 148 143 69 53 24 16 4 7 39 1 0 0 35 219 160 20 4 0 0 0 0 0 0 0 0 0 0 0 0 0 0 0 0 0 0 0 0 0 0
80 84 72 61 91 142 165 162 124 84 28 24 17 9 36 0 0 0 220 219 92 1 3 0 0 0 0 0 0 0 0 0 0 0 0 0 0 0 0 0 0 0 0 0 0
90 78 67 75 99 123 184 197 162 125 32 24 21 19 9 0 0 0 56 125 107 57 29 7 33 26 0 0 0 0 0 0 0 0 0 0 0 0 0 0 0 0 0 0 0
93 78 88 83 98 132 152 185 176 136 50 30 10 38 0 0 0 0 0 32 86 95 54 78 15 20 0 0 0 0 0 0 0 0 0 0 0 0 0 0 0 0 0 0 0
91 67 49 42 77 74 115 131 124 73 9 11 12 5 0 0 0 0 0 30 169 111 134 80 50 11 0 1 1 0 0 0 0 0 0 0 0 0 0 0 0 0 0 0 0
96 28 20 19 23 55 4 0 0 2 43 0 18 3 0 4 4 0 0 75 114 57 113 55 45 26 0 0 0 0 0 0 0 0 0 0 0 0 0 0 0 0 0 0 0
77 65 97 72 88 17 0 0 5 3 0 0 0 2 0 6 1 0 14 35 56 28 0 5 7 9 0 3 3 0 0 0 0 0 0 0 0 0 0 0 0 0 0 0 0
60 79 105 159 56 0 0 0 11 0 2 0 14 6 10 10 0 3 0 4 12 7 0 2 2 13 6 5 2 0 0 0 0 0 0 0 0 0 0 0 0 0 0 0 0
214 131 97 93 13 3 2 35 3 0 0 19 11 14 12 0 0 0 1 0 0 1 0 0 0 2 1 0 0 0 0 0 0 0 0 0 0 0 0 0 0 0 0 0 0
182 178 150 62 0 2 0 1 0 0 0 9 20 13 1 3 0 2 0 2 0 0 0 0 0 0 0 0 0 0 0 0 0 0 0 0 0 0 0 0 0 0 0 0 0
64 54 37 0 4 8 1 0 0 0 0 6 4 5 2 0 0 4 4 0 0 0 0 0 0 0 0 0 0 0 0 0 0 0 0 0 0 0 0 0 0 0 0 0 0
25 22 0 1 7 5 0 0 0 0 5 9 10 7 6 13 12 4 2 0 0 2 1 0 0 0 0 0 0 0 0 0 0 0 0 0 0 0 0 0 0 0 0 0 0
0 0 0 0 0 0 0 0 0 3 10 6 11 4 0 5 8 2 0 0 0 0 2 0 0 0 0 0 0 0 0 0 0 0 0 0 0 0 0 0 0 0 0 0 0
0 0 0 0 0 0 1 0 0 4 10 5 1 0 10 0 11 3 0 0 0 0 0 0 0 0 0 0 0 0 0 0 0 0 0 0 0 0 0 0 0 0 0 0 0
0 0 1 1 0 0 0 3 1 3 0 0 0 0 2 0 0 1 0 0 0 0 0 0 0 0 0 0 0 0 0 0 0 0 0 0 0 0 0 0 0 0 0 0 0
0 0 0 0 0 0 1 0 4 0 0 0 0 0 0 0 0 0 0 0 0 0 0 0 0 0 0 0 0 0 0 0 0 0 0 0 0 0 0 0 0 0 0 0 0
0 0 0 0 0 2 1 2 0 0 0 0 0 0 0 0 0 0 0 0 0 0 0 0 0 0 0 0 0 0 0 0 0 0 0 0 0 0 0 0 0 0 0 0 0
0 0 0 0 0 0 0 0 0 0 0 0 0 0 0 0 0 0 0 0 0 0 0 0 0 0 0 0 0 0 0 0 0 0 0 0 0 0 0 0 0 0 0 0 0
0 0 0 0 0 0 0 0 0 0 0 0 0 0 0 0 0 0 0 0 0 0 0 0 0 0 0 0 0 0 0 0 0 0 0 0 0 0 0 0 0 0 0 0 0
0 0 1 1 0 0 0 0 0 0 0 0 0 0 0 0 0 0 0 0 0 13 0 0 0 0 0 0 0 0 0 0 0 0 0 0 0 0 0 0 0 0 0 0 0
0 0 0 0 0 0 0 0 0 0 0 0 0 0 0 0 0 0 0 0 0 0 0 0 0 0 0 0 0 0 0 0 0 0 0 0 0 0 0 0 0 0 0 0 0
0 0 2 0 0 0 0 0 0 0 0 0 0 0 0 0 0 0 0 0 0 0 0 0 0 0 0 0 0 0 0 0 0 0 0 0 0 0 0 0 0 0 0 0 0

GFSSW_con_sbcape_030.txt.gz
CAPE
77 76 84 96 116 95 86 69 16 5 8 1 2 0 27 161 42 18 12 0 0 0 69 0 0 0 0 0 0 0 0 0 0 0 0 0 0 0 0 0 0 0 0 0 0
82 86 88 111 109 138 115 95 70 18 2 0 2 7 8 38 18 16 0 0 1 0 13 0 0 0 0 0 0 0 0 0 0 0 0 0 0 0 0 0 0 0 0 0 241
81 95 86 109 119 97 120 112 122 93 14 0 0 3 3 16 11 0 0 0 0 14 39 0 0 0 0 0 0 0 0 0 0 0 0 0 0 0 0 0 0 0 0 0 0
94 101 105 74 102 84 97 147 174 139 81 26 10 9 12 31 1 12 1 23 10 6 15 25 0 0 0 0 0 0 0 0 0 0 0 0 0 0 0 0 0 0 0 0 0
84 92 91 87 84 68 90 142 181 147 102 47 20 25 16 68 0 0 152 298 2 44 20 32 1 0 0 0 0 0 0 0 0 0 0 0 0 0 0 0 0 0 0 0 0
98 91 81 89 86 77 121 171 180 183 112 11 26 32 27 28 0 0 0 317 32 102 16 9 7 0 0 0 0 0 0 0 0 0 0 0 0 0 0 0 0 0 0 0 0
114 123 109 88 119 121 149 200 232 180 126 78 39 29 40 16 0 0 28 351 206 183 20 2 0 0 0 0 0 0 0 0 0 0 0 0 0 0 0 0 0 0 0 0 0
142 137 123 107 106 135 187 238 232 205 124 58 41 37 59 4 0 0 0 187 118 26 1 0 6 2 0 0 0 0 0 0 0 0 0 0 0 0 0 0 0 0 0 0 0
170 184 142 105 62 109 174 183 198 221 184 69 30 40 58 1 0 0 0 188 110 88 48 62 44 36 0 0 0 0 0 0 0 0 0 0 0 0 0 0 0 0 0 0 0
99 161 92 43 32 44 138 124 141 106 78 41 15 23 13 5 6 0 0 143 106 110 95 50 69 14 0 1 0 2 0 0 0 0 0 0 0 0 0 0 0 0 0 0 0
94 61 70 94 73 78 0 0 0 0 42 0 25 17 10 0 7 0 0 65 23 88 22 42 35 12 5 0 0 0 0 0 0 0 0 0 0 0 0 0 0 0 0 0 0
245 88 69 81 133 39 0 0 0 2 0 1 0 19 4 9 9 0 0 19 30 28 34 32 14 0 0 0 0 0 0 0 0 0 0 0 0 0 0 0 0 0 0 0 0
193 192 1 31 60 0 0 0 0 0 0 3 4 14 14 11 21 0 8 28 21 36 11 17 0 7 15 12 21 1 0 0 0 0 0 0 0 0 0 0 0 0 0 0 0
108 131 72 19 9 0 0 0 0 0 0 1 22 15 35 34 3 1 5 5 28 7 1 3 2 0 2 5 1 0 0 0 0 0 0 0 0 0 0 0 0 0 0 0 0
67 72 38 38 0 1 0 1 0 0 0 5 22 12 4 6 0 1 0 1 2 0 0 1 4 7 15 5 0 0 0 0 0 0 0 0 0 0 0 0 0 0 0 0 0
62 50 13 0 5 9 0 0 0 0 0 5 6 29 6 8 0 1 0 0 1 0 0 0 0 0 2 0 0 0 0 0 0 0 0 0 0 0 0 0 0 0 0 0 0
27 1 0 0 0 0 0 0 0 0 6 8 10 0 0 25 5 4 1 0 2 1 2 0 0 0 0 0 0 0 0 0 0 0 0 0 0 0 0 0 0 0 0 0 0
5 0 0 0 0 0 0 0 0 6 18 3 0 0 4 8 4 7 0 0 0 0 0 0 0 0 0 0 0 0 0 0 0 0 0 0 0 0 0 0 0 0 0 0 0
0 0 0 1 0 0 2 0 0 4 10 4 0 4 2 2 12 0 0 0 0 0 0 0 0 0 0 0 0 0 0 0 0 0 0 0 0 0 0 0 0 0 0 0 0
0 0 0 0 0 0 0 3 0 1 0 0 0 0 0 3 0 1 0 0 0 0 0 0 0 0 0 0 0 0 0 0 0 0 0 0 0 0 0 0 0 0 0 0 0
0 0 0 0 0 0 0 0 1 0 0 0 0 0 0 0 0 0 0 0 0 0 0 0 0 0 0 0 0 0 0 0 0 0 0 0 0 0 0 0 0 0 0 0 0
0 0 0 0 0 0 1 1 0 0 0 0 0 0 0 0 0 0 0 0 0 0 0 0 0 0 0 0 0 0 0 0 0 0 0 0 0 0 0 0 0 0 0 0 0
0 0 0 0 0 0 0 0 0 0 0 0 0 0 0 0 0 0 0 0 0 0 0 0 0 0 0 0 0 0 0 0 0 0 0 0 0 0 0 0 0 0 0 0 0
0 0 0 0 0 0 0 0 0 0 0 0 0 0 0 0 0 0 0 0 0 0 0 0 0 0 0 0 0 0 0 0 0 0 0 0 0 0 0 0 0 0 0 0 0
0 0 2 0 0 0 0 0 0 0 0 0 0 0 0 0 0 0 0 0 0 3 0 0 0 0 0 0 0 0 0 0 0 0 0 0 0 0 0 0 0 0 0 0 0
0 1 0 0 0 0 0 0 0 0 0 0 0 0 0 0 0 0 0 0 0 0 0 0 0 0 0 0 0 0 0 0 0 0 0 0 0 0 0 0 0 0 0 0 0
1 0 5 0 0 0 0 0 0 0 0 0 0 0 0 0 0 0 0 0 0 0 0 0 0 0 0 0 0 0 0 0 0 0 0 0 0 0 0 0 0 0 0 0 0

GFSSW_con_sbcape_033.txt.gz
CAPE
66 75 86 90 92 108 131 99 93 89 2 2 0 1 1 3 21 31 10 1 0 60 104 0 11 19 0 0 0 0 0 0 0 0 0 0 0 0 0 0 0 0 0 0 52
65 69 97 116 117 96 104 112 93 92 60 28 2 0 2 9 3 6 0 0 2 8 7 0 21 0 0 0 0 0 0 0 0 0 0 0 0 0 0 0 0 0 0 6 203
74 75 97 109 131 117 109 104 86 105 100 59 33 8 15 21 27 4 44 37 39 80 5 10 10 0 0 0 0 0 0 0 0 0 0 0 0 0 0 0 0 0 0 0 122
109 90 110 146 160 144 109 100 74 57 59 90 49 12 19 28 16 0 66 251 92 9 105 0 0 0 0 0 0 0 0 0 0 0 0 0 0 0 0 0 0 0 0 0 0
127 151 157 134 158 156 113 117 96 58 120 129 38 65 26 30 11 0 0 35 34 55 128 2 6 2 3 0 0 0 0 0 0 0 0 0 0 0 0 0 0 0 0 0 0
145 181 199 232 182 178 146 125 128 140 186 168 84 90 27 31 9 0 0 11 7 150 142 10 0 0 0 0 0 0 0 0 0 0 0 0 0 0 0 0 0 0 0 0 0
154 159 212 227 194 174 196 180 202 220 255 227 110 50 16 0 0 0 0 169 9 218 128 5 1 0 0 0 0 0 0 0 0 0 0 0 0 0 0 0 0 0 0 0 0
93 106 175 175 192 144 191 245 230 211 258 152 149 58 10 10 2 7 0 183 69 299 168 12 0 0 0 0 0 0 0 0 0 0 0 0 0 0 0 0 0 0 0 0 0
198 193 97 129 82 89 107 234 241 242 237 176 56 47 8 59 10 0 0 117 221 150 43 107 37 31 0 0 0 0 0 0 0 0 0 0 0 0 0 0 0 0 0 0 0
157 188 100 86 37 21 81 143 111 139 154 112 63 34 2 12 0 0 0 39 138 118 130 116 36 17 0 0 0 0 0 0 0 0 0 0 0 0 0 0 0 0 0 0 0
128 136 115 12 53 124 0 0 0 0 43 0 2 1 23 10 0 5 38 151 112 62 59 33 5 9 14 0 0 0 0 0 0 0 0 0 0 0 0 0 0 0 0 0 0
31 78 64 3 69 63 0 0 0 0 0 1 4 12 17 16 3 9 0 89 20 15 24 30 12 0 1 0 0 0 0 0 0 0 0 0 0 0 0 0 0 0 0 0 0
68 66 22 1 34 0 0 0 0 2 2 2 0 2 35 31 26 14 63 29 0 7 11 2 23 0 0 1 3 0 0 0 0 0 0 0 0 0 0 0 0 0 0 0 0
16 57 14 2 8 2 0 0 0 0 0 16 3 15 10 19 21 4 23 22 35 3 26 11 4 13 2 1 0 0 0 0 0 0 0 0 0 0 0 0 0 0 0 0 0
13 16 12 10 0 0 0 0 0 0 0 4 6 8 5 0 16 0 0 4 0 23 16 5 14 26 31 16 0 0 0 0 0 0 0 0 0 0 0 0 0 0 0 0 0
0 0 0 0 0 0 0 0 0 0 0 2 7 19 11 11 5 7 0 0 6 1 0 0 0 0 3 0 0 0 0 0 0 0 0 0 0 0 0 0 0 0 0 0 0
0 0 0 0 0 0 0 0 0 0 2 9 5 12 1 7 1 2 9 0 6 1 5 4 0 0 0 0 0 0 0 0 0 0 0 0 0 0 0 0 0 0 0 0 0
0 0 0 0 0 0 0 0 0 19 28 3 0 0 8 3 0 0 0 0 0 0 1 0 2 0 0 0 0 0 0 0 0 0 0 0 0 0 0 0 0 0 0 0 0
0 0 0 0 0 0 0 0 0 0 11 0 0 0 0 0 0 0 0 0 0 0 0 0 0 0 0 0 0 0 0 0 0 0 0 0 0 0 0 0 0 0 0 0 0
0 0 0 0 0 0 0 7 0 0 0 0 0 0 0 0 0 0 0 0 0 0 0 0 0 0 0 0 0 0 0 0 0 0 0 0 0 0 0 0 0 0 0 0 0
0 0 0 0 0 0 0 0 0 0 0 0 0 0 0 0 0 0 0 0 0 0 0 0 0 0 0 0 0 0 0 0 0 0 0 0 0 0 0 0 0 0 0 0 0
0 0 0 0 0 0 0 1 0 0 0 0 0 0 0 0 0 0 0 0 0 0 0 0 0 0 0 0 0 0 0 0 0 0 0 0 0 0 0 0 0 0 0 0 0
0 0 0 0 0 0 0 0 0 0 0 0 0 0 0 0 0 0 0 0 0 0 0 0 0 0 0 0 0 0 0 0 0 0 0 0 0 0 0 0 0 0 0 0 0
0 0 0 0 0 0 0 0 0 0 0 0 0 0 0 0 0 0 0 0 0 0 0 0 0 0 0 0 0 0 0 0 0 0 0 0 0 0 0 0 0 0 0 0 0
0 0 0 0 0 0 0 0 0 0 0 0 0 0 0 0 0 0 0 0 0 0 0 0 0 0 0 0 0 0 0 0 0 0 0 0 0 0 0 0 0 0 0 0 0
0 0 0 0 0 0 0 0 0 0 0 0 0 0 0 0 0 0 0 0 0 0 0 0 0 0 0 0 0 0 0 0 0 0 0 0 0 0 0 0 0 0 0 0 0
0 0 4 0 0 0 0 0 0 0 0 0 0 0 0 0 0 0 0 0 0 0 0 0 0 0 0 0 0 0 0 0 0 0 0 0 0 0 0 0 0 0 0 0 0

GFSSW_con_sbcape_036.txt.gz
CAPE
49 55 59 69 77 100 105 116 115 109 75 27 7 0 0 0 3 0 50 9 0 0 66 0 9 120 0 0 0 0 1 6 0 0 0 0 0 0 0 0 0 0 0 0 23
76 86 87 88 119 134 136 165 130 95 92 107 44 9 2 3 0 0 6 64 19 0 167 0 56 98 0 0 0 0 0 0 0 0 0 0 0 0 0 0 0 0 0 195 374
82 95 116 157 151 150 165 198 151 118 139 124 94 18 6 5 0 0 117 226 237 18 56 12 160 77 3 0 0 0 0 0 0 0 0 0 0 0 0 0 0 0 0 65 370
94 108 151 162 170 165 197 170 194 89 60 69 46 31 0 15 0 42 117 498 309 74 38 69 159 95 29 0 0 0 0 0 0 0 0 0 0 0 0 0 0 0 0 0 240
84 129 165 186 164 189 216 181 150 117 71 64 58 29 4 15 0 0 69 7 395 88 74 85 53 88 53 5 0 0 0 0 0 0 0 0 0 0 0 0 0 0 0 0 0
96 92 129 164 171 164 203 182 163 122 106 120 64 100 16 6 0 30 0 0 228 63 110 137 12 91 45 24 0 0 0 0 0 0 0 0 0 0 0 0 0 0 0 0 0
150 178 136 127 150 187 177 175 212 194 173 170 75 30 19 0 84 74 2 0 217 32 172 184 42 29 30 24 4 0 0 0 0 0 0 0 0 0 0 0 0 0 0 0 0
118 156 178 134 134 136 167 197 242 221 196 205 173 110 11 0 0 0 3 0 70 134 224 254 137 70 26 6 0 4 0 0 0 0 0 0 0 0 0 0 0 0 0 0 0
81 112 127 133 36 19 69 80 228 233 265 197 116 103 5 29 0 1 0 4 182 265 288 222 110 29 11 4 9 10 0 0 0 0 0 0 0 0 0 0 0 0 0 0 0
78 88 70 79 38 29 39 89 73 211 256 172 84 43 0 27 40 1 0 14 144 321 127 124 124 89 36 11 0 0 0 0 0 0 0 0 0 0 0 0 0 0 0 0 0
58 107 81 14 35 57 0 0 31 71 90 0 0 5 78 98 56 34 7 154 185 100 37 60 59 22 16 5 0 0 0 0 0 0 0 0 0 0 0 0 0 0 0 0 0
81 70 25 33 75 4 1 0 0 8 2 2 7 8 0 31 74 70 67 58 63 53 39 46 43 27 41 20 5 0 0 0 0 0 0 0 0 0 0 0 0 0 0 0 0
31 2 0 0 5 1 1 5 0 0 50 48 19 11 71 60 59 76 12 12 44 61 50 28 18 18 18 20 16 0 0 0 0 0 0 0 0 0 0 0 0 0 0 0 0
1 3 1 0 0 1 4 8 0 0 45 19 14 34 50 69 111 26 53 1 7 6 39 14 38 0 11 25 21 7 0 0 0 0 0 0 0 0 0 0 0 0 0 0 0
0 0 0 0 0 5 16 3 0 6 56 5 3 0 12 1 4 18 36 41 9 13 13 19 30 21 15 17 16 2 0 0 0 0 0 0 0 0 0 0 0 0 0 0 0
3 0 0 0 0 0 0 0 1 8 12 2 27 2 3 13 21 24 18 8 11 6 0 5 0 1 12 0 18 0 0 0 0 0 0 0 0 0 0 0 0 0 0 0 0
4 0 0 0 0 0 0 4 13 16 3 27 24 13 6 8 5 4 3 7 5 4 4 5 4 0 0 0 0 0 1 12 4 5 1 0 0 0 0 0 0 0 0 0 0
3 0 0 0 0 0 8 0 7 6 14 11 23 8 9 4 4 5 9 5 0 0 12 10 8 7 3 3 2 0 2 4 0 0 0 0 0 0 0 0 0 0 0 0 0
0 0 0 0 0 4 1 4 6 1 7 6 1 0 4 0 4 8 0 0 0 0 0 0 6 0 0 0 0 1 3 0 0 0 0 0 0 0 0 0 0 0 0 0 0
0 0 0 0 1 3 1 15 6 0 0 0 0 0 2 6 0 0 0 0 0 0 0 0 4 0 0 0 0 0 0 0 0 0 0 0 0 0 0 0 0 0 0 0 0
0 0 0 0 1 0 1 13 7 1 0 0 0 0 0 0 0 0 0 0 0 0 0 0 0 1 0 0 0 0 0 0 0 0 0 0 0 0 0 0 0 0 0 0 0
0 0 0 0 0 1 5 0 0 3 0 0 0 0 0 0 0 0 0 0 0 0 0 0 0 6 1 0 0 0 0 0 0 0 0 0 0 0 0 0 0 0 0 0 0
0 0 0 0 0 0 0 0 1 0 0 0 0 0 0 0 0 0 0 0 0 0 0 0 0 5 2 0 0 0 0 0 0 0 0 0 0 0 0 0 0 0 0 0 0
0 0 0 0 0 0 0 0 0 0 0 0 0 0 0 0 0 0 0 0 0 0 0 0 0 0 0 0 0 0 0 0 0 0 0 0 0 0 0 0 0 0 0 0 0
0 1 1 0 0 0 0 0 0 0 0 0 0 0 0 0 0 0 0 0 0 0 0 0 0 0 0 0 0 0 0 0 0 0 0 0 0 0 0 0 0 0 0 0 0
4 2 1 1 1 0 0 0 0 0 0 0 0 0 0 0 0 0 0 0 0 0 0 0 1 0 0 0 0 0 0 0 0 0 0 0 0 0 0 0 0 0 0 0 0
0 1 6 0 0 0 0 0 0 0 0 0 0 0 0 0 0 0 0 0 0 0 0 0 0 0 0 0 0 0 0 0 0 0 0 0 0 0 0 0 0 0 0 0 0

GFSSW_con_sbcape_039.txt.gz
CAPE
65 77 73 74 82 70 92 88 104 97 86 84 117 7 0 1 0 0 1 14 24 0 42 0 1 222 29 46 2 0 74 68 51 34 4 0 0 0 0 0 0 0 0 0 333
73 79 82 90 106 117 109 136 130 123 91 63 80 38 4 0 0 0 0 81 156 2 113 0 22 208 25 0 0 0 81 43 40 38 12 4 0 0 0 0 0 0 0 75 421
64 78 83 104 120 135 128 157 121 171 148 115 56 66 1 0 0 0 0 97 306 117 225 0 61 266 22 6 0 0 0 1 70 8 3 0 0 0 0 0 0 0 0 30 247
60 83 100 115 132 153 154 173 151 156 65 70 68 24 1 6 0 62 77 464 565 104 90 35 41 229 27 7 0 0 0 1 28 0 0 0 0 0 0 0 0 0 0 0 138
122 155 167 159 128 154 144 175 139 131 85 72 71 34 3 19 0 176 133 614 389 118 14 68 16 53 27 8 0 0 0 0 0 0 0 0 0 0 0 0 0 0 0 0 0
130 141 158 184 149 136 138 179 105 146 81 82 43 55 13 14 2 128 62 38 437 192 87 42 7 77 47 34 7 2 1 0 0 0 0 0 0 0 0 0 0 0 0 0 0
100 121 125 179 178 145 122 189 166 198 169 101 36 8 16 7 14 242 17 1 36 416 25 37 37 165 70 41 33 22 6 1 0 0 0 0 0 0 0 0 0 0 0 0 0
102 119 102 125 124 52 60 163 183 197 152 112 78 28 6 0 0 3 83 16 14 364 25 76 164 68 43 34 47 26 29 11 0 0 0 0 0 0 0 0 0 0 0 0 0
90 96 70 55 9 0 41 53 129 182 212 178 78 98 13 10 0 0 55 16 147 351 44 370 339 100 82 46 66 42 2 0 0 0 0 0 0 0 0 0 0 0 0 0 0
75 53 63 18 46 32 50 45 121 244 274 204 124 94 4 15 1 23 109 4 213 145 190 225 336 96 49 56 12 0 0 0 0 0 0 0 0 0 0 0 0 0 0 0 0
40 32 34 14 25 46 79 77 213 138 98 36 34 14 106 154 151 99 64 19 155 124 99 154 91 34 8 0 0 0 0 0 0 0 0 0 0 0 0 0 0 0 0 0 0
7 0 18 37 15 0 25 21 9 6 23 4 17 0 1 0 46 21 89 60 66 59 18 68 9 12 19 16 8 0 1 0 0 0 0 0 0 0 0 0 0 0 0 0 0
11 1 0 0 0 9 8 5 3 19 37 23 6 5 40 25 38 70 0 5 43 70 41 10 2 9 33 21 27 15 4 0 0 0 0 0 0 0 0 0 0 0 0 0 0
25 1 0 0 2 0 0 2 3 0 49 23 10 29 57 56 37 47 16 18 9 55 40 38 8 18 34 20 30 26 13 1 0 0 0 0 0 0 0 0 0 0 0 0 0
8 9 0 0 0 0 0 2 5 9 119 9 11 8 62 54 30 10 48 14 4 11 4 9 25 16 16 26 38 40 2 0 0 0 0 0 0 0 0 0 0 0 0 0 0
5 4 0 1 0 0 0 2 7 8 24 36 20 42 15 24 11 23 25 1 2 5 0 3 0 8 23 1 35 0 0 0 0 0 3 0 0 0 0 0 0 0 0 0 0
5 9 1 0 2 0 2 1 6 32 2 16 23 14 11 11 21 26 19 9 4 2 3 2 3 3 0 2 0 0 13 26 18 22 2 0 0 0 0 0 0 0 0 0 0
7 0 0 0 1 4 2 8 18 5 7 20 17 6 10 14 10 4 4 23 13 7 16 17 5 2 0 1 0 0 19 59 9 8 1 0 0 0 0 0 0 0 0 0 0
0 0 0 0 5 2 3 8 28 11 7 2 4 4 7 5 1 16 7 8 4 4 16 13 20 9 11 0 0 2 2 0 0 0 0 0 0 0 0 0 0 0 0 0 0
0 0 0 0 2 2 5 10 28 5 1 0 4 2 8 4 6 11 8 0 0 0 0 0 6 1 7 2 0 4 0 2 0 0 0 0 0 0 0 0 0 0 0 0 0
0 0 0 0 2 9 4 2 16 3 0 0 0 0 1 1 2 11 1 0 0 0 0 0 0 2 0 1 0 1 4 0 0 0 0 0 0 0 0 0 0 0 0 0 0
1 14 0 0 13 12 10 4 1 1 0 0 0 0 1 0 0 1 0 0 0 0 0 0 2 3 4 0 0 0 0 0 1 0 0 0 0 0 0 0 0 0 0 0 0
1 0 0 0 11 8 0 0 0 0 0 0 0 0 0 1 1 3 0 0 0 0 0 0 0 3 3 1 0 0 0 0 0 0 0 0 0 0 0 0 0 0 0 0 0
1 3 0 0 0 2 0 0 0 0 0 0 0 0 0 0 0 0 0 0 0 0 0 0 0 0 0 1 0 0 0 0 0 0 0 0 0 0 0 0 0 0 0 0 0
1 4 3 16 0 0 0 0 0 0 0 0 0 0 0 0 0 0 0 0 0 0 0 0 0 0 0 0 0 0 0 0 0 0 0 0 0 0 0 0 0 0 0 0 0
5 6 5 1 0 0 0 0 0 0 0 0 0 0 0 0 0 0 0 0 0 0 0 0 0 0 0 0 0 0 0 0 0 0 0 0 0 0 0 0 0 0 0 0 0
0 7 9 0 3 0 1 1 3 0 0 0 0 1 1 4 0 0 0 0 0 0 0 1 0 0 1 0 0 0 0 0 0 0 0 0 0 0 0 0 0 0 0 0 0

GFSSW_con_sbcape_042.txt.gz
CAPE
61 61 65 75 76 101 103 93 82 84 89 88 86 109 3 0 3 10 0 3 71 64 0 0 0 109 349 174 77 61 54 20 0 0 15 2 3 0 0 0 0 0 12 309 793
31 47 74 93 104 141 142 133 118 100 75 91 91 114 70 2 0 0 0 7 244 147 5 0 9 273 167 79 70 93 41 3 0 19 34 3 4 0 0 0 0 0 0 309 580
87 121 166 194 203 183 180 148 138 97 80 26 58 54 73 18 0 0 0 26 167 391 1 0 38 361 227 31 20 7 1 4 67 66 0 0 0 0 0 0 0 0 0 54 381
110 131 148 223 227 222 184 141 117 89 140 13 12 39 47 34 3 31 0 49 189 277 161 44 1 56 64 10 4 0 0 2 40 1 0 0 0 0 0 0 0 0 0 0 93
97 111 125 198 224 226 141 146 130 100 101 46 91 55 62 8 0 125 111 117 186 282 55 65 3 14 20 0 0 0 0 0 2 0 0 0 0 0 0 0 0 0 0 0 0
70 94 102 153 198 196 122 107 51 120 79 79 69 69 44 1 0 127 129 197 387 289 4 88 0 87 63 41 0 0 0 0 4 0 0 0 0 0 0 0 0 0 0 0 0
57 77 87 130 154 117 124 75 160 165 155 126 70 27 31 1 16 230 81 0 250 172 8 0 0 31 146 131 23 12 0 0 0 0 0 0 0 0 0 0 0 0 0 0 0
39 35 26 23 36 26 40 113 130 166 130 91 57 52 9 0 0 2 43 1 0 99 73 93 41 24 112 116 46 16 12 10 0 0 0 0 0 0 0 0 0 0 0 0 0
35 29 22 5 0 0 29 46 91 156 165 122 7 3 1 37 0 0 6 35 44 237 280 147 285 45 64 40 39 37 0 0 0 0 0 0 0 0 0 0 0 0 0 0 0
12 24 15 8 25 53 42 8 75 134 158 86 7 4 0 0 0 0 6 58 150 267 382 129 74 55 31 15 7 0 0 0 0 0 0 0 0 0 0 0 0 0 0 0 0
12 26 6 13 21 17 48 122 124 70 70 20 8 2 0 0 63 111 211 52 125 76 44 82 31 0 0 0 0 0 0 0 0 0 0 0 0 0 0 0 0 0 0 0 0
40 1 11 14 7 19 24 11 0 0 23 1 0 0 0 0 33 93 71 307 112 36 20 33 22 0 0 0 0 5 0 0 0 0 0 0 0 0 0 0 0 0 0 0 0
14 24 2 0 5 12 1 6 6 0 2 1 0 0 44 16 35 19 37 4 5 9 19 10 1 37 11 2 6 0 0 0 0 0 0 0 0 0 0 0 0 0 0 0 0
6 9 17 0 0 0 0 0 0 0 7 2 16 31 30 11 41 52 1 1 9 21 12 31 8 15 6 22 14 9 0 1 0 0 0 0 0 0 0 0 0 0 0 0 0
7 6 7 0 0 4 0 1 5 4 42 4 15 18 7 21 15 48 1 0 5 24 31 22 5 0 24 18 5 24 14 1 1 0 0 0 0 0 0 0 0 0 0 0 0
5 6 4 1 6 0 0 4 4 6 0 21 6 26 71 28 14 21 2 0 0 2 1 1 0 6 17 20 22 33 0 0 0 1 0 0 0 0 0 0 0 0 0 0 0
3 6 3 0 1 0 6 6 2 4 0 2 33 27 22 10 20 10 7 8 2 0 0 3 2 0 0 11 2 0 1 4 19 12 0 0 0 0 0 0 0 0 0 0 0
1 1 0 0 3 5 5 6 0 1 6 5 16 11 8 0 3 8 17 11 1 0 8 4 1 1 0 0 0 0 0 8 0 0 0 0 0 0 0 0 0 0 0 0 0
0 0 0 0 3 3 5 0 0 7 5 1 2 14 9 15 3 5 13 10 15 14 5 9 6 6 0 0 0 0 0 0 0 0 0 0 0 0 0 0 0 0 0 0 0
2 0 0 0 0 0 8 0 6 2 2 0 3 1 1 4 6 12 1 0 2 1 0 0 7 9 5 1 0 0 0 0 0 0 0 0 0 0 0 0 0 0 0 0 0
0 0 0 0 2 1 0 0 0 0 0 0 0 0 2 0 1 6 0 0 0 0 0 0 0 13 7 7 5 0 0 0 0 0 0 0 0 0 0 0 0 0 0 0 0
0 0 0 0 9 27 11 1 0 0 0 0 0 0 0 0 0 1 0 0 0 0 0 0 0 4 2 0 0 0 0 0 0 0 0 0 0 0 0 0 0 0 0 0 0
0 0 0 0 13 0 0 0 0 0 0 0 0 0 0 0 0 0 0 0 0 0 0 0 0 0 0 0 0 0 0 0 0 0 0 0 0 0 0 0 0 0 0 0 0
0 0 4 0 0 1 3 0 0 0 0 0 0 0 0 0 0 0 0 0 0 0 0 0 0 0 0 0 0 0 0 0 0 0 0 0 0 0 0 0 0 0 0 0 0
2 0 0 0 0 0 0 1 3 7 0 0 0 0 0 0 0 0 0 0 0 0 0 0 0 0 0 0 0 0 0 0 0 0 0 0 0 0 0 0 0 0 0 0 0
0 1 0 0 0 0 0 7 8 13 0 3 0 1 0 0 0 0 0 0 0 0 0 0 0 0 0 0 0 0 0 0 0 0 0 0 0 0 0 0 0 0 0 0 0
0 0 5 0 0 0 0 0 3 2 1 0 0 1 0 10 1 0 0 0 0 0 0 0 0 0 0 0 0 0 0 0 0 0 0 0 0 0 0 0 0 0 0 0 0

GFSSW_con_sbcape_045.txt.gz
CAPE
71 90 97 130 163 156 145 142 122 107 89 79 74 78 110 7 6 13 0 0 61 105 16 0 0 0 90 145 43 62 52 10 3 0 0 1 0 0 0 0 0 0 135 607 480
76 85 78 106 170 228 213 206 176 136 77 41 80 119 116 102 10 0 0 0 137 268 0 0 0 47 228 106 62 43 20 1 0 0 0 0 2 0 0 0 0 100 680 664 435
52 53 70 95 124 188 197 210 182 119 54 2 64 126 96 40 13 0 0 0 148 404 0 0 10 245 145 53 21 11 0 0 0 0 2 0 0 0 0 0 0 17 606 522 389
38 74 85 81 115 195 184 128 122 82 70 23 30 47 18 15 19 0 88 0 166 307 172 0 28 194 181 23 48 0 6 1 49 64 35 2 0 0 0 0 0 0 44 200 236
58 40 41 64 92 169 129 90 54 93 80 118 43 13 9 6 4 0 29 1 136 241 112 32 0 131 15 12 7 0 0 3 5 0 0 0 0 0 0 0 0 0 0 0 91
40 24 20 33 21 100 68 47 35 40 83 100 111 71 26 2 1 247 133 28 171 146 115 40 0 0 45 8 0 0 0 2 0 0 0 0 0 0 0 0 0 0 0 0 0
45 30 23 14 13 15 49 54 141 112 155 128 72 31 21 0 0 114 138 4 79 124 94 34 10 1 15 23 0 0 2 0 0 0 0 0 0 0 0 0 0 0 0 0 0
19 26 35 3 0 0 5 82 106 161 138 92 49 18 5 3 0 0 26 20 0 30 179 66 3 2 87 39 12 19 0 1 0 0 0 0 0 0 0 0 0 0 0 0 0
5 7 39 20 0 0 0 7 59 133 162 138 22 9 0 17 0 0 0 0 1 21 109 113 60 17 25 29 12 21 1 0 0 0 0 0 0 0 0 0 0 0 0 0 0
26 4 5 2 1 2 0 14 95 81 73 111 24 1 1 0 0 0 0 0 32 76 32 111 42 25 22 1 1 0 0 0 0 0 0 0 0 0 0 0 0 0 0 0 0
12 23 1 0 5 0 0 0 0 5 0 7 1 0 0 0 23 9 0 18 39 32 3 9 0 0 0 0 0 0 0 0 0 0 0 0 0 0 0 0 0 0 0 0 0
4 13 7 0 0 0 0 0 4 2 0 0 0 0 0 0 42 79 67 36 114 30 8 6 2 0 0 0 0 0 0 0 0 0 0 0 0 0 0 0 0 0 0 0 0
12 6 8 0 0 0 0 0 0 0 4 1 0 0 19 10 42 30 22 67 41 0 11 2 0 0 0 0 0 0 0 0 0 0 0 0 0 0 0 0 0 0 0 0 0
13 5 8 4 0 0 0 0 0 0 0 16 21 33 49 40 4 11 25 9 33 8 22 11 0 0 0 0 0 0 0 0 0 0 0 0 0 0 0 0 0 0 0 0 0
16 10 10 4 0 0 0 0 0 0 0 25 29 16 10 3 1 36 23 0 3 28 4 4 9 16 7 11 4 0 0 0 0 0 0 0 0 0 0 0 0 0 0 0 0
6 5 5 0 0 0 0 0 0 0 0 2 11 21 12 15 18 10 0 0 0 1 0 1 0 1 7 10 10 0 0 0 0 0 0 0 0 0 0 0 0 0 0 0 0
6 3 0 0 0 0 0 0 0 0 0 13 12 28 7 12 15 5 2 1 2 8 5 0 1 0 0 0 0 0 0 2 7 6 0 0 0 0 0 0 0 0 0 0 0
1 0 0 0 0 0 0 0 0 0 2 2 7 10 5 1 12 18 12 9 0 0 8 0 21 2 0 0 0 0 0 0 0 0 0 0 0 0 0 0 0 0 0 0 0
0 0 0 0 0 0 1 0 0 2 1 2 2 7 14 9 2 8 9 3 3 0 0 0 2 3 0 0 0 0 0 0 0 0 0 0 0 0 0 0 0 0 0 0 0
0 0 0 0 0 0 0 0 0 0 0 0 0 0 0 0 0 4 9 3 8 0 0 0 3 8 3 1 0 0 0 0 0 5 0 0 0 0 0 0 0 0 0 0 0
0 0 0 0 0 2 0 0 0 0 0 0 0 0 0 0 0 3 0 0 0 0 0 0 0 13 5 5 4 0 0 0 0 0 0 0 0 0 0 0 0 0 0 0 0
0 0 0 0 0 1 0 0 0 0 0 0 0 0 0 0 0 0 0 0 0 0 0 0 0 5 1 2 0 0 0 0 0 1 0 0 0 0 0 0 0 0 0 0 0
0 0 0 0 6 0 0 0 0 0 0 0 0 0 0 0 0 0 0 0 0 0 0 0 0 0 1 0 2 5 0 0 0 0 0 0 0 0 0 0 0 0 0 0 0
0 0 0 0 0 0 0 0 0 0 0 0 0 0 0 0 0 0 0 0 0 0 0 0 0 0 0 0 0 0 0 0 0 0 0 0 0 0 0 0 0 0 0 0 0
0 0 0 0 0 0 0 2 0 0 0 0 0 0 0 0 0 0 0 0 0 0 0 0 0 0 0 0 0 0 0 0 0 0 0 0 0 0 0 0 0 0 0 0 0
0 0 0 0 0 0 0 1 3 3 0 0 0 0 0 0 0 0 0 0 0 0 0 0 0 0 0 0 0 0 0 0 0 0 0 0 0 0 0 0 0 0 0 0 0
0 0 0 0 0 0 0 0 0 2 7 0 0 0 0 3 0 0 0 0 0 0 0 0 0 0 0 0 0 0 0 0 0 0 0 0 0 0 0 0 0 0 0 0 0

GFSSW_con_sbcape_048.txt.gz
CAPE
43 23 44 34 48 65 152 210 168 208 152 119 96 81 61 75 74 57 4 0 0 317 170 0 0 0 44 124 46 10 22 0 0 0 0 0 0 0 0 0 7 88 265 411 265
25 46 48 52 46 43 84 170 203 198 121 91 72 149 104 59 16 0 0 0 9 282 0 0 0 0 295 153 98 23 3 0 0 0 0 0 0 0 0 0 125 751 623 456 312
39 41 33 46 36 43 104 97 116 140 40 46 28 136 117 42 0 1 0 8 0 285 7 0 0 210 228 54 39 23 0 0 0 0 2 0 0 0 0 0 14 693 761 395 185
51 33 29 32 22 52 69 75 101 37 41 40 72 103 110 26 64 0 0 58 22 48 85 0 24 176 34 128 8 22 11 0 8 24 29 0 0 0 0 0 0 143 553 300 213
28 20 17 37 45 66 17 54 13 89 54 144 31 4 6 6 0 0 28 69 4 122 101 0 30 41 84 9 81 0 0 0 45 65 27 13 5 0 0 0 0 78 284 294 213
15 12 14 11 24 27 63 56 67 118 132 118 155 49 14 12 0 3 0 13 0 160 126 77 0 39 0 16 65 0 0 1 0 11 34 1 0 0 0 0 0 0 0 6 90
14 9 15 9 6 17 18 87 122 112 163 144 99 86 21 0 0 21 24 1 86 258 121 90 0 43 0 6 0 0 51 0 0 0 0 2 6 0 0 0 0 0 0 0 0
28 6 10 5 4 1 0 56 67 141 138 79 53 6 7 29 0 0 12 30 12 35 144 141 34 25 0 0 1 6 0 1 0 0 0 0 0 0 1 0 0 0 0 0 0
17 17 3 7 0 1 0 7 29 87 92 99 3 1 0 3 1 0 0 44 33 23 89 131 15 2 4 1 2 6 0 0 0 0 0 0 0 0 0 0 0 0 0 0 0
8 18 14 3 5 1 2 15 5 19 8 22 37 0 0 0 0 0 0 41 65 38 150 111 44 12 0 8 2 0 0 0 0 0 0 0 0 0 0 0 0 0 0 0 0
11 9 14 4 0 0 0 0 0 0 0 0 0 0 0 0 0 2 40 8 0 8 4 48 13 0 0 0 0 0 0 0 0 0 0 0 0 0 0 0 0 0 0 0 0
11 10 7 4 0 0 0 0 0 0 0 0 0 0 0 0 29 20 75 0 5 17 0 44 7 0 0 2 0 0 0 0 0 0 0 0 0 0 0 0 0 0 0 0 0
14 15 4 7 2 0 0 0 0 0 1 0 0 0 0 10 33 39 41 29 20 6 8 5 7 0 1 0 0 0 0 0 0 0 0 0 0 0 0 0 0 0 0 0 0
8 15 5 17 0 0 0 0 0 0 0 14 8 9 26 53 28 3 1 70 17 15 0 19 1 0 2 0 0 0 0 0 0 0 0 0 0 0 0 0 0 0 0 0 0
13 11 6 10 0 0 0 0 0 0 0 1 24 8 2 1 1 40 35 37 34 5 10 9 2 0 0 0 0 0 0 0 0 0 0 0 0 0 0 0 0 0 0 0 0
7 6 8 0 0 0 0 0 0 0 0 1 0 13 4 0 26 17 14 0 3 4 0 0 0 3 0 0 3 0 0 0 0 0 0 0 0 0 0 0 0 0 0 0 0
6 0 4 0 0 0 0 0 0 0 0 4 21 5 4 32 16 0 5 7 2 0 0 0 0 0 0 2 5 0 0 0 0 0 0 0 0 0 0 0 0 0 0 0 0
4 0 0 0 0 0 0 0 0 0 15 9 6 0 2 7 11 9 4 0 0 0 0 0 1 0 0 0 3 1 0 0 0 0 0 0 0 0 0 0 0 0 0 0 0
0 0 0 0 0 0 0 0 0 0 0 1 7 12 9 10 2 6 8 0 0 0 0 0 0 0 0 0 0 0 0 0 0 0 0 0 0 0 0 0 0 0 0 0 0
0 0 0 0 0 0 0 0 0 0 0 0 0 0 3 1 12 15 6 0 5 0 0 0 3 5 1 0 0 0 0 0 0 0 0 0 0 0 0 0 0 0 0 0 0
0 0 0 0 0 3 0 0 0 0 0 0 0 0 0 0 0 0 0 0 0 0 0 0 0 12 4 2 9 4 3 0 0 0 0 0 0 0 0 0 0 0 0 0 0
0 0 0 0 1 0 0 0 0 0 0 0 0 0 0 0 0 0 0 0 0 0 0 0 0 1 1 2 0 0 0 0 0 0 0 0 0 0 0 0 0 0 0 0 0
0 0 0 0 3 0 0 0 0 0 0 0 0 0 0 0 0 0 0 0 0 0 0 0 0 0 0 0 0 12 3 0 0 0 0 0 0 0 0 0 0 0 0 0 0
0 0 0 0 0 0 0 0 0 0 0 0 0 0 0 0 0 0 0 0 0 0 0 0 0 0 0 0 0 0 6 0 0 0 0 0 0 0 0 0 0 0 0 0 0
0 0 0 0 0 0 0 1 0 0 0 0 0 0 0 0 0 0 0 0 0 0 0 0 0 0 0 0 0 0 0 0 0 0 0 0 0 0 0 0 0 0 0 0 0
0 0 0 0 0 0 0 0 1 19 0 2 0 0 0 0 0 0 0 0 0 0 0 0 0 0 0 0 0 0 0 0 0 0 0 0 0 0 0 0 0 0 0 0 0
0 0 0 0 0 0 0 0 0 0 3 0 0 0 0 0 0 0 0 0 0 0 0 0 0 0 0 0 0 0 0 0 0 0 0 0 0 0 0 0 0 0 0 0 0

GFSSW_con_sbcape_051.txt.gz
CAPE
30 41 30 28 58 70 67 80 119 164 211 164 150 134 91 96 93 52 32 0 0 73 322 0 0 0 125 131 137 27 3 0 0 0 0 0 0 0 0 0 0 244 217 234 117
29 33 16 29 40 41 67 114 145 172 163 116 92 143 155 98 33 34 14 31 19 45 0 0 0 0 316 177 145 42 16 0 0 0 0 0 0 0 0 0 17 544 484 300 119
26 26 25 25 24 50 53 63 136 149 74 72 46 114 154 20 7 0 30 115 58 24 26 0 0 0 68 179 98 59 1 0 0 0 1 0 0 0 0 0 0 0 533 389 170
21 22 20 28 27 21 20 61 55 47 56 74 75 121 161 7 0 0 9 109 203 28 89 0 1 0 25 102 41 34 0 1 0 45 0 0 0 0 0 0 0 0 0 187 267
14 16 21 8 13 14 16 15 31 78 80 131 52 24 6 19 0 0 30 15 13 10 4 7 0 0 10 3 54 0 5 1 86 58 4 11 1 0 0 0 0 0 55 116 172
38 19 15 13 3 6 2 28 68 148 137 173 136 25 15 4 0 1 0 0 0 18 0 19 0 0 26 23 76 2 24 45 58 25 19 4 2 0 0 0 0 0 253 160 98
40 34 23 13 10 1 2 50 51 104 135 133 94 109 24 0 0 0 0 3 12 7 5 71 1 71 2 6 0 0 4 2 50 47 15 8 13 6 0 0 0 0 0 9 109
29 37 22 16 6 2 0 5 29 55 116 49 33 1 20 4 0 0 0 37 82 41 83 99 42 30 1 0 0 0 0 0 0 2 3 35 5 0 1 0 0 0 0 0 0
12 14 18 24 9 2 0 26 8 29 30 70 0 0 0 41 43 1 0 13 85 136 125 182 37 33 4 2 0 0 0 0 0 0 0 0 0 1 0 0 0 0 0 0 0
15 10 7 12 22 8 0 0 5 0 0 0 1 0 0 1 6 44 36 13 60 120 141 81 50 39 0 1 1 0 0 0 0 0 0 0 0 0 2 0 0 0 0 0 0
13 25 10 5 19 8 0 0 0 0 0 0 0 0 0 0 0 9 49 1 15 58 148 10 28 1 0 0 0 0 0 0 0 0 0 0 0 0 0 0 0 0 0 0 0
14 19 8 4 8 7 0 0 0 0 0 0 0 0 0 0 6 56 113 8 4 2 34 24 10 0 0 0 0 0 0 0 0 0 0 0 0 0 0 0 0 0 0 0 0
23 15 17 5 10 0 0 0 0 0 0 0 0 0 0 1 21 64 56 18 6 12 9 4 0 0 16 0 2 0 0 0 0 0 0 0 0 0 0 0 0 0 0 0 0
18 8 18 10 0 0 0 0 0 0 0 6 1 5 38 36 5 3 56 25 14 8 6 5 0 7 11 2 0 0 0 0 0 0 0 0 0 0 0 0 0 0 0 0 0
7 18 14 16 0 0 0 0 0 0 0 0 14 1 2 15 0 9 0 47 1 17 10 4 2 0 0 0 0 0 0 0 0 0 0 0 0 0 0 0 0 0 0 0 0
18 19 3 2 1 0 0 0 0 0 0 3 4 3 4 6 4 16 26 22 7 12 2 2 0 0 0 0 0 0 0 0 0 0 0 0 0 0 0 0 0 0 0 0 0
12 5 3 0 0 0 0 0 0 0 0 1 10 2 1 11 12 7 34 17 2 0 0 1 0 0 0 2 0 0 0 0 0 0 0 0 0 0 0 0 0 0 0 0 0
9 0 5 0 0 0 0 0 0 0 9 8 4 6 6 2 3 3 7 9 1 0 0 1 2 0 0 0 0 0 0 0 0 0 0 0 0 0 0 0 0 0 0 0 0
0 0 0 0 0 0 0 0 0 0 0 3 8 8 14 13 1 3 3 1 0 0 0 0 1 0 0 0 0 0 0 0 0 0 0 0 0 0 0 0 0 0 0 0 0
0 0 0 0 0 0 0 0 0 0 0 0 0 0 5 11 2 3 1 0 0 0 0 0 1 0 0 0 0 0 0 0 0 0 0 0 0 0 0 0 0 0 0 0 0
0 0 0 0 0 4 0 0 0 0 0 0 0 0 0 0 3 3 2 0 0 0 0 0 0 3 7 2 4 0 1 0 0 0 0 0 0 0 0 0 0 0 0 0 0
0 0 0 0 3 3 0 0 0 0 0 0 0 0 0 0 0 0 0 0 0 0 0 0 0 1 1 1 0 0 0 0 0 0 0 0 0 0 0 0 0 0 0 0 0
0 0 0 0 2 0 0 0 0 0 0 0 0 0 0 0 0 0 0 0 0 0 0 0 0 0 0 0 1 11 6 0 0 0 0 0 0 0 0 0 0 0 0 0 0
0 0 0 1 0 0 0 0 0 0 0 0 0 0 0 0 0 0 0 0 0 0 0 0 0 0 0 0 0 1 1 3 1 0 0 0 0 0 0 0 0 0 0 0 0
0 0 0 0 0 0 0 0 0 0 0 0 0 0 0 0 0 0 0 0 0 0 0 0 0 0 0 0 0 0 0 1 3 0 0 0 0 0 0 0 0 0 0 0 0
0 0 0 0 0 0 0 0 0 0 0 0 0 0 0 0 0 0 0 0 0 0 0 0 0 0 0 0 0 0 0 0 0 0 0 0 0 0 0 0 0 0 0 0 0
0 0 0 0 0 0 0 0 0 0 0 0 0 0 0 0 0 0 0 0 0 0 0 0 0 0 0 0 0 0 0 0 0 0 0 0 0 0 0 0 0 0 0 0 0

GFSSW_con_sbcape_054.txt.gz
CAPE
27 23 20 28 24 22 23 36 62 108 128 80 74 163 147 176 165 57 26 12 1 32 115 28 0 0 96 75 127 12 23 1 0 0 0 0 0 0 0 0 0 66 165 174 51
12 20 17 20 21 22 12 10 50 83 132 121 115 100 150 179 86 36 5 105 166 66 23 8 0 0 126 96 135 55 55 1 0 0 0 2 0 0 0 0 0 0 0 12 87
17 16 28 15 16 20 13 11 6 54 95 114 84 62 172 56 22 0 46 178 197 116 49 0 9 0 2 61 64 42 6 0 0 0 1 1 0 0 0 0 0 0 0 0 0
53 19 30 19 13 23 12 4 2 27 60 107 77 116 171 11 0 0 110 193 324 147 44 20 10 3 0 52 32 50 0 0 0 1 9 0 0 0 0 0 0 0 0 0 0
64 48 14 36 16 16 9 3 5 55 101 115 58 68 19 18 0 1 35 0 3 120 43 45 4 0 0 2 82 41 0 0 28 2 0 1 0 0 0 0 0 0 0 0 15
49 51 42 17 20 10 8 12 25 71 105 139 163 45 19 0 0 0 0 0 0 0 0 8 4 0 0 1 5 21 27 13 30 13 33 13 1 0 0 0 0 0 0 0 0
19 31 40 22 16 14 7 3 15 8 71 111 92 82 25 0 0 0 0 0 0 0 0 2 19 12 0 3 8 15 56 54 54 58 60 18 4 0 0 0 0 0 0 0 0
42 14 23 28 21 16 10 7 8 0 5 75 54 0 1 1 3 10 0 0 7 5 22 67 81 29 11 0 24 32 4 60 6 23 22 0 0 0 0 0 0 0 0 0 0
32 33 13 7 23 26 12 3 5 6 7 4 0 7 1 41 33 1 0 4 71 75 90 7 79 39 6 0 10 0 4 0 0 18 31 0 0 0 0 0 0 0 0 0 0
30 35 22 8 10 24 9 0 0 0 0 0 8 2 0 0 0 24 51 76 78 183 93 194 36 12 2 4 0 0 0 0 0 0 3 0 0 0 0 0 0 0 0 0 0
41 35 28 7 11 16 0 0 0 0 0 0 0 0 0 0 0 29 73 2 30 66 32 32 2 0 0 0 0 0 0 0 0 0 0 0 6 0 19 0 0 0 0 0 0
32 31 27 9 5 21 0 0 0 0 0 0 0 0 0 0 9 58 8 0 6 26 19 28 2 0 0 0 0 0 0 0 0 0 0 0 0 0 0 0 0 0 0 0 0
31 34 22 6 10 0 0 0 0 0 0 0 0 0 0 8 38 51 2 0 0 5 1 3 0 0 0 16 2 0 0 0 0 0 0 0 0 0 0 0 0 0 0 0 0
32 21 12 6 0 0 0 0 0 0 0 1 4 17 50 58 5 36 30 0 1 4 2 4 0 0 9 24 0 0 0 0 0 0 0 0 0 0 0 0 0 0 0 0 0
17 12 10 12 0 0 0 0 0 0 0 0 18 7 3 13 0 17 4 0 0 6 4 2 1 18 4 8 6 0 0 0 0 0 0 0 0 0 0 0 0 0 0 0 0
7 9 5 6 5 0 0 0 0 0 0 6 8 6 9 9 8 26 37 7 5 12 8 4 0 0 0 0 0 0 0 0 0 0 0 0 0 0 0 0 0 0 0 0 0
7 5 1 0 0 0 0 0 0 0 0 1 6 1 2 10 24 14 11 13 4 0 0 1 3 0 0 1 0 0 0 0 0 0 0 0 0 0 0 0 0 0 0 0 0
3 0 2 0 0 0 0 0 0 0 0 15 18 13 18 9 11 11 11 9 1 0 0 1 12 0 0 0 0 0 0 0 0 0 0 0 0 0 0 0 0 0 0 0 0
0 0 0 0 0 0 0 0 0 0 2 5 4 9 14 6 0 3 7 4 0 0 0 0 3 0 0 0 0 0 0 0 0 0 0 0 0 0 0 0 0 0 0 0 0
0 0 0 0 0 0 1 0 0 0 0 3 1 2 35 0 2 1 1 0 0 0 0 0 1 0 0 0 0 0 0 0 0 0 0 0 0 0 0 0 0 0 0 0 0
0 0 0 0 0 5 0 0 0 0 0 0 0 0 2 7 2 1 0 0 0 0 0 0 0 4 0 0 2 0 0 0 0 0 0 0 0 0 0 0 0 0 0 0 0
0 0 0 0 2 4 0 0 0 0 0 0 0 0 0 0 0 1 0 0 0 0 0 0 0 0 0 0 0 0 0 0 0 0 0 0 0 0 0 0 0 0 0 0 0
0 0 0 0 3 0 0 0 0 0 0 0 0 0 0 0 0 0 0 0 0 0 0 0 0 1 1 0 0 9 0 0 0 0 0 0 0 0 0 0 0 0 0 0 0
0 0 0 1 0 0 0 0 0 0 0 0 0 0 0 0 0 0 0 0 0 0 0 0 0 0 0 0 0 1 1 0 0 0 0 0 0 0 0 0 0 0 0 0 0
0 0 0 0 0 0 0 0 0 0 0 0 0 0 0 0 0 0 0 0 0 0 0 0 0 0 0 0 0 0 0 1 2 0 0 0 0 0 0 0 0 0 0 0 0
0 0 0 0 0 0 0 0 0 0 0 0 0 0 0 0 0 0 0 0 0 0 0 0 0 0 0 0 0 0 0 0 0 0 9 0 0 0 0 0 0 0 0 0 0
0 0 0 0 0 0 0 0 0 0 0 0 0 0 0 0 0 0 0 0 0 0 0 0 0 0 0 0 0 0 0 0 0 0 0 0 0 0 0 0 0 0 0 0 0

GFSSW_con_sbcape_057.txt.gz
CAPE
18 15 20 14 13 27 19 20 13 20 38 72 126 167 154 190 180 39 69 32 49 92 153 19 17 1 49 132 109 43 76 7 0 0 0 0 0 0 0 0 0 0 0 0 82
47 24 18 19 17 37 15 17 11 7 47 96 138 89 135 149 56 10 15 123 183 141 50 42 31 0 219 63 186 197 39 7 0 0 0 2 1 0 0 0 0 0 0 0 98
52 53 20 13 21 14 25 19 10 2 14 98 82 92 142 44 12 0 252 88 149 132 71 16 18 0 113 5 59 79 17 0 0 0 6 3 0 0 0 0 0 0 0 0 0
31 59 43 13 19 15 20 21 15 2 20 79 53 145 110 0 0 0 196 139 135 70 105 64 18 2 15 62 16 59 2 0 1 2 2 0 0 0 0 0 0 0 0 0 0
15 25 28 45 8 14 9 27 27 38 20 45 55 28 13 0 0 0 9 0 0 63 75 62 28 3 2 8 43 5 11 1 26 21 0 2 4 0 0 0 0 0 0 0 0
22 17 13 29 41 9 19 14 24 7 18 44 50 82 3 0 0 0 0 0 2 57 56 91 42 0 3 45 18 0 24 3 50 59 46 2 0 0 0 0 0 0 0 0 0
36 25 18 11 28 30 13 25 18 4 1 25 4 1 0 0 0 0 0 0 1 13 24 18 70 10 10 17 1 1 50 38 34 64 79 25 5 0 0 0 0 0 0 0 0
39 30 19 22 10 23 31 22 43 29 0 0 2 0 0 0 11 3 0 0 0 0 22 30 19 9 16 6 12 33 4 40 36 68 41 30 0 0 0 0 0 0 0 0 0
40 33 28 25 17 14 24 19 40 7 36 2 0 0 0 21 12 0 0 6 21 13 49 52 84 33 2 49 13 9 0 0 0 43 38 0 0 0 2 0 0 0 0 0 0
37 31 36 25 22 15 15 0 0 1 0 0 0 0 0 0 0 2 40 75 63 76 89 50 59 48 0 24 2 0 0 0 0 25 31 0 0 3 1 0 0 0 0 0 0
34 29 34 22 15 16 0 0 0 0 0 0 0 0 0 0 0 27 74 111 122 96 34 28 3 8 8 0 0 0 0 0 0 0 76 38 0 0 3 0 0 0 0 0 0
36 34 31 18 9 20 0 0 0 0 0 0 0 0 0 0 7 46 61 6 82 47 0 2 8 0 0 0 0 0 0 0 0 0 15 4 12 0 0 0 0 0 0 0 0
32 29 24 13 8 0 0 0 0 0 0 0 0 0 0 6 14 20 9 6 27 11 2 8 3 0 1 0 0 0 0 0 0 0 0 0 0 0 0 0 0 0 0 0 0
23 23 20 5 0 0 0 0 0 0 0 0 10 16 19 32 12 25 38 0 1 6 9 8 0 0 0 0 0 0 0 0 0 0 0 0 0 0 0 0 0 0 0 0 0
16 22 18 3 0 0 0 0 0 0 0 0 17 18 13 26 0 23 0 0 0 2 0 3 0 0 9 7 0 0 0 0 0 0 0 0 0 0 0 0 0 0 0 0 0
15 11 9 0 3 0 0 0 0 0 0 3 13 6 9 1 31 36 59 0 0 4 0 2 0 4 0 0 0 0 0 0 0 0 0 0 0 0 0 0 0 0 0 0 0
10 3 2 0 0 0 0 0 0 0 0 1 4 6 8 15 47 25 6 0 0 1 4 26 10 0 0 0 0 0 0 3 12 3 0 0 0 0 0 0 0 0 0 0 0
0 1 0 0 0 0 0 0 0 0 8 20 32 4 8 5 10 14 2 1 0 1 2 4 2 0 0 0 0 0 0 0 0 0 0 0 0 0 0 0 0 0 0 0 0
0 0 0 0 0 0 0 0 0 0 6 0 1 0 9 5 7 15 12 16 4 1 4 1 6 1 0 0 0 0 0 0 0 0 0 0 0 0 0 0 0 0 0 0 0
0 0 0 0 0 0 0 0 0 0 0 2 1 4 4 0 4 7 7 0 2 6 0 0 3 0 0 0 0 0 0 0 0 0 0 0 0 0 0 0 0 0 0 0 0
0 0 0 0 0 2 0 0 0 0 0 0 0 0 6 9 0 0 0 0 0 0 0 0 0 1 0 4 0 0 0 0 0 0 0 0 0 0 0 0 0 0 0 0 0
0 0 0 0 1 5 0 0 0 0 0 0 0 0 0 0 5 0 0 0 0 0 0 0 0 1 2 0 0 0 0 0 0 0 0 0 0 0 0 0 0 0 0 0 0
0 0 0 0 3 0 0 0 0 0 0 0 0 0 0 0 0 0 0 0 0 0 0 0 0 1 0 0 0 1 0 0 0 0 0 0 0 0 0 0 0 0 0 0 0
0 0 0 5 0 0 0 0 0 0 0 0 0 0 0 0 0 0 0 0 0 0 0 0 0 0 0 0 0 0 1 2 0 2 0 0 0 0 0 0 0 0 0 0 0
0 0 0 0 0 0 0 0 0 0 0 0 0 0 0 0 0 0 0 0 0 0 0 0 0 0 0 0 0 0 0 0 0 0 0 0 0 0 0 0 0 0 0 0 0
0 0 0 0 0 0 0 0 0 0 0 0 0 0 0 0 0 0 0 0 0 0 0 0 0 0 0 0 0 0 0 0 0 0 1 1 0 0 0 0 0 0 0 0 0
0 0 0 0 0 0 0 0 5 0 0 0 0 0 0 0 0 0 0 0 0 0 0 0 0 0 0 0 0 0 0 0 0 0 0 0 0 0 0 0 0 0 0 0 0

GFSSW_con_sbcape_060.txt.gz
CAPE
48 40 15 17 21 11 23 14 13 11 9 7 20 71 134 159 153 95 80 8 81 113 114 70 65 135 205 159 412 248 90 88 16 4 0 0 5 0 0 0 0 0 0 0 241
23 58 31 12 25 6 19 14 10 5 4 5 12 73 114 165 10 3 0 70 145 59 112 115 79 173 243 200 312 273 95 17 2 0 0 0 10 0 0 0 0 0 0 0 336
8 19 39 16 12 14 19 14 10 5 3 1 2 121 154 122 33 0 191 254 121 76 37 102 175 159 124 237 78 209 74 20 40 0 12 18 23 2 0 1 0 0 0 0 0
28 13 15 42 38 11 7 9 16 11 3 0 0 32 81 87 6 33 23 62 133 73 2 94 157 199 41 145 105 138 119 129 104 30 1 9 7 1 0 0 0 0 0 0 0
31 29 20 17 39 8 7 6 13 2 3 1 0 0 14 22 0 0 0 0 13 26 0 48 122 113 9 29 202 115 180 143 120 26 36 24 10 8 1 0 0 0 0 0 0
36 34 28 21 15 32 5 15 8 2 1 2 5 0 0 0 0 0 0 0 20 69 12 34 87 64 17 18 155 70 93 163 152 82 53 36 12 21 0 1 0 0 0 0 0
41 38 32 21 22 5 21 12 11 10 1 2 8 6 2 0 0 0 0 0 15 78 2 26 76 54 27 49 35 42 127 136 78 78 0 66 81 1 0 1 0 0 0 0 0
47 38 43 36 13 6 11 27 3 11 6 2 17 17 1 0 1 13 4 0 0 47 5 60 4 83 63 57 90 37 112 90 57 101 40 72 2 0 6 11 5 0 0 0 0
49 43 34 35 19 7 8 16 12 1 5 35 19 12 0 40 2 5 8 5 15 6 32 69 8 93 84 87 106 91 14 26 75 129 150 145 20 23 6 0 0 0 0 0 0
49 39 35 28 19 11 8 4 0 0 0 0 1 10 0 0 0 7 11 93 60 69 39 16 9 72 78 80 21 10 19 21 34 100 100 156 63 0 24 0 0 0 0 0 0
38 38 32 26 23 13 13 0 0 0 0 0 0 0 0 0 50 49 53 41 45 38 42 33 5 23 4 0 1 5 29 39 50 110 166 106 82 25 0 0 0 0 0 0 0
29 34 30 23 16 16 4 0 0 0 0 0 0 0 0 0 13 2 113 51 48 39 14 22 21 0 31 14 2 10 6 16 4 147 162 114 77 82 7 0 3 2 2 0 0
29 26 24 18 13 9 1 0 0 0 0 0 0 0 3 19 38 2 70 28 23 20 15 1 7 3 36 7 25 20 0 2 0 168 37 34 25 7 0 0 0 0 0 0 0
25 24 23 21 1 0 0 0 0 0 3 5 15 23 19 90 29 54 32 0 8 15 12 11 5 4 55 18 19 37 7 4 24 13 1 0 0 0 0 0 0 0 0 0 0
23 22 18 14 4 0 0 0 0 0 18 0 12 29 38 23 20 8 35 9 9 9 4 9 17 11 77 16 12 3 0 0 1 0 0 0 0 0 0 0 0 0 0 0 0
15 16 7 2 7 0 0 0 0 4 3 7 7 8 2 1 40 20 42 26 2 2 10 28 10 2 16 14 0 0 0 0 0 3 0 0 0 0 0 0 0 0 0 0 0
9 5 0 0 0 0 0 0 4 5 0 3 13 12 6 8 25 52 22 4 7 28 11 30 27 7 1 23 0 6 13 25 18 17 1 0 0 0 0 0 0 0 0 0 0
2 1 0 0 0 0 0 0 5 0 16 12 10 21 12 11 5 12 1 8 7 11 3 14 33 17 13 33 2 21 9 3 0 0 0 0 0 0 0 0 0 0 0 0 0
0 0 0 0 0 0 13 8 8 0 16 0 8 3 38 26 9 17 14 28 8 0 42 24 4 0 0 0 2 2 16 0 0 0 0 0 0 0 0 0 0 0 0 0 0
0 0 0 0 0 1 14 1 1 0 0 7 6 9 5 16 11 7 8 2 3 5 0 0 9 15 0 1 1 9 0 1 1 0 0 0 0 0 0 0 0 0 0 0 0
0 2 0 0 0 9 15 3 0 0 0 0 1 14 3 13 10 8 10 0 6 0 0 0 1 7 15 32 14 0 3 0 3 0 1 0 0 0 0 0 0 0 0 0 0
0 7 0 0 18 19 7 0 0 0 0 0 0 0 0 0 2 1 8 7 10 0 0 0 5 19 20 2 2 0 10 15 17 4 0 0 0 0 0 0 0 0 0 0 0
1 4 0 1 24 8 0 0 0 0 0 0 0 0 0 0 2 3 0 0 0 0 0 0 0 7 7 0 0 13 0 0 0 0 8 11 2 0 0 0 0 0 0 0 0
0 3 1 21 3 0 2 2 2 0 0 0 0 0 0 0 0 0 0 0 0 0 0 0 0 0 0 0 0 0 2 1 1 19 4 6 0 0 0 0 0 0 0 0 0
0 0 0 3 0 0 0 0 1 2 0 0 0 0 0 0 0 0 0 0 0 0 0 0 0 0 0 0 0 0 0 0 1 0 13 0 2 0 0 0 0 0 0 0 0
0 0 0 0 0 0 0 0 0 0 0 0 0 0 0 0 0 0 0 0 0 0 0 0 1 0 0 0 0 0 0 0 0 0 8 1 1 0 0 0 0 0 0 0 0
0 0 0 0 0 0 0 0 1 0 0 0 0 0 0 0 0 0 0 0 0 0 0 0 0 0 0 0 0 0 0 0 0 0 0 3 0 0 0 0 0 0 0 0 0

GFSSW_con_sbcape_063.txt.gz
CAPE
12 33 60 10 16 14 11 10 9 4 2 2 1 0 0 49 114 143 135 55 72 100 135 117 45 151 156 247 416 333 99 78 110 65 13 0 1 1 2 69 107 8 0 6 574
21 14 18 58 11 11 7 16 13 5 2 0 1 1 16 73 24 55 172 95 145 140 52 130 43 87 131 229 371 322 166 31 57 92 64 0 1 10 38 34 31 0 0 583 639
28 37 20 9 42 7 2 14 24 6 1 0 0 0 6 47 62 6 181 227 333 199 34 80 85 138 100 151 114 279 173 3 88 40 37 5 8 11 49 90 40 0 0 12 670
43 41 29 16 3 40 6 10 21 11 11 4 0 0 0 38 26 111 108 76 108 196 27 13 114 101 125 110 198 146 163 239 188 69 65 35 38 26 18 27 0 0 0 0 210
52 51 35 28 21 20 47 13 29 18 5 6 6 0 0 15 14 3 0 0 4 200 2 2 93 138 129 43 185 165 165 201 120 41 26 4 1 8 6 0 0 0 0 0 0
47 49 32 35 30 22 19 44 26 36 9 2 4 0 1 0 0 0 0 0 1 72 9 54 56 102 76 28 115 132 38 185 176 86 53 10 2 13 0 0 0 0 0 0 0
49 45 36 33 35 20 14 19 54 29 23 4 1 4 4 0 0 0 0 0 0 51 63 29 53 103 65 37 19 125 10 30 185 98 155 60 48 0 0 0 3 0 0 0 0
45 43 34 29 39 26 11 8 29 33 36 16 1 10 6 0 0 0 14 20 0 39 2 35 14 7 21 43 83 108 36 10 98 136 54 48 1 2 9 34 2 8 7 1 0
42 37 40 33 39 30 12 12 31 31 29 36 18 16 9 2 12 0 24 23 10 39 18 62 1 15 108 71 82 81 53 44 48 66 65 11 0 71 10 1 0 0 8 9 10
31 29 31 33 31 28 15 11 2 0 4 3 3 4 13 3 1 8 48 75 70 75 68 58 5 14 131 123 55 33 18 52 50 90 51 22 0 39 19 18 0 0 2 0 5
30 27 31 29 26 21 12 18 15 7 2 3 0 0 1 16 37 87 89 91 83 64 15 10 2 58 23 7 1 0 0 13 12 35 13 1 28 12 12 20 1 0 0 0 0
28 27 32 22 26 18 17 10 0 0 8 0 0 0 0 4 29 49 151 67 35 38 34 14 6 6 19 40 1 25 45 73 42 75 44 44 63 66 53 7 2 0 0 0 1
19 28 21 22 25 5 6 0 0 0 10 4 3 9 17 39 43 29 14 46 22 11 20 9 6 2 4 20 2 22 43 75 27 12 94 74 46 17 18 17 0 0 0 0 0
17 17 21 23 0 4 5 0 0 0 16 14 13 29 46 108 62 85 26 22 12 34 34 29 15 0 3 17 7 1 0 0 8 54 2 6 2 0 0 0 1 4 0 0 0
8 16 25 19 2 5 1 0 0 2 27 2 6 13 44 11 8 6 1 69 28 13 0 13 6 2 47 39 42 22 13 26 99 97 22 7 1 0 0 0 0 0 0 0 0
7 18 14 2 5 2 0 0 6 2 1 14 11 1 12 15 28 15 24 35 19 0 0 10 14 4 56 27 13 5 81 64 67 23 8 0 0 0 0 0 0 0 0 0 0
5 2 2 2 10 0 0 2 25 14 0 4 30 2 8 20 43 41 33 24 4 3 4 15 8 10 32 32 20 8 31 21 20 25 8 0 0 0 0 0 0 0 0 0 0
0 0 0 4 3 0 16 12 12 6 8 4 21 5 22 24 18 4 9 6 11 3 21 58 28 7 7 24 8 28 14 23 3 2 2 0 0 0 0 0 0 0 0 0 0
0 7 5 6 1 3 15 33 13 7 25 4 17 32 2 7 16 4 2 9 8 45 13 54 4 3 11 1 26 38 32 0 0 0 1 0 0 0 0 0 0 0 0 0 0
5 10 4 2 2 17 39 3 13 0 0 20 7 7 171 17 15 41 14 15 19 9 4 8 16 8 0 8 10 26 12 3 2 4 0 0 0 0 0 0 0 0 0 0 0
15 14 6 0 10 23 38 8 3 3 1 0 5 2 4 10 23 28 14 2 7 4 0 31 15 11 45 42 17 2 13 20 23 10 18 1 0 0 0 0 0 0 0 0 0
13 9 6 1 23 19 24 3 0 8 0 0 7 13 3 6 2 6 18 11 2 0 2 0 7 17 31 2 4 31 22 24 21 8 0 1 0 0 0 0 0 0 0 0 0
12 1 8 12 29 36 2 0 3 8 0 0 1 0 0 7 9 3 12 0 8 0 0 0 19 19 21 5 0 9 7 7 23 9 18 11 7 0 0 0 0 0 0 0 0
6 1 14 20 4 10 20 11 10 0 0 0 0 0 0 3 0 9 8 6 3 5 0 0 9 7 8 9 0 2 3 11 33 45 0 5 0 0 0 0 0 0 0 0 0
0 2 1 4 2 1 14 15 15 7 0 0 0 0 0 10 7 6 5 4 6 0 0 8 9 0 0 0 0 0 0 2 9 0 28 1 3 0 0 3 0 0 0 0 0
0 0 0 1 0 7 9 20 17 0 9 0 0 0 0 0 0 4 3 10 8 2 4 0 0 0 0 0 0 0 0 0 2 4 16 2 1 0 1 0 0 0 0 0 0
0 0 0 0 0 7 7 15 2 0 1 1 0 5 1 0 0 0 0 0 4 12 15 12 0 0 7 0 0 0 0 0 0 0 1 4 1 0 0 0 0 0 0 0 0

GFSSW_con_sbcape_066.txt.gz
CAPE
29 31 8 20 61 24 11 15 16 9 2 5 4 3 2 0 0 0 24 84 154 180 102 68 56 28 177 196 291 314 147 25 9 68 81 16 0 0 6 107 58 35 6 510 595
20 22 37 31 21 48 24 13 17 12 4 1 1 0 1 0 0 0 12 213 239 228 66 56 39 52 153 128 247 193 112 19 2 31 44 1 0 0 73 62 13 119 570 688 699
27 34 49 28 33 21 50 16 8 38 12 3 0 1 0 0 0 0 255 244 254 264 128 77 5 93 120 101 137 157 89 0 26 64 62 2 2 1 86 94 44 4 148 771 618
22 31 53 42 41 36 20 60 11 16 20 2 4 4 0 0 2 46 117 97 155 163 168 38 5 111 92 90 118 131 105 98 52 117 134 10 19 3 121 7 0 0 3 476 635
25 24 47 47 45 44 30 22 50 31 24 3 5 1 0 2 6 0 0 0 0 160 129 18 0 92 69 14 68 60 105 113 126 67 60 47 50 7 0 0 0 0 0 7 427
38 25 37 41 37 52 38 18 19 60 27 25 4 3 7 0 0 0 0 0 0 73 18 8 0 0 14 36 61 43 108 153 86 19 28 24 1 0 0 0 0 0 0 0 0
30 27 30 41 43 38 46 14 11 22 37 43 12 1 15 0 0 0 0 0 0 28 45 11 0 13 35 35 11 140 126 50 26 55 82 5 1 0 0 0 0 0 0 0 0
33 32 32 36 43 45 42 14 12 8 50 42 35 2 13 0 0 0 2 4 3 5 55 41 6 29 64 37 20 59 106 79 7 10 44 39 0 0 0 0 0 0 0 0 0
28 30 21 35 36 33 30 14 9 15 16 30 26 29 3 5 13 1 0 16 13 42 51 59 50 10 0 32 38 59 83 57 0 0 52 26 25 13 5 0 0 0 0 0 0
21 21 21 26 34 29 20 3 1 0 0 10 11 2 1 4 10 11 22 65 42 71 40 16 9 1 5 52 4 5 39 14 0 0 24 26 43 9 4 2 0 0 0 0 0
15 21 29 28 28 29 9 2 1 0 6 0 2 3 0 0 22 81 96 78 87 56 10 8 6 1 0 0 0 0 0 2 0 4 20 24 10 5 0 0 0 0 0 0 0
12 16 21 21 24 24 10 5 0 0 0 0 0 0 0 0 13 56 158 41 47 14 12 13 3 0 3 1 14 0 0 2 11 53 46 15 7 1 0 0 0 0 0 0 0
7 15 10 19 22 2 1 4 0 0 10 5 1 0 14 3 35 106 52 48 22 4 4 17 4 1 11 34 9 4 0 22 13 48 54 27 5 0 0 0 0 0 0 0 0
4 10 16 25 0 2 1 2 0 0 11 14 11 14 14 36 24 7 2 9 4 5 18 8 3 6 1 0 0 23 46 72 38 28 0 30 0 0 0 0 0 0 0 0 0
3 7 15 31 0 2 1 0 0 2 10 8 1 0 19 11 0 8 1 32 8 5 14 15 11 0 23 4 3 0 0 7 1 24 32 24 0 0 0 0 0 2 0 0 0
0 11 15 0 0 2 2 0 1 5 0 6 0 0 12 22 36 6 52 31 23 11 15 32 1 0 1 18 24 37 12 15 16 27 6 0 0 0 0 0 0 0 0 0 0
0 0 0 2 8 0 0 0 12 4 0 4 1 0 6 22 34 15 15 23 19 13 1 10 3 0 1 10 21 41 11 0 0 0 0 0 0 0 0 0 0 0 0 0 0
0 0 0 4 1 1 9 8 1 2 11 11 4 5 24 43 2 3 8 0 1 0 6 19 0 0 26 18 0 23 6 2 0 0 0 0 0 0 0 0 0 0 0 0 0
0 1 6 1 0 14 9 12 2 8 9 2 13 3 0 0 8 0 8 0 0 8 17 5 4 7 18 0 16 6 15 0 0 0 0 0 0 0 0 0 0 0 0 0 0
0 6 6 6 0 25 17 3 8 0 0 14 10 12 26 1 9 6 0 1 0 0 5 1 0 1 0 0 0 13 0 0 0 0 0 0 0 0 0 0 0 0 0 0 0
1 15 3 0 1 24 15 13 5 6 0 1 0 0 4 1 5 6 3 1 0 0 0 0 0 0 6 8 2 0 0 6 4 0 9 0 0 0 0 0 0 0 0 0 0
11 12 5 10 6 10 18 0 2 6 0 0 7 0 5 17 2 27 8 4 5 0 1 0 0 15 16 0 0 3 1 0 2 0 0 0 0 0 0 0 0 0 0 0 0
6 3 2 7 3 11 1 3 5 7 0 0 1 0 0 5 0 17 4 3 1 1 0 0 2 2 2 0 0 7 6 1 0 0 4 0 0 0 0 0 0 0 0 0 0
0 1 20 9 0 0 5 5 4 0 0 0 0 0 0 4 2 9 1 4 0 0 0 0 2 2 0 0 0 0 1 5 13 1 0 0 0 0 0 0 0 0 0 0 0
0 0 0 4 0 0 7 12 4 0 0 0 0 0 0 6 5 0 3 8 1 0 0 0 0 0 0 0 0 0 0 1 2 0 1 0 0 0 0 0 0 0 0 0 0
0 0 0 0 0 0 0 1 4 0 1 0 0 0 0 0 0 2 0 0 0 0 6 0 0 0 0 0 0 0 0 0 0 2 4 1 0 0 0 0 0 0 0 0 0
0 0 0 0 0 0 0 6 11 2 0 0 1 1 0 0 0 0 0 0 1 0 1 0 0 0 0 0 0 0 0 0 0 0 0 0 0 0 0 0 0 0 0 0 0

GFSSW_con_sbcape_069.txt.gz
CAPE
18 22 30 21 11 7 29 23 8 27 17 7 3 3 2 2 0 0 0 0 0 140 135 38 14 62 28 175 201 268 90 29 0 1 4 24 0 0 3 60 42 70 160 460 509
15 34 41 44 18 12 13 35 20 4 38 16 6 3 1 0 0 0 0 6 138 251 116 70 32 26 28 100 252 254 93 12 0 10 43 5 0 0 62 21 343 652 894 920 814
19 21 35 48 38 25 18 12 52 7 3 19 8 7 1 0 0 0 46 107 106 199 54 105 74 19 54 83 147 268 54 6 25 59 131 0 2 11 42 19 5 651 759 892 826
23 28 36 52 46 38 42 23 9 38 26 20 2 2 0 0 0 3 59 24 102 180 128 116 66 44 57 114 127 184 16 6 75 73 125 6 0 12 17 0 0 343 829 796 928
23 38 32 41 44 36 46 38 10 11 49 37 10 0 0 0 0 8 0 0 0 170 110 128 50 26 54 74 48 58 42 39 66 195 67 40 10 14 0 0 0 2 726 663 734
21 29 29 39 39 42 34 39 19 1 18 42 34 0 0 1 0 3 0 0 0 72 30 58 2 13 35 67 76 3 6 72 114 114 58 52 1 12 0 0 0 0 15 392 587
20 34 30 38 44 41 41 38 22 10 11 51 35 17 2 0 0 0 0 0 0 16 39 42 5 15 1 22 0 3 49 76 134 57 16 0 0 0 0 0 0 0 0 0 31
17 33 27 25 30 36 39 28 18 7 3 45 39 13 1 0 0 0 0 0 25 20 64 49 11 8 14 0 3 0 56 119 24 117 8 0 0 1 0 0 0 0 0 0 0
14 27 19 19 22 30 27 17 5 3 13 24 7 11 0 3 5 0 3 4 29 62 47 47 38 32 37 6 14 17 20 32 1 23 1 25 0 0 0 0 0 0 0 0 0
9 15 17 21 25 27 13 0 0 1 0 0 1 13 0 4 9 9 18 49 47 44 14 10 4 12 14 24 24 6 14 38 5 0 9 0 4 0 0 0 0 0 0 0 0
8 12 10 15 16 6 2 0 0 0 0 0 0 0 0 0 10 55 85 87 38 37 8 7 9 17 3 0 0 0 0 13 0 0 0 3 0 0 0 0 0 0 0 0 0
8 9 6 2 6 22 1 0 0 0 0 0 0 0 1 2 4 72 108 57 15 21 23 10 10 4 1 5 0 19 23 23 2 2 0 0 0 0 0 0 0 0 0 0 0
3 4 2 4 17 3 0 0 0 0 0 0 0 3 12 1 20 43 58 34 5 11 11 13 3 11 3 4 4 6 7 15 3 0 2 0 2 0 0 0 0 0 0 0 0
0 0 0 6 0 0 0 0 0 0 0 0 13 7 11 1 16 1 25 11 9 10 4 10 7 19 1 3 4 0 1 50 24 18 6 5 0 0 0 0 0 0 0 0 0
0 0 1 7 0 1 1 0 0 0 0 7 0 0 27 10 1 3 14 1 1 6 16 11 5 23 3 13 0 0 1 34 46 4 3 8 0 0 1 0 0 0 0 0 0
0 0 5 0 0 0 0 0 0 0 0 6 0 0 5 21 1 0 23 4 5 14 0 6 7 1 5 0 0 2 15 14 13 12 5 12 0 0 0 0 0 0 0 0 0
0 0 0 0 3 0 0 0 0 0 0 13 0 0 9 23 22 8 16 5 0 0 2 5 1 0 0 0 0 0 0 0 0 1 0 0 0 0 0 0 0 0 0 0 0
0 0 0 2 0 0 0 0 0 0 13 10 1 4 19 14 9 1 4 0 0 0 1 0 0 0 0 0 0 0 0 0 0 0 0 0 0 0 0 0 0 0 0 0 0
0 0 0 0 0 0 0 0 0 4 9 8 12 1 0 0 8 1 0 0 0 0 1 4 2 0 0 0 0 14 0 0 0 0 0 0 0 0 0 0 0 0 0 0 0
0 0 1 0 0 3 1 0 0 2 0 19 13 11 7 1 0 0 2 0 0 0 0 0 0 1 0 0 0 0 0 0 0 0 0 0 0 0 0 0 0 0 0 0 0
0 2 0 0 0 11 1 0 1 7 0 3 0 1 0 1 0 0 0 0 0 0 0 0 0 0 0 0 0 0 0 0 0 0 0 0 0 0 0 0 0 0 0 0 0
0 2 1 0 0 2 12 1 1 5 0 1 12 2 0 0 2 0 0 0 0 0 0 0 0 0 0 0 0 0 0 0 0 0 0 0 0 0 0 0 0 0 0 0 0
0 1 8 2 0 2 9 0 1 5 0 0 6 0 16 4 11 10 0 5 0 0 0 0 0 0 0 0 0 0 0 0 0 0 0 0 0 0 0 0 0 0 0 0 0
0 1 15 10 0 0 0 0 0 0 0 0 0 0 0 0 4 0 2 5 0 0 0 0 0 0 0 0 0 0 0 0 0 0 0 0 0 0 0 0 0 0 0 0 0
0 0 0 3 0 0 0 0 4 0 0 0 0 0 0 2 3 3 0 7 1 0 0 0 0 0 0 0 0 0 0 0 0 0 0 0 0 0 0 0 0 0 0 0 0
0 0 0 0 0 0 0 0 9 0 0 0 0 0 0 0 0 0 0 2 0 0 0 0 0 0 0 0 0 0 0 0 0 0 0 0 0 0 0 0 0 0 0 0 0
0 0 0 0 0 0 0 0 16 0 0 0 0 0 0 0 0 0 0 0 0 0 0 0 0 0 0 0 0 0 0 0 0 0 0 0 0 0 0 0 0 0 0 0 0

GFSSW_con_sbcape_072.txt.gz
CAPE
6 15 28 40 31 16 1 10 42 6 1 11 8 5 8 4 0 0 0 0 0 26 50 1 1 33 111 62 216 297 165 8 6 0 0 4 0 2 12 147 462 414 335 289 248
5 14 14 29 31 34 14 6 22 43 1 21 15 9 8 6 0 0 0 0 15 55 0 0 5 55 62 68 154 295 177 5 0 5 21 29 0 33 136 356 565 756 826 377 269
5 16 30 39 30 44 42 25 12 12 31 12 11 1 1 0 0 0 0 0 4 9 0 4 54 32 50 40 142 274 179 29 16 9 68 94 2 3 129 163 484 619 880 712 626
8 7 38 31 28 33 35 41 38 12 11 47 26 0 0 0 0 0 13 0 0 70 40 25 66 66 54 23 36 103 65 45 141 124 222 98 0 45 18 15 171 681 977 909 767
8 11 29 27 25 27 27 28 40 21 1 34 35 7 0 0 0 0 0 0 0 31 28 10 26 24 23 23 35 18 5 89 116 244 213 201 58 16 0 0 361 844 860 695 972
8 12 26 27 24 31 33 36 30 27 1 23 42 9 0 0 0 4 0 0 0 41 65 33 44 16 35 19 18 0 0 41 134 152 155 113 28 0 0 0 175 766 732 663 836
4 11 17 18 16 18 32 38 39 15 5 12 48 13 3 0 0 0 0 0 0 11 56 0 1 37 27 32 16 29 79 78 65 111 124 40 44 0 0 0 0 171 364 562 559
15 11 11 11 12 13 23 36 26 11 7 1 35 3 0 0 0 0 0 0 17 15 49 1 4 31 9 0 18 41 40 95 43 113 61 49 19 0 0 0 0 0 0 81 407
11 13 8 9 10 14 21 14 5 9 6 28 0 0 0 0 0 0 0 14 28 45 48 49 51 23 48 10 49 44 33 33 44 157 83 24 6 0 0 0 0 0 0 0 0
1 5 3 10 13 12 1 1 0 1 1 0 2 13 0 0 0 4 15 37 72 36 31 24 5 12 15 5 5 28 25 29 11 20 1 17 0 0 0 0 0 0 0 0 0
2 5 0 9 12 2 1 0 0 0 0 0 0 0 0 0 3 5 72 91 75 25 10 12 9 1 4 3 0 0 2 12 4 2 0 7 0 0 0 0 0 0 0 0 0
9 2 1 1 3 4 0 0 0 0 0 0 0 0 0 0 2 40 120 11 37 7 7 2 11 0 3 1 0 0 6 46 16 34 8 14 0 0 0 0 0 0 0 0 0
5 0 0 0 6 3 0 0 0 0 0 0 0 0 0 1 9 24 52 36 4 3 12 15 10 1 3 3 14 10 7 12 19 37 43 0 3 0 0 0 0 0 0 0 0
6 3 1 0 0 0 0 0 0 0 0 0 2 0 0 12 8 0 7 7 22 10 8 13 18 18 10 2 3 1 5 0 2 14 21 3 0 0 0 0 0 0 0 0 0
7 2 0 1 0 0 0 0 0 0 0 0 0 0 21 13 0 11 15 18 10 5 7 10 16 18 9 6 1 0 3 3 2 3 4 2 0 0 0 0 0 0 0 0 0
4 2 4 4 0 0 0 0 0 0 0 0 0 0 9 12 1 2 10 9 0 12 6 7 1 19 0 0 0 0 25 14 6 0 0 0 0 0 0 0 0 0 0 0 0
0 2 0 0 0 0 0 0 0 0 0 0 0 0 4 13 7 0 2 6 2 1 0 4 2 9 4 4 0 0 1 1 0 0 0 0 0 0 0 0 0 0 0 0 0
0 0 0 0 0 0 0 0 0 0 0 0 0 10 3 0 0 0 0 0 0 0 6 1 0 7 0 0 0 0 0 0 0 0 0 0 0 0 0 0 0 0 0 0 0
3 0 0 0 0 0 0 0 0 0 1 1 2 1 0 0 0 0 0 0 0 0 0 0 1 0 0 0 0 0 0 0 0 0 0 0 0 0 0 0 0 0 0 0 0
0 0 0 0 0 0 0 0 0 1 1 1 14 14 0 0 0 0 0 0 0 0 0 0 0 0 0 0 0 0 0 0 0 0 0 0 0 0 0 0 0 0 0 0 0
0 0 1 0 0 12 0 0 0 7 2 2 0 1 0 0 0 0 0 0 0 0 0 0 0 0 0 0 0 0 0 0 0 0 0 0 0 0 0 0 0 0 0 0 0
0 1 1 0 2 17 1 8 2 10 0 1 4 0 0 0 0 0 0 0 0 0 0 0 0 0 0 0 0 0 0 0 0 0 0 0 0 0 0 0 0 0 0 0 0
0 5 7 0 7 4 7 0 9 3 0 2 19 1 1 0 0 0 0 0 0 0 0 0 0 0 0 0 0 0 0 0 0 0 0 0 0 0 0 0 0 0 0 0 0
0 2 28 25 0 0 10 2 9 0 0 0 0 0 0 8 0 0 0 0 0 0 0 0 0 0 0 0 0 0 0 0 0 0 0 0 0 0 0 0 0 0 0 0 0
0 0 0 0 3 0 0 0 1 0 0 0 0 0 0 7 4 0 0 8 0 0 0 0 0 0 0 0 0 0 0 0 0 0 0 0 0 0 0 0 0 0 0 0 0
0 0 0 0 0 0 0 0 0 0 0 0 0 0 0 0 0 0 2 4 0 0 0 0 0 0 0 0 0 0 0 0 0 0 0 0 0 0 0 0 0 0 0 0 0
0 0 0 0 0 0 0 0 4 0 0 0 0 0 0 0 0 0 0 0 0 0 0 0 0 0 0 0 0 0 0 0 0 0 0 0 0 0 0 0 0 0 0 0 0

GFSSW_con_sbcape_075.txt.gz
CAPE
14 9 12 7 14 32 22 10 1 32 28 11 32 18 6 6 1 0 0 0 0 0 6 2 0 0 12 34 114 271 283 147 61 0 0 0 0 0 15 215 525 282 428 185 104
8 13 19 15 20 28 41 40 7 8 23 34 11 21 7 3 0 0 0 0 13 11 0 0 0 0 2 32 57 52 130 17 1 0 0 21 0 17 268 576 684 733 766 389 167
7 10 13 25 16 13 22 38 55 13 12 24 44 21 6 0 0 0 8 25 10 7 0 0 0 1 0 11 12 32 25 5 44 26 66 192 86 4 141 329 533 586 412 424 430
13 15 18 46 18 16 16 29 34 38 25 4 54 38 7 0 0 0 28 0 0 1 0 0 3 5 9 0 0 49 0 68 81 46 300 152 106 52 59 73 287 821 539 371 561
14 17 15 24 25 20 17 37 33 38 32 1 42 35 0 0 0 0 38 1 2 10 0 0 0 11 1 34 12 53 1 49 145 312 425 351 167 17 1 1 763 1135 654 438 688
16 17 12 12 19 4 10 29 39 42 20 4 39 13 0 0 0 0 8 0 0 21 6 0 3 5 22 0 25 21 1 0 173 130 297 179 99 5 5 0 902 1069 785 644 681
18 13 15 6 17 15 5 20 20 26 18 1 16 8 3 0 0 0 0 0 0 0 12 0 3 2 11 15 0 1 29 1 28 78 129 139 94 33 0 0 503 771 622 636 829
29 16 12 11 5 0 17 12 16 19 10 3 33 3 0 0 0 0 0 0 0 3 30 3 12 9 18 12 22 39 46 14 4 58 92 92 16 37 0 0 0 237 290 412 603
10 11 7 7 3 0 20 3 1 4 7 4 7 0 0 0 0 0 0 0 9 35 44 25 14 39 17 6 3 23 58 0 122 125 137 65 0 52 0 0 0 0 0 0 43
9 9 5 11 2 4 2 0 0 0 2 5 12 5 0 0 0 0 0 15 34 41 46 41 16 7 13 9 11 12 16 10 54 54 56 43 2 0 0 0 0 0 0 0 0
9 4 6 11 1 6 0 0 0 0 0 0 0 0 0 0 0 0 11 3 0 29 22 28 36 7 0 2 1 0 7 0 5 56 42 33 0 0 0 0 0 0 0 0 0
9 4 2 10 0 2 0 0 0 0 0 0 0 0 0 0 0 0 5 0 16 0 17 10 13 0 3 11 10 2 12 34 0 4 33 1 3 5 5 0 0 0 0 0 0
9 9 16 2 0 3 0 0 0 0 0 0 0 0 0 0 10 0 2 0 0 2 2 13 0 0 5 9 9 1 3 12 3 0 11 13 7 8 2 2 0 0 0 0 0
11 12 11 2 0 0 0 0 0 0 0 0 0 0 0 16 4 0 0 2 27 3 3 29 0 4 10 0 0 1 2 50 38 17 46 0 1 0 0 0 0 0 0 0 0
12 12 9 0 0 0 0 0 0 0 0 0 0 0 0 4 1 13 13 6 4 15 13 14 27 47 1 0 11 0 4 0 0 1 9 19 2 0 0 0 0 0 0 0 0
10 23 14 15 0 0 0 0 0 0 0 0 0 0 0 1 0 4 4 15 7 7 8 13 1 13 9 1 0 0 23 0 5 4 0 6 0 0 0 0 0 0 0 0 0
20 30 21 0 0 0 0 0 0 0 0 0 0 0 0 0 0 0 20 7 22 3 1 24 47 61 0 22 1 0 0 0 2 1 5 0 0 0 0 0 0 0 0 0 0
24 33 16 0 0 0 0 0 0 0 0 0 0 0 0 0 0 0 0 6 2 7 4 1 3 7 11 0 0 0 0 0 0 0 0 0 0 0 0 0 0 0 0 0 0
39 11 0 0 0 0 0 0 0 0 0 0 0 0 0 0 0 0 0 0 0 0 0 0 2 0 0 0 0 0 0 0 0 0 0 0 0 0 0 0 0 0 0 0 0
6 9 6 0 0 0 0 0 0 0 0 0 0 0 0 0 0 0 0 0 0 0 0 0 1 0 0 0 0 0 0 0 0 0 0 0 0 0 0 0 0 0 0 0 0
11 23 2 0 0 8 1 0 0 1 0 0 0 0 0 0 0 0 0 0 0 0 0 0 0 0 0 0 0 0 0 0 0 0 0 0 0 0 0 0 0 0 0 0 0
21 6 1 0 12 0 0 0 0 1 0 0 0 0 0 0 0 0 0 0 0 0 0 0 0 0 0 0 0 0 0 0 0 0 0 0 0 0 0 0 0 0 0 0 0
26 24 13 0 0 0 0 0 1 3 1 2 0 0 0 0 0 0 0 0 0 0 0 0 0 0 0 0 0 0 0 0 0 0 0 0 0 0 0 0 0 0 0 0 0
13 1 31 46 0 0 0 2 18 1 0 0 0 0 0 0 0 0 0 0 0 0 0 0 0 0 0 0 0 0 0 0 0 0 0 0 0 0 0 0 0 0 0 0 0
5 2 0 3 5 0 0 6 7 2 0 0 0 0 0 1 0 0 0 0 0 0 0 0 0 0 0 0 0 0 0 0 0 0 0 0 0 0 0 0 0 0 0 0 0
6 0 0 0 0 0 0 4 0 0 0 0 0 0 0 0 0 0 0 0 0 0 0 0 0 0 0 0 0 0 0 0 0 0 0 0 0 0 0 0 0 0 0 0 0
0 0 0 0 0 0 0 0 0 0 0 0 0 0 0 0 0 0 0 0 0 0 0 0 0 0 0 0 0 0 0 0 0 0 0 0 0 0 0 0 0 0 0 0 0

GFSSW_con_sbcape_078.txt.gz
CAPE
5 11 8 9 7 2 30 48 33 2 1 31 5 19 25 5 3 0 0 0 0 0 19 6 0 0 0 34 38 99 130 5 26 57 7 0 0 0 82 228 413 448 303 103 54
9 12 8 12 12 22 16 32 57 23 1 1 26 21 24 0 0 0 0 0 0 5 0 0 0 0 0 19 31 39 18 0 0 0 9 25 10 1 374 689 690 742 568 121 210
23 12 13 10 7 26 13 22 38 52 25 3 0 55 24 0 0 0 0 0 2 0 0 0 0 0 0 4 29 25 1 0 0 4 52 92 191 54 269 350 538 530 503 182 174
145 14 20 11 6 17 11 17 36 28 31 27 0 42 7 0 0 0 27 21 0 0 0 0 0 0 1 1 0 25 0 0 0 18 94 60 181 185 162 120 0 505 648 277 360
84 157 23 17 22 6 16 12 26 28 37 15 2 44 0 0 0 0 43 10 4 9 0 0 0 0 3 1 2 16 0 1 0 0 68 62 179 305 21 5 59 872 808 266 421
56 127 19 15 21 20 11 15 12 21 45 8 0 23 0 0 0 0 0 0 0 2 0 0 0 1 5 0 18 2 0 0 4 13 53 237 162 156 35 0 9 836 862 369 751
29 37 37 15 11 19 12 3 15 15 34 11 0 26 0 0 0 0 0 0 0 0 6 3 10 16 20 12 0 0 4 24 11 0 106 169 191 182 0 0 0 648 563 564 757
29 41 7 10 4 14 7 0 13 1 28 12 0 6 0 0 0 0 0 0 0 0 29 11 27 22 21 26 20 42 10 36 10 1 131 101 0 70 5 0 0 0 92 472 706
1 25 5 10 12 7 4 7 3 1 28 9 1 0 0 0 0 0 0 0 0 23 41 49 30 28 47 28 64 1 21 2 39 2 99 54 51 127 0 0 0 0 0 0 39
12 5 38 7 7 4 6 0 5 0 13 4 4 3 0 0 0 0 0 0 13 10 38 56 26 10 26 25 0 0 2 107 2 49 86 137 23 169 0 0 0 0 0 0 0
34 22 25 9 5 20 0 0 0 0 0 0 0 0 0 0 0 0 0 0 0 9 2 24 44 13 0 12 4 3 0 1 69 135 99 76 1 2 7 0 0 0 0 0 0
45 30 19 10 15 10 0 0 0 0 0 0 0 0 0 0 0 2 0 0 2 0 0 6 7 0 2 11 10 1 16 53 27 92 87 1 20 56 15 0 0 0 0 0 0
21 39 16 18 22 13 0 0 0 0 0 0 0 0 0 0 1 0 0 0 0 0 0 6 0 0 2 1 11 5 4 16 7 2 0 0 0 9 0 0 0 0 0 0 0
29 22 45 24 4 0 0 0 0 0 0 0 0 0 0 2 11 0 1 9 20 3 0 5 0 4 9 4 18 52 26 55 1 0 3 0 1 7 0 0 0 0 0 0 0
24 4 64 4 0 0 0 0 0 0 0 0 0 0 0 6 0 3 5 6 2 18 8 6 1 2 6 2 0 5 39 9 0 0 1 3 3 0 0 0 0 0 0 0 0
68 29 30 19 0 0 0 0 0 0 0 0 0 0 0 1 0 0 5 1 8 7 6 6 5 35 0 1 24 1 2 3 0 0 1 6 1 0 0 0 0 0 0 0 0
71 60 30 12 0 0 0 0 0 0 0 0 0 0 0 0 0 0 15 11 7 4 2 8 23 32 2 4 14 56 1 0 0 0 0 0 2 0 0 0 0 0 0 0 0
56 67 23 5 3 0 0 0 0 0 0 0 0 0 0 0 0 0 1 7 5 4 28 0 1 2 0 0 7 9 0 0 0 0 0 0 0 0 0 0 0 0 0 0 0
63 23 29 16 0 0 0 0 0 0 0 0 0 0 0 0 0 0 0 3 1 2 0 0 2 11 3 0 0 0 0 0 0 0 0 0 0 0 0 0 0 0 0 0 0
1 13 18 11 0 1 0 0 0 0 0 0 0 0 0 0 0 0 0 0 0 0 0 0 3 0 0 0 0 0 0 0 0 0 0 0 0 0 0 0 0 0 0 0 0
3 13 40 3 9 20 2 0 0 0 0 0 0 0 0 0 0 0 0 0 0 0 0 0 0 0 0 0 0 0 0 0 0 0 0 0 0 0 0 0 0 0 0 0 0
40 4 9 14 22 10 0 0 0 0 0 0 0 0 0 0 0 0 0 0 0 0 0 0 0 0 0 0 0 0 0 0 0 0 0 0 0 0 0 0 0 0 0 0 0
13 20 14 13 18 12 0 0 0 0 0 0 0 0 0 0 0 0 0 0 0 0 0 0 0 0 0 0 0 0 0 0 0 0 0 0 0 0 0 0 0 0 0 0 0
7 1 23 45 0 0 0 0 18 0 0 0 0 0 0 0 0 0 0 0 0 0 0 0 0 0 0 0 0 0 0 0 0 0 0 0 0 0 0 0 0 0 0 0 0
6 6 3 3 12 0 0 2 3 0 0 0 0 0 0 0 0 0 0 0 0 0 0 0 0 0 0 0 0 0 0 0 0 0 0 0 0 0 0 0 0 0 0 0 0
5 0 0 0 0 0 0 21 3 0 0 0 0 0 0 0 0 0 0 0 0 0 0 0 0 0 0 0 0 0 0 0 0 0 0 0 0 0 0 0 0 0 0 0 0
0 0 0 0 0 0 0 12 2 0 0 0 0 0 0 0 0 0 0 0 0 0 0 0 0 0 0 0 0 0 0 0 0 0 0 0 0 0 0 0 0 0 0 0 0

GFSSW_con_sbcape_081.txt.gz
CAPE
85 28 10 10 6 11 12 7 11 32 10 0 11 53 15 11 0 0 0 0 0 0 13 0 0 0 0 6 45 81 54 4 0 0 0 0 28 6 5 1 466 533 171 196 325
87 86 35 15 8 22 21 8 1 5 32 20 0 18 57 1 0 0 0 0 0 1 0 0 0 0 0 0 29 57 15 0 0 0 7 16 30 29 42 24 212 790 531 410 661
42 80 71 21 14 19 25 4 5 1 1 31 13 8 56 0 0 0 0 0 9 1 0 0 0 0 0 0 16 19 6 0 0 0 4 138 223 119 233 36 2 346 564 600 550
25 38 49 94 16 16 26 13 11 9 7 19 26 3 16 0 0 0 22 34 34 0 0 0 0 0 1 0 0 24 0 0 0 0 0 27 100 213 273 137 0 14 545 527 359
34 35 34 18 27 7 13 17 1 8 19 14 11 10 0 0 0 0 4 4 0 0 0 0 0 0 1 0 1 18 0 0 0 2 0 0 0 46 152 139 41 21 723 570 117
37 7 15 4 50 7 1 3 1 4 5 12 0 11 0 0 0 0 0 0 0 0 0 0 0 0 2 7 9 0 0 0 0 0 0 6 0 125 84 21 63 68 228 595 104
41 19 9 8 7 13 10 7 2 19 5 13 0 17 2 0 0 0 0 0 0 0 2 4 13 30 20 9 8 2 6 0 2 0 0 18 83 33 121 57 53 71 87 475 352
19 30 37 20 15 7 13 0 0 11 0 12 0 11 12 0 0 0 0 0 0 0 6 14 20 35 29 9 3 20 8 5 0 1 0 45 2 23 113 61 0 4 0 317 515
37 22 23 13 29 8 0 0 0 19 10 9 2 5 0 0 0 0 0 0 1 4 33 51 48 32 37 15 8 22 9 4 0 111 4 74 21 53 192 28 0 0 0 0 249
32 27 20 18 14 13 4 0 1 8 15 14 7 0 0 0 0 0 0 0 1 2 17 35 47 80 23 37 2 1 10 2 0 117 88 93 136 352 88 0 0 0 0 0 0
34 29 26 47 7 13 0 1 0 0 2 0 0 0 0 0 0 0 0 0 7 8 0 9 84 6 3 0 4 15 13 10 31 0 57 13 86 22 0 46 0 0 0 0 0
22 24 16 74 25 20 0 0 0 0 0 0 0 0 0 0 0 2 0 0 0 4 0 15 7 0 0 7 35 12 3 6 60 8 75 95 52 0 14 40 34 0 0 0 0
31 25 17 8 20 7 0 0 0 0 0 0 0 0 0 0 0 0 0 1 1 5 0 0 0 0 13 26 24 19 2 0 31 46 17 59 12 0 0 0 8 0 0 0 0
65 41 14 17 9 1 7 0 0 0 0 0 0 0 0 4 3 0 0 1 13 5 0 0 1 1 2 28 7 22 0 6 64 21 136 1 38 6 0 0 0 0 0 0 0
68 59 33 56 0 3 0 0 0 0 0 0 0 0 0 0 0 0 4 0 5 7 15 0 20 2 11 5 2 7 34 39 0 6 26 2 0 0 0 0 0 0 0 0 0
96 65 68 12 0 0 0 0 0 0 0 0 0 0 1 0 1 4 9 3 15 7 5 10 2 4 0 2 18 0 12 0 0 0 0 2 0 0 0 0 0 0 0 0 0
215 74 60 59 8 0 0 0 0 0 0 4 0 0 0 0 0 4 14 9 10 4 5 10 2 19 11 13 23 20 0 0 0 0 3 6 3 0 0 0 0 0 0 0 0
22 15 18 20 2 0 3 0 0 0 0 0 0 0 0 0 0 0 1 5 4 1 16 0 0 0 0 6 5 0 0 0 1 0 0 0 0 0 0 0 0 0 0 0 0
71 22 24 9 3 4 2 0 0 0 0 0 0 0 0 0 0 0 0 13 10 7 1 1 3 5 0 0 0 0 0 0 0 0 0 0 0 0 0 0 0 0 0 0 0
15 35 9 7 8 15 9 0 0 0 0 0 0 0 0 0 0 0 0 4 2 0 0 1 5 0 0 0 0 0 0 0 0 0 0 0 0 0 0 0 0 0 0 0 0
10 5 39 18 16 13 7 0 0 0 0 0 0 0 0 0 0 0 0 0 0 0 0 0 0 2 0 0 0 0 0 0 0 0 0 0 0 0 0 0 0 0 0 0 0
15 5 44 25 4 6 1 0 0 0 0 0 0 0 0 0 0 0 0 0 0 0 0 0 0 0 0 0 0 0 0 0 0 0 0 0 0 0 0 0 0 0 0 0 0
7 23 36 27 15 21 0 0 0 0 0 0 0 0 0 0 0 0 0 0 0 0 0 0 0 0 0 0 0 0 0 0 0 0 0 0 0 0 0 0 0 0 0 0 0
5 0 26 23 2 0 0 0 12 0 0 0 0 0 0 0 0 0 0 0 0 0 0 0 0 0 0 0 0 0 0 0 0 0 0 0 0 0 0 0 0 0 0 0 0
1 4 4 5 5 0 0 0 8 0 0 0 0 0 0 0 0 0 0 0 0 0 0 0 0 0 0 0 0 0 0 0 0 0 0 0 0 0 0 0 0 0 0 0 0
4 0 0 0 0 0 0 1 6 0 0 0 0 0 0 0 0 0 0 0 0 0 0 0 0 0 0 0 0 0 0 0 0 0 0 0 0 0 0 0 0 0 0 0 0
0 0 0 0 0 0 0 7 6 0 0 0 0 0 0 0 0 0 0 0 0 0 0 0 0 0 0 0 0 0 0 0 0 0 0 0 0 0 0 0 0 0 0 0 0

GFSSW_con_sbcape_084.txt.gz
CAPE
31 70 95 75 31 18 10 18 13 9 6 11 3 0 12 16 2 0 0 0 0 0 10 3 0 0 0 23 28 27 45 7 0 0 0 0 0 0 21 58 102 85 114 135 555
55 29 70 84 82 52 12 14 4 1 4 24 15 0 15 7 1 0 0 0 0 0 0 0 0 0 0 4 31 43 19 2 0 0 0 0 3 0 50 41 90 134 303 628 1113
49 44 61 53 69 115 11 21 0 0 0 14 4 2 6 0 0 0 0 1 4 0 0 0 0 0 0 1 13 14 24 2 1 1 4 6 6 21 95 92 90 166 157 465 814
28 25 10 23 27 38 25 15 2 0 0 8 6 0 0 0 0 0 47 57 30 0 0 0 0 0 0 1 0 3 0 0 0 15 8 3 42 67 95 40 141 148 169 502 681
30 28 23 0 20 1 42 16 12 0 0 4 0 3 0 0 0 0 0 18 3 0 0 0 0 0 0 1 3 1 0 0 0 4 3 1 1 4 32 68 229 135 175 124 281
60 54 36 49 23 56 23 10 3 0 0 7 0 5 0 0 0 0 0 0 0 0 0 0 0 0 0 1 1 0 2 3 4 1 1 1 0 16 0 50 156 236 249 58 4
42 54 32 36 16 70 16 8 1 0 1 11 4 3 8 0 0 0 0 0 0 0 0 1 2 4 9 3 2 7 1 0 0 0 9 0 0 0 0 50 251 252 186 202 6
60 32 30 13 17 23 8 10 0 1 8 5 6 12 2 0 0 0 0 0 0 0 0 5 29 28 38 21 10 12 1 12 0 0 0 6 0 0 0 11 122 137 117 229 192
64 35 34 28 15 29 11 3 8 7 12 9 10 6 0 0 0 0 0 0 11 2 7 14 36 44 37 35 29 14 4 2 1 1 1 54 0 0 0 33 133 142 130 160 264
38 39 21 23 15 19 6 3 18 14 13 15 10 0 0 0 0 0 0 0 1 16 28 30 46 37 36 26 10 17 10 9 8 39 59 98 0 0 233 289 315 250 147 76 159
35 33 11 24 83 10 3 9 5 4 21 0 0 0 0 0 0 0 0 1 19 15 14 3 11 10 6 8 15 30 23 32 73 98 93 112 4 0 187 298 227 194 105 0 0
29 29 9 23 23 4 0 0 0 0 0 0 0 0 0 0 0 0 0 4 5 7 1 30 15 0 10 12 17 51 26 7 36 96 87 133 55 50 206 76 22 79 110 9 0
44 35 17 8 41 5 0 0 0 0 0 0 1 0 0 0 0 8 3 9 7 10 2 8 0 0 6 12 30 17 10 3 56 70 180 123 83 98 126 16 0 0 8 30 0
78 86 35 18 12 2 3 0 0 0 1 0 1 0 0 0 6 1 1 1 20 5 5 8 1 0 2 15 25 42 2 14 24 64 84 103 103 98 100 13 0 0 0 0 15
203 153 70 29 19 12 0 0 0 0 5 1 4 0 0 9 8 4 0 12 11 8 17 2 5 43 21 3 9 39 1 18 1 149 109 59 69 96 29 1 0 0 0 0 41
264 219 75 13 24 4 0 0 0 6 0 20 12 8 10 13 12 20 11 6 4 8 11 11 2 5 21 3 23 51 74 40 22 58 71 22 38 22 0 0 0 3 18 32 0
97 135 50 44 14 5 0 8 20 13 0 16 9 6 6 23 16 20 17 15 17 10 9 3 3 19 25 21 45 17 100 145 116 97 53 6 17 9 0 0 0 0 0 0 0
65 48 6 3 24 16 10 26 7 1 0 4 0 1 12 4 6 14 21 9 6 7 7 29 2 9 3 8 42 9 28 52 28 43 14 0 4 0 0 0 0 0 1 0 0
44 18 11 13 16 20 17 14 5 0 1 2 6 9 0 0 1 1 6 13 18 8 50 98 3 1 1 7 8 8 7 0 0 0 4 0 0 0 0 0 0 0 0 0 0
33 36 10 18 6 13 19 14 0 0 0 0 0 0 0 0 0 2 7 1 3 7 2 8 27 6 5 2 0 2 0 0 1 8 15 0 0 0 0 0 0 0 0 0 0
11 13 41 29 7 10 41 2 0 0 0 0 0 0 0 0 0 0 7 1 2 2 1 0 7 28 0 2 0 0 0 0 0 0 5 0 0 0 0 0 0 0 0 0 0
3 10 30 33 13 9 20 0 0 2 7 0 0 0 0 0 0 2 3 2 0 0 0 0 10 32 0 0 0 0 0 0 0 0 0 0 0 0 0 0 0 0 0 0 0
15 10 36 45 21 15 0 0 0 2 0 6 0 0 0 0 0 0 0 0 0 0 0 0 0 32 9 2 0 0 0 0 0 0 0 0 0 0 0 0 0 0 0 0 0
19 9 3 15 11 1 1 7 11 0 0 0 0 0 0 0 0 0 0 0 0 0 0 0 0 0 0 0 0 0 0 0 0 0 0 0 0 0 0 0 0 0 0 0 0
10 14 10 19 7 0 0 6 17 7 0 0 0 0 0 0 0 0 0 0 0 0 0 0 0 0 0 0 0 0 0 0 0 0 0 0 0 0 0 0 0 0 0 0 0
1 2 6 3 0 0 0 28 13 0 0 0 0 0 0 0 0 0 0 0 0 0 0 0 0 0 0 0 0 0 0 0 0 0 0 0 0 0 0 0 0 0 0 0 0
1 0 0 0 0 0 1 2 4 0 0 0 0 0 0 0 0 0 0 0 0 0 0 0 0 0 0 0 0 0 0 0 0 0 0 0 0 0 0 0 0 0 0 0 0

GFSSW_con_sbcape_087.txt.gz
CAPE
10 42 29 43 50 59 82 14 11 8 1 3 3 0 0 0 0 11 6 0 0 0 0 0 0 0 0 0 8 23 33 10 3 6 1 0 0 1 7 19 25 44 68 69 872
48 46 29 13 24 42 27 91 10 6 0 0 9 0 0 0 2 2 0 0 0 0 0 0 0 0 0 0 5 22 14 0 0 1 1 4 2 3 3 7 9 1 59 91 676
29 12 11 9 8 6 19 96 16 2 0 0 0 0 0 0 0 0 0 0 0 0 0 0 0 0 0 0 1 1 6 1 7 14 14 18 5 0 22 14 23 20 8 103 421
72 64 31 10 4 6 16 20 38 0 0 2 0 0 0 0 0 2 6 2 7 0 0 0 0 0 0 0 0 0 0 0 0 0 11 34 14 0 6 36 56 137 207 170 166
55 52 66 46 27 28 17 15 44 4 0 6 0 0 1 0 0 0 0 16 0 0 0 0 0 0 0 0 0 0 0 0 0 0 0 7 9 11 0 1 41 64 137 173 222
54 64 46 47 29 22 26 95 25 4 0 11 0 0 2 0 0 0 0 0 3 0 0 0 0 0 0 0 0 0 1 2 4 2 3 1 0 0 0 0 0 7 28 134 196
46 39 42 41 40 32 6 60 13 3 9 12 1 2 2 0 0 0 0 0 0 0 1 4 2 2 2 1 1 2 1 1 0 0 0 2 0 0 0 0 0 0 27 261 265
50 41 46 24 17 22 0 57 5 4 16 20 6 7 0 0 0 0 0 0 0 1 0 7 14 26 16 13 13 17 12 1 0 0 0 4 5 0 0 0 0 0 37 197 212
26 23 28 19 12 8 34 10 8 23 15 10 14 7 0 0 0 0 0 0 3 8 1 3 29 24 7 11 14 27 37 28 1 9 2 35 22 0 0 0 0 0 0 111 247
21 8 16 21 37 8 14 7 41 16 13 6 2 2 0 0 0 0 0 0 5 11 24 19 16 7 20 35 12 24 24 20 18 86 82 69 43 0 0 0 0 0 12 142 283
27 11 12 15 29 51 12 7 1 4 5 1 0 0 0 0 0 0 0 0 6 16 20 3 16 17 14 24 17 13 20 13 19 47 85 81 8 0 0 255 129 151 258 236 297
52 10 4 22 25 33 2 0 0 0 4 5 1 0 0 1 3 3 0 3 7 20 2 6 16 8 15 18 16 14 17 16 10 47 35 133 26 36 18 227 390 279 286 260 188
75 2 16 23 48 24 3 0 0 0 1 8 5 2 0 0 4 3 1 7 1 8 3 12 1 5 1 2 13 12 30 8 15 28 107 94 106 103 50 201 265 281 299 335 128
133 92 66 1 55 9 3 0 0 0 30 3 8 1 0 1 3 9 4 11 3 5 3 3 5 5 2 10 10 23 3 18 63 41 46 30 69 47 100 236 289 244 119 169 18
221 181 49 3 34 34 21 0 0 2 20 1 9 1 2 12 7 8 4 13 11 23 23 6 10 2 14 8 6 1 19 15 19 36 27 59 59 32 79 164 234 134 87 58 0
145 68 9 34 3 21 11 0 7 20 15 25 17 29 13 16 6 10 7 4 2 11 18 10 1 5 1 4 32 13 5 6 14 13 62 23 95 88 132 85 74 131 18 17 3
117 0 0 47 24 53 16 12 29 34 1 12 13 18 13 7 8 9 14 16 23 15 11 4 5 2 6 6 6 62 61 159 133 183 49 20 29 9 0 0 0 0 20 32 0
19 32 30 42 19 35 36 11 48 3 18 5 8 15 10 3 10 27 23 17 6 21 33 11 44 2 4 11 37 32 35 131 65 47 21 1 84 12 2 0 0 0 51 6 0
35 29 18 18 44 29 12 70 24 6 8 6 13 9 5 4 12 15 14 12 24 5 31 18 40 0 8 4 23 11 89 2 29 0 15 15 2 1 0 7 6 1 1 0 2
22 41 32 20 43 24 7 17 9 7 8 1 0 0 5 6 3 5 7 2 2 1 1 13 43 0 1 0 0 2 0 0 18 34 15 1 0 4 12 6 5 0 0 0 0
37 30 67 43 4 9 20 32 6 25 26 15 0 0 4 4 3 8 0 1 1 8 4 6 10 18 4 7 18 7 9 0 0 0 8 3 2 0 2 13 0 0 0 0 0
4 2 24 35 19 19 36 5 1 42 13 0 0 0 4 2 5 6 0 6 0 0 0 0 16 50 1 0 0 0 0 0 1 0 0 0 2 0 1 1 0 0 0 0 0
10 13 16 42 28 34 0 16 3 10 14 13 0 0 0 1 2 5 4 0 0 0 0 0 1 91 31 3 1 2 0 0 0 3 0 11 2 0 0 0 0 0 0 0 0
15 9 5 10 3 8 10 6 16 0 1 0 0 0 0 0 0 0 0 0 0 0 0 0 0 0 3 1 0 0 0 0 0 0 0 0 0 0 0 0 0 0 0 0 0
3 9 11 27 9 9 5 1 13 14 1 0 0 0 0 0 0 0 0 0 0 0 0 0 0 0 0 0 0 0 0 0 0 0 0 0 0 0 0 0 0 0 0 0 0
0 4 2 5 1 2 0 10 0 1 0 1 0 0 0 0 0 0 0 0 0 0 0 0 0 0 0 0 0 0 0 0 0 0 0 0 0 0 0 0 0 0 0 0 0
0 0 0 0 0 5 6 4 4 2 0 0 0 0 0 0 0 0 0 0 0 0 0 0 0 0 0 0 0 0 0 0 0 0 0 0 0 0 0 0 0 0 0 0 0

GFSSW_con_sbcape_090.txt.gz
CAPE
34 40 34 19 21 15 24 61 61 9 7 0 2 0 0 0 0 1 6 0 0 0 0 0 0 0 0 0 0 3 1 0 0 0 0 0 0 0 0 0 0 0 0 0 848
62 53 37 17 16 9 2 20 54 46 10 0 1 0 0 0 0 2 0 0 0 0 0 0 0 0 0 0 0 2 2 0 0 0 0 0 0 0 0 0 0 0 0 0 683
30 60 61 54 20 13 12 6 16 135 2 0 0 0 0 0 1 0 0 0 0 0 0 0 0 0 0 0 0 0 0 0 0 1 0 0 0 0 0 0 0 6 0 0 4
58 42 61 52 57 28 10 23 10 61 2 0 0 0 0 0 0 0 0 0 0 0 0 0 0 0 0 0 0 0 0 0 0 0 0 0 0 0 0 0 0 0 19 82 49
51 61 58 56 43 39 35 27 19 35 5 0 0 0 0 0 0 0 21 22 0 0 0 0 0 0 0 0 0 0 0 0 0 0 0 0 0 0 0 0 0 0 0 0 20
23 54 56 41 58 30 28 51 22 62 2 4 2 0 0 0 0 0 0 9 0 0 0 0 0 0 0 0 0 0 0 0 0 0 0 0 0 0 0 0 0 0 0 0 0
26 19 23 27 39 27 15 20 6 65 9 18 0 0 1 0 0 0 0 0 0 0 0 0 0 0 0 0 0 0 0 0 0 0 0 0 0 0 0 0 0 0 0 0 0
80 25 30 31 24 15 12 4 55 7 23 14 4 0 0 0 0 0 0 0 0 0 0 0 0 0 0 0 0 0 0 0 0 0 0 1 0 0 0 0 0 0 0 0 0
84 56 33 17 18 28 12 62 17 19 41 17 0 0 0 0 0 0 0 0 0 0 0 0 0 0 1 2 0 0 0 0 0 6 6 11 0 0 0 0 0 0 0 0 0
127 78 16 11 8 29 102 31 45 30 7 0 0 0 0 0 0 0 0 1 5 6 1 3 6 1 2 12 0 0 1 0 0 0 38 20 0 0 0 0 0 0 0 0 0
180 95 31 13 16 15 25 7 2 9 9 0 0 0 0 0 0 0 0 0 3 1 1 2 1 1 0 0 2 1 1 0 0 0 0 3 0 0 19 0 0 0 0 0 1
82 114 34 9 13 87 30 28 1 0 4 0 0 0 0 0 0 2 1 5 5 6 3 0 1 0 0 1 9 7 8 0 0 0 9 10 0 1 20 9 12 185 99 392 321
165 130 50 12 6 60 0 8 1 0 2 5 0 1 0 0 0 2 0 7 3 0 1 2 0 1 0 0 12 0 2 0 8 0 0 8 1 14 7 3 332 330 278 345 299
184 156 73 5 29 22 8 5 0 0 1 4 6 2 0 0 0 11 2 6 5 2 0 1 0 0 0 10 6 6 0 5 16 33 7 5 0 0 4 0 237 196 359 362 323
103 112 20 12 15 30 13 1 0 0 1 0 4 2 1 0 1 10 10 12 7 7 2 0 2 1 4 0 2 11 3 21 18 24 12 6 11 0 0 35 125 149 255 384 290
34 34 5 46 34 35 30 2 11 7 5 32 13 14 4 5 19 5 13 0 0 10 5 0 0 1 0 0 2 20 5 5 10 26 0 0 0 0 0 10 99 173 204 155 217
41 31 5 38 26 57 10 19 5 5 0 7 10 5 4 5 12 5 6 4 12 7 1 0 0 0 0 5 5 22 3 1 0 0 4 6 1 15 0 0 67 154 246 162 4
49 21 9 27 0 40 18 6 4 27 14 7 1 0 6 1 8 9 4 6 1 5 16 5 4 1 1 8 6 1 21 11 1 2 14 1 11 5 0 0 0 131 5 0 1
18 2 13 19 2 26 2 7 13 24 5 3 2 10 4 7 2 1 3 3 3 0 26 8 0 0 0 0 2 0 13 3 16 1 15 13 3 1 4 0 2 4 2 4 3
0 6 14 25 14 8 2 12 11 12 0 0 0 5 0 0 1 7 4 0 0 1 3 1 2 0 0 0 0 1 0 0 0 0 4 7 2 28 10 5 4 2 3 2 2
7 3 42 15 7 1 9 5 13 17 18 10 0 0 0 0 0 8 0 0 0 3 0 0 2 6 0 4 5 0 1 0 0 0 2 0 5 25 12 10 3 5 4 2 1
11 6 7 24 1 12 11 3 2 14 22 0 0 0 0 0 5 2 0 1 0 0 0 0 0 11 11 0 0 0 0 0 0 0 0 0 2 2 2 0 3 2 1 1 0
5 14 4 32 18 5 4 3 0 13 6 0 0 0 0 0 0 1 0 0 0 1 0 0 0 0 0 0 0 0 0 0 0 0 0 0 0 0 0 0 0 0 0 0 0
1 3 10 14 0 0 2 1 1 0 0 0 0 0 0 0 0 0 0 0 0 0 0 0 0 0 0 0 0 0 0 0 0 0 0 0 0 0 0 0 0 0 0 0 0
0 3 3 0 0 0 0 2 0 0 0 0 0 0 0 0 0 0 0 0 0 0 0 0 0 0 0 0 0 0 0 0 0 0 0 0 0 0 0 0 0 0 0 0 0
5 0 0 0 0 0 0 3 0 0 0 0 0 0 0 0 0 0 0 0 0 0 0 0 0 0 0 0 0 0 0 0 0 0 0 0 0 0 0 0 0 0 0 0 0
0 0 0 0 0 0 0 0 0 0 0 0 0 0 0 0 0 0 0 0 0 0 0 0 0 0 0 0 0 0 0 0 0 0 0 0 0 0 0 0 0 0 0 0 0

GFSSW_con_sbcape_093.txt.gz
CAPE
40 33 57 38 15 2 4 4 5 49 13 16 7 1 0 0 0 0 0 0 0 0 0 0 0 0 0 0 0 0 0 0 0 0 0 0 0 0 0 0 0 0 0 133 391
51 44 36 43 48 15 0 0 8 17 53 13 0 1 0 0 0 0 0 0 0 0 0 0 0 0 0 0 0 0 0 0 0 0 0 0 0 0 0 0 0 0 0 31 499
26 41 47 70 53 27 26 2 9 13 35 2 0 0 0 0 0 0 0 0 0 0 0 0 0 0 0 0 0 0 0 0 0 0 0 0 0 0 0 0 0 0 0 0 4
49 43 45 49 46 35 31 13 8 6 18 5 1 0 0 0 0 0 0 0 0 0 0 0 0 0 0 0 0 0 0 0 0 0 0 0 0 0 0 0 0 0 0 0 0
64 35 45 35 22 34 26 24 24 18 27 17 4 0 0 0 0 0 0 0 0 0 0 0 0 0 0 0 0 0 0 0 0 0 0 0 0 0 0 0 0 0 0 0 0
83 52 18 22 13 11 17 8 16 27 81 14 0 0 0 0 0 0 0 0 0 0 0 0 0 0 0 0 0 0 0 0 0 0 0 0 0 0 0 0 0 0 0 0 0
154 114 57 40 27 19 22 41 10 18 24 15 0 0 0 0 0 0 0 0 0 0 0 0 0 0 0 0 0 0 0 0 0 0 0 0 0 0 0 0 0 0 0 0 0
116 122 86 44 22 18 14 22 3 1 99 23 1 0 0 0 0 0 0 0 0 0 0 0 0 0 0 0 0 0 0 0 0 0 0 3 0 0 0 0 0 0 0 0 0
152 125 101 34 19 2 76 80 106 143 29 14 0 0 0 0 0 0 0 0 0 0 0 0 0 0 0 0 0 0 0 0 0 0 0 0 0 0 0 0 0 0 0 0 0
222 246 136 37 15 13 67 131 116 38 28 1 0 0 0 0 0 0 0 0 0 0 0 0 0 0 0 0 0 0 0 0 0 0 0 0 0 0 0 0 0 0 0 0 0
145 156 179 20 9 36 12 0 0 0 2 0 0 0 0 0 0 0 0 0 0 3 0 1 0 0 0 0 0 0 0 0 0 0 0 0 0 0 0 0 0 0 0 0 0
56 185 91 49 1 81 20 9 14 6 6 0 0 0 0 0 0 0 0 0 1 1 1 0 0 0 0 0 0 0 0 0 0 0 6 0 0 0 0 0 0 0 0 0 0
129 140 68 7 4 28 4 11 4 0 5 10 3 0 0 0 0 0 0 4 4 1 0 1 0 0 0 0 0 0 0 0 0 0 3 2 0 0 0 0 0 0 94 205 189
94 109 21 1 0 6 9 7 0 0 0 15 2 0 0 0 4 5 1 6 10 1 1 0 0 0 0 0 0 5 0 0 20 36 0 0 0 0 0 0 0 10 271 96 159
8 0 0 0 0 16 1 0 0 0 0 2 4 3 0 0 2 23 10 17 5 1 0 0 0 0 0 0 0 1 4 17 19 7 2 0 3 0 0 0 0 9 103 53 16
0 0 0 0 0 0 2 0 0 0 0 30 4 0 0 9 7 7 8 0 0 2 2 0 0 0 0 0 0 0 3 5 3 11 1 0 0 0 0 0 0 27 44 79 0
0 0 0 0 0 0 0 0 0 0 10 1 17 4 1 15 3 3 0 2 3 0 0 0 0 0 0 0 0 0 2 0 0 0 0 2 0 0 0 3 0 0 226 2 0
26 4 0 0 0 0 0 1 0 37 3 1 0 0 5 0 1 14 5 0 0 0 0 1 0 0 0 0 0 2 6 2 0 0 1 8 4 6 3 44 20 18 1 1 2
4 0 0 0 0 0 0 0 3 11 1 0 1 7 3 1 3 0 0 0 2 0 2 2 0 0 0 0 1 0 11 0 14 4 0 2 3 3 1 1 6 5 2 3 4
0 0 6 0 0 0 0 3 6 1 0 0 0 0 0 0 0 0 0 0 0 1 0 0 3 0 0 0 0 0 0 0 0 0 6 3 3 11 5 3 7 4 5 4 4
0 10 1 0 0 0 0 2 0 5 0 6 0 0 0 0 0 0 0 0 0 0 0 0 5 0 0 0 0 0 0 0 0 0 0 0 4 9 4 9 8 5 3 1 0
0 1 0 0 0 2 0 0 0 0 0 0 0 0 0 0 3 0 0 0 0 0 0 0 0 0 0 0 0 0 0 0 0 0 0 0 4 10 13 12 2 3 3 2 0
0 1 0 0 1 1 1 0 1 0 0 0 0 0 0 0 0 0 0 0 0 0 0 0 0 0 0 0 0 0 0 0 0 0 0 0 0 6 0 1 2 1 2 1 0
0 0 0 0 0 0 0 0 0 0 0 0 0 0 0 0 0 0 0 0 0 0 0 0 0 0 0 0 0 0 0 0 0 0 0 0 0 0 0 0 0 0 0 0 0
0 0 0 0 0 0 0 0 0 0 0 0 0 0 0 0 0 0 0 0 0 0 0 0 0 0 0 0 0 0 0 0 0 0 0 0 0 0 0 0 0 0 0 0 0
0 0 0 0 0 0 0 0 0 0 0 0 0 0 0 0 0 0 0 0 0 0 0 0 0 0 0 0 0 0 0 0 0 0 0 0 0 0 0 0 0 0 0 0 0
0 0 0 0 0 0 0 0 0 0 0 0 0 0 0 0 0 0 0 0 0 0 0 0 0 0 0 0 0 0 0 0 0 0 0 0 0 0 0 0 0 0 0 0 0

GFSSW_con_sbcape_096.txt.gz
CAPE
22 58 70 55 46 34 7 2 0 29 86 32 10 2 0 0 0 0 0 0 0 0 0 0 0 0 0 0 0 0 0 0 0 0 0 0 0 0 0 0 0 0 0 0 0
38 41 55 64 65 37 13 8 0 0 12 103 23 15 0 0 0 0 0 0 0 0 0 0 0 0 0 0 0 0 0 0 0 0 0 0 0 0 0 0 0 0 0 0 0
63 68 58 57 53 50 30 8 4 1 0 47 16 9 0 0 0 0 0 0 0 0 0 0 0 0 0 0 0 0 0 0 0 0 0 0 0 0 0 0 0 0 0 0 0
74 74 45 47 31 37 42 15 1 3 4 74 16 5 0 0 0 0 0 0 0 0 0 0 0 0 0 0 0 0 0 0 0 0 0 0 0 0 0 0 0 0 0 0 0
111 105 63 10 7 4 8 23 4 6 10 32 27 6 0 0 0 0 0 0 0 0 0 0 0 0 0 0 0 0 0 0 0 0 0 0 0 0 0 0 0 0 0 0 0
100 100 87 74 30 23 21 15 11 15 12 93 3 0 0 0 0 0 0 0 0 0 0 0 0 0 0 0 0 0 0 0 0 0 0 0 0 0 0 0 0 0 0 0 0
147 92 73 59 26 13 30 41 43 25 3 218 11 0 0 0 0 0 0 0 0 0 0 0 0 0 0 0 0 0 0 0 0 0 0 0 0 0 0 0 0 0 0 0 0
180 138 119 47 15 8 4 2 55 9 9 132 5 0 0 0 0 0 0 0 0 0 0 0 0 0 0 0 0 0 0 0 0 0 0 0 0 0 0 0 0 0 0 0 0
161 181 144 59 3 11 121 73 62 28 120 32 0 0 0 0 0 0 0 0 0 0 0 0 0 0 0 0 0 0 0 0 0 0 0 0 0 0 0 0 0 0 0 0 0
169 167 166 45 2 27 0 354 122 94 10 3 0 0 0 0 0 0 0 0 0 0 0 0 0 0 0 0 0 0 0 0 0 0 0 0 0 0 0 0 0 0 0 0 0
35 178 144 100 12 15 0 7 0 0 0 1 0 0 0 0 0 0 0 0 1 0 0 0 0 0 0 0 0 0 0 0 0 0 0 0 0 0 0 0 0 0 0 0 0
111 144 96 74 25 4 3 25 19 0 6 3 0 0 0 0 0 0 0 0 0 0 0 0 0 0 0 0 0 0 0 0 0 0 0 0 0 0 0 0 0 0 0 0 0
100 112 49 0 28 6 7 31 5 0 5 13 12 0 0 0 0 0 0 2 0 0 0 0 0 0 0 0 0 0 0 0 0 0 0 0 0 0 0 0 0 0 0 0 0
28 21 0 5 2 17 7 7 6 0 0 6 6 5 0 0 7 4 0 2 8 0 1 0 0 0 0 0 0 0 0 0 0 7 0 0 0 0 0 0 0 0 0 0 114
0 0 0 0 0 0 0 0 0 0 0 13 3 0 0 0 1 16 3 11 5 7 0 0 0 0 0 0 0 0 0 0 19 14 0 0 0 0 0 0 0 0 0 128 48
0 0 0 0 0 1 0 0 0 0 1 22 1 0 2 20 0 9 7 0 0 0 0 0 0 0 0 0 0 0 0 6 17 17 1 0 0 0 0 9 9 8 141 57 3
0 0 0 0 0 0 0 0 0 0 29 1 8 0 1 4 0 4 1 0 0 0 0 0 0 0 0 0 0 0 2 0 0 0 0 6 0 0 2 31 31 23 22 3 3
0 0 0 0 0 0 0 0 0 13 2 0 0 0 3 2 11 10 4 0 0 0 0 0 0 0 0 0 0 0 4 1 0 0 0 5 0 6 4 1 1 5 5 3 4
0 0 0 0 0 0 0 0 1 0 0 0 7 1 2 0 3 1 0 0 0 0 0 2 0 0 0 0 0 0 8 3 11 6 0 0 1 7 0 0 3 9 4 6 5
0 0 0 0 0 0 0 9 0 0 0 0 0 0 0 0 1 2 0 0 0 0 0 0 6 0 0 0 0 0 0 2 0 0 0 1 3 6 4 1 7 4 6 7 4
0 0 0 0 0 0 0 0 0 0 0 0 0 0 0 0 0 0 0 0 0 0 0 0 4 0 0 0 0 0 0 0 0 0 0 0 4 9 6 6 9 5 3 3 4
0 0 0 0 0 0 0 0 0 0 0 0 0 0 0 0 0 0 0 0 0 0 0 0 0 0 0 0 0 0 0 0 0 0 0 0 2 10 11 11 11 17 7 4 3
0 0 0 0 0 0 0 0 0 0 0 0 0 0 0 0 0 0 0 0 0 0 0 0 0 0 0 0 0 0 0 0 0 0 0 0 0 0 1 3 6 4 1 1 1
0 0 0 0 0 0 0 0 0 0 0 0 0 0 0 0 0 0 0 0 0 0 0 0 0 0 0 0 0 0 0 0 0 0 0 0 0 0 0 0 0 0 0 0 0
0 0 0 0 0 0 0 0 0 0 0 0 0 0 0 0 0 0 0 0 0 0 0 0 0 0 0 0 0 0 0 0 0 0 0 0 0 0 0 0 0 0 0 0 0
0 0 0 0 0 0 0 0 0 0 0 0 0 0 0 0 0 0 0 0 0 0 0 0 0 0 0 0 0 0 0 0 0 0 0 0 0 0 0 0 0 0 0 0 0
0 0 0 0 0 0 0 0 0 0 0 0 0 0 0 0 0 0 0 0 0 0 0 0 0 0 0 0 0 0 0 0 0 0 0 0 0 0 0 0 0 0 0 0 0

GFSSW_con_sbcape_099.txt.gz
CAPE
41 22 30 34 63 61 9 10 6 10 42 109 29 4 0 0 0 0 0 0 0 0 0 0 0 0 0 0 0 0 0 0 0 0 0 0 0 0 0 0 0 0 0 0 0
94 66 40 54 35 66 38 2 5 1 0 4 89 9 0 0 0 0 0 0 0 0 0 0 0 0 0 0 0 0 0 0 0 0 0 0 0 0 0 0 0 0 0 0 0
181 104 65 32 51 40 50 33 6 0 1 1 53 52 0 0 0 0 0 0 0 0 0 0 0 0 0 0 0 0 0 0 0 0 0 0 0 0 0 0 0 0 0 0 0
161 112 104 63 14 27 12 9 13 7 0 0 144 10 0 0 0 0 0 0 0 0 0 0 0 0 0 0 0 0 0 0 0 0 0 0 0 0 0 0 0 0 0 0 0
115 143 104 47 32 20 1 2 13 13 0 16 182 3 0 0 0 0 0 0 0 0 0 0 0 0 0 0 0 0 0 0 0 0 0 0 0 0 0 0 0 0 0 0 0
143 85 79 75 47 24 14 14 15 12 12 10 10 0 0 0 0 0 0 0 0 0 0 0 0 0 0 0 0 0 0 0 0 0 0 0 0 0 0 0 0 0 0 0 0
175 144 110 59 37 36 15 45 64 66 35 10 17 0 0 0 0 0 0 0 0 0 0 0 0 0 0 0 0 0 0 0 0 0 0 0 0 0 0 0 0 0 0 0 0
168 161 116 92 48 5 8 46 75 39 23 27 1 0 0 0 0 0 0 0 0 0 0 0 0 0 0 0 0 0 0 0 0 0 0 0 0 0 0 0 0 0 0 0 0
189 201 165 81 17 12 10 43 194 64 51 48 0 0 0 0 0 0 0 0 0 0 0 0 0 0 0 0 0 0 0 0 0 0 0 0 0 0 0 0 0 0 0 0 0
67 147 171 31 15 43 2 273 178 124 44 10 0 0 0 0 0 0 0 0 0 0 0 0 0 0 0 0 0 0 0 0 0 0 0 0 0 0 0 0 0 0 0 0 0
146 192 97 184 12 72 1 0 0 5 12 0 0 0 0 0 0 0 0 0 0 0 0 0 0 0 0 0 0 0 0 0 0 0 0 0 0 0 0 0 0 0 0 0 0
143 132 105 101 48 3 1 3 5 6 3 2 0 0 0 0 0 0 0 0 0 0 0 0 0 0 0 0 0 0 0 0 0 0 0 0 0 0 0 0 0 0 0 0 0
109 31 21 31 29 13 3 14 1 0 3 15 8 6 0 0 0 0 0 0 0 0 0 0 0 0 0 0 0 0 0 0 0 0 0 0 0 0 0 0 0 0 0 0 0
0 0 22 60 0 14 11 4 1 0 0 4 1 0 0 0 2 0 0 0 1 0 0 0 0 0 0 0 0 0 0 0 0 10 6 0 0 0 0 0 0 0 0 0 0
0 0 14 0 0 1 1 0 0 0 0 7 3 0 0 0 0 14 5 10 9 3 0 0 0 0 0 0 0 0 0 0 1 18 17 0 1 0 0 8 69 33 0 3 14
1 0 0 0 0 12 0 0 0 0 0 30 0 0 0 1 1 14 9 1 0 0 0 0 0 0 0 0 0 0 0 0 7 5 0 0 0 0 3 28 68 82 33 45 11
0 0 0 0 0 0 0 0 0 1 5 0 1 0 2 2 0 8 2 1 0 0 0 0 0 0 0 0 0 0 0 0 0 0 0 2 0 0 7 2 30 28 5 3 2
0 0 0 0 0 0 0 0 0 7 10 1 0 0 0 8 2 3 4 1 1 0 0 0 0 0 0 0 0 0 7 2 0 0 0 0 0 0 3 0 11 12 9 5 6
0 0 0 0 0 0 0 0 0 1 0 0 11 0 0 1 0 0 0 2 1 0 0 0 0 0 0 0 0 0 0 11 19 0 1 0 0 3 0 0 8 6 7 7 7
0 0 0 0 0 0 0 6 0 0 0 0 0 0 0 2 1 1 0 0 0 0 0 0 3 0 0 0 0 0 0 2 1 0 0 0 1 4 3 3 7 5 8 7 5
0 0 0 0 0 0 0 0 0 0 0 0 0 0 0 0 0 0 0 0 0 1 0 0 1 0 0 0 0 0 0 1 0 0 1 0 1 8 6 7 10 10 10 10 5
0 0 0 0 0 0 0 0 0 0 0 0 0 0 0 0 0 0 0 0 0 0 0 0 0 0 0 0 0 0 0 0 0 0 0 0 1 9 8 8 9 10 9 18 17
0 0 0 0 0 0 0 0 0 0 0 0 0 0 0 0 0 0 0 0 0 0 0 0 0 0 0 0 0 0 0 0 0 0 0 0 0 0 1 8 11 8 8 2 2
0 0 0 0 0 0 0 0 0 0 0 0 0 0 0 0 0 0 0 0 0 0 0 0 0 0 0 0 0 0 0 0 0 0 0 0 0 0 0 0 0 0 0 0 0
0 0 0 0 0 0 0 0 0 0 0 0 0 0 0 0 0 0 0 0 0 0 0 0 0 0 0 0 0 0 0 0 0 0 0 0 0 0 0 0 0 0 0 0 0
0 0 0 0 0 0 0 0 0 0 0 0 0 0 0 0 0 0 0 0 0 0 0 0 0 0 0 0 0 0 0 0 0 0 0 0 0 0 0 0 0 0 0 0 0
0 0 0 0 0 0 0 0 0 0 0 0 0 0 0 0 0 0 0 0 0 0 0 0 0 0 0 0 0 0 0 0 0 0 0 0 0 0 0 0 0 0 0 0 0

GFSSW_con_sbcape_102.txt.gz
CAPE
103 52 32 6 23 33 36 13 5 1 1 19 101 7 0 0 0 0 0 0 0 0 0 0 0 0 0 0 0 0 0 0 0 0 0 0 0 0 0 0 0 0 0 0 0
128 166 66 23 19 2 36 21 7 2 0 3 16 10 0 0 0 0 0 0 0 0 0 0 0 0 0 0 0 0 0 0 0 0 0 0 0 0 0 0 0 0 0 0 0
170 213 163 52 33 11 0 10 1 2 1 0 10 24 0 0 0 0 0 0 0 0 0 0 0 0 0 0 0 0 0 0 0 0 0 0 0 0 0 0 0 0 0 0 0
192 220 118 85 34 0 0 2 1 0 0 2 77 11 0 0 0 0 0 0 0 0 0 0 0 0 0 0 0 0 0 0 0 0 0 0 0 0 0 0 0 0 0 0 0
242 241 64 48 52 17 5 0 0 0 0 0 44 1 0 0 0 0 0 0 0 0 0 0 0 0 0 0 0 0 0 0 0 0 0 0 0 0 0 0 0 0 0 0 0
283 219 131 48 52 42 14 6 9 1 0 1 35 0 0 0 0 0 0 0 0 0 0 0 0 0 0 0 0 0 0 0 0 0 0 0 0 0 0 0 0 0 0 0 0
212 212 151 88 48 37 1 6 15 38 12 12 3 0 0 1 0 0 0 0 0 0 0 0 0 0 0 0 0 0 0 0 0 0 0 0 0 0 0 0 0 0 0 0 0
202 197 151 121 37 1 2 8 5 54 13 7 23 3 1 0 0 0 0 0 0 0 0 0 0 0 0 0 0 0 0 0 0 0 0 0 0 0 0 0 0 0 0 0 0
147 197 158 48 1 10 5 83 36 55 21 38 0 1 2 0 0 0 0 0 0 0 0 0 0 0 0 0 0 0 0 0 0 0 0 0 0 0 0 0 0 0 0 0 0
231 237 205 143 20 6 57 340 267 143 66 6 0 0 0 0 0 0 0 0 0 0 0 0 0 0 0 0 0 0 0 0 0 0 0 0 0 0 0 0 0 0 0 0 0
190 153 154 61 17 16 0 36 29 24 0 5 1 0 0 0 0 0 0 0 0 0 0 0 0 0 0 0 0 0 0 0 0 0 0 0 0 0 0 0 0 0 0 0 0
96 19 94 19 17 2 0 2 7 9 3 13 0 0 0 0 0 0 0 0 0 0 0 0 0 0 0 0 0 0 0 0 0 0 0 0 0 0 0 0 0 0 0 0 0
12 48 27 17 0 0 1 8 1 0 2 9 4 4 0 0 0 0 0 0 0 0 0 0 0 0 0 0 0 0 0 0 0 0 0 0 0 0 0 0 0 0 0 0 0
23 32 37 23 0 1 2 3 0 1 0 5 13 1 0 0 0 0 0 0 0 0 0 0 0 0 0 0 0 0 0 0 0 0 0 5 0 0 0 0 0 0 0 0 0
17 14 17 0 2 0 2 0 0 0 0 12 1 0 0 0 0 1 2 12 3 1 0 0 0 0 0 0 0 0 0 0 0 11 14 0 1 0 0 0 0 0 0 1 103
6 0 0 0 0 5 0 0 0 0 0 3 0 0 0 0 0 16 9 0 0 0 0 0 0 0 0 0 0 0 0 0 1 6 0 0 0 0 5 9 2 14 3 2 26
0 0 0 0 0 0 0 0 0 0 2 0 0 0 2 1 0 10 0 0 0 0 0 0 0 0 0 0 0 0 1 0 0 0 0 0 0 0 2 0 18 19 10 8 5
0 0 0 0 0 0 0 0 0 2 5 0 0 1 1 0 0 0 0 0 0 0 0 0 0 0 0 0 0 0 2 1 0 0 0 0 0 0 0 0 8 11 7 6 6
0 0 0 0 0 0 0 0 0 0 0 0 0 0 0 0 0 0 0 0 0 0 0 0 0 0 0 0 0 0 0 8 4 0 2 0 0 2 0 1 3 10 10 5 8
0 0 0 0 0 0 0 6 0 0 0 0 0 0 0 0 0 0 0 0 0 0 0 0 3 0 0 0 0 0 0 0 0 0 0 0 0 3 2 5 7 8 11 5 6
0 0 0 0 0 0 0 0 0 0 0 0 0 0 0 0 0 0 0 0 0 0 0 0 1 0 0 0 0 0 0 0 0 0 0 0 0 5 3 7 11 11 11 11 10
0 0 0 0 0 0 0 0 0 0 0 0 0 0 0 0 0 0 0 0 0 0 0 0 0 0 0 0 0 0 0 0 0 0 0 0 0 0 7 9 7 7 11 7 13
0 0 0 0 0 0 0 0 0 0 0 0 0 0 0 0 0 0 0 0 0 0 0 0 0 0 0 0 0 0 0 0 0 0 0 0 0 0 0 6 6 5 5 3 5
0 0 0 0 0 0 0 0 0 0 0 0 0 0 0 0 0 0 0 0 0 0 0 0 0 0 0 0 0 0 0 0 0 0 0 0 0 0 0 0 0 0 0 0 0
0 0 0 0 0 0 0 0 0 0 0 0 0 0 0 0 0 0 0 0 0 0 0 0 0 0 0 0 0 0 0 0 0 0 0 0 0 0 0 0 0 0 0 0 0
0 0 0 0 0 0 0 0 0 0 0 0 0 0 0 0 0 0 0 0 0 0 0 0 0 0 0 0 0 0 0 0 0 0 0 0 0 0 0 0 0 0 0 0 0
0 0 0 0 0 0 0 0 0 0 0 0 0 0 0 0 0 0 0 0 0 0 0 0 0 0 0 0 0 0 0 0 0 0 0 0 0 0 0 0 0 0 0 0 0

GFSSW_con_sbcape_105.txt.gz
CAPE
140 147 115 61 14 52 37 29 4 0 1 4 71 12 0 0 0 0 0 0 0 0 0 0 0 0 0 0 0 0 0 0 0 0 0 0 0 0 0 0 0 0 0 0 0
54 173 155 150 61 4 19 30 6 0 4 1 10 13 0 0 0 0 0 0 0 0 0 0 0 0 0 0 0 0 0 0 0 0 0 0 0 0 0 0 0 0 0 0 0
71 151 156 122 91 48 0 0 0 0 0 39 28 14 0 0 0 0 0 0 0 0 0 0 0 0 0 0 0 0 0 0 0 0 0 0 0 0 0 0 0 0 0 0 0
98 161 108 90 87 73 0 0 2 0 1 9 121 16 0 0 0 0 3 0 0 0 0 0 0 0 0 0 0 0 0 0 0 0 0 0 0 0 0 0 0 0 0 0 0
144 161 107 44 36 111 9 0 0 1 0 6 41 0 0 0 1 0 0 0 0 0 0 0 0 0 0 0 0 0 0 0 0 0 0 0 0 0 0 0 0 0 0 0 0
151 150 92 42 17 84 27 6 11 27 0 108 21 7 0 1 0 0 0 0 0 0 0 0 0 0 0 0 0 0 0 0 0 0 0 0 0 0 0 0 0 0 0 0 0
167 185 111 26 21 80 17 0 11 52 20 110 6 0 0 2 0 0 0 0 0 0 0 0 0 0 0 0 0 0 0 0 0 0 0 0 0 0 0 0 0 0 0 0 0
154 193 129 40 39 2 0 0 0 57 9 63 2 0 19 0 0 0 0 0 0 0 0 0 0 0 0 0 0 0 0 0 0 0 0 0 0 0 0 0 0 0 0 0 0
232 192 130 73 36 12 11 62 62 75 86 46 0 0 21 0 0 0 0 0 0 0 0 0 0 0 0 0 0 0 0 0 0 0 0 0 0 0 0 0 0 0 0 0 0
246 244 99 83 41 120 235 283 146 86 33 0 0 0 0 0 0 0 0 0 0 0 0 0 0 0 0 0 0 0 0 0 0 0 0 0 0 0 0 0 0 0 0 0 0
71 107 104 34 20 44 2 43 13 4 8 19 0 0 0 0 0 0 0 0 0 0 0 0 0 0 0 0 0 0 0 0 0 0 0 0 0 0 0 0 0 0 0 0 0
41 47 14 5 7 29 1 9 14 3 7 4 0 0 0 0 0 0 0 0 0 0 0 0 0 0 0 0 0 0 0 0 0 0 0 0 0 0 0 0 0 0 0 0 0
45 26 17 5 0 0 2 15 3 0 3 6 8 4 0 0 0 0 0 0 0 0 0 0 0 0 0 0 0 0 0 0 0 0 0 0 0 0 0 0 0 0 0 0 0
25 12 4 10 0 0 1 1 0 0 0 7 2 0 0 0 0 0 0 0 0 0 0 0 0 0 0 0 0 0 0 0 0 0 1 0 1 0 0 0 0 0 0 3 0
0 19 18 0 0 0 0 0 0 0 0 10 1 0 0 0 0 0 0 0 0 0 0 0 0 0 0 0 0 0 0 0 0 6 8 0 6 0 0 0 0 3 1 11 8
0 0 0 0 0 1 0 0 0 0 0 0 0 0 0 0 0 0 0 0 0 0 0 0 0 0 0 0 0 0 0 0 2 1 1 0 0 0 1 3 2 9 10 8 15
0 0 0 0 0 0 0 0 0 0 0 0 0 0 0 0 0 0 0 0 0 0 0 0 0 0 0 0 0 0 0 0 0 0 0 0 0 0 2 2 1 13 8 7 7
0 0 0 0 0 0 0 0 0 4 5 0 0 1 0 0 0 0 0 0 0 0 0 0 0 0 0 0 0 0 1 4 1 0 0 1 0 0 1 1 3 5 4 4 5
0 0 0 0 0 0 0 0 0 0 0 0 0 0 0 0 0 0 0 0 0 0 0 0 0 0 0 0 0 0 0 7 9 0 1 0 0 2 0 1 2 7 6 4 9
0 0 0 0 0 0 0 1 0 0 0 0 0 0 0 0 0 0 0 0 0 0 0 0 0 0 0 0 0 0 0 0 0 0 0 0 0 1 1 2 7 3 5 5 12
0 0 0 0 0 0 0 0 0 0 0 0 0 0 0 0 0 0 0 0 0 0 0 0 0 0 0 0 0 0 0 0 0 0 0 0 0 2 8 7 6 6 7 8 12
0 0 0 0 0 0 0 0 0 0 0 0 0 0 0 0 0 0 0 0 0 0 0 0 0 0 0 0 0 0 0 0 0 0 0 0 0 0 4 4 5 5 4 5 2
0 0 0 0 0 0 0 0 0 0 0 0 0 0 0 0 0 0 0 0 0 0 0 0 0 0 0 0 0 0 0 0 0 0 0 0 0 0 0 2 2 5 4 1 0
0 0 0 0 0 0 0 0 0 0 0 0 0 0 0 0 0 0 0 0 0 0 0 0 0 0 0 0 0 0 0 0 0 0 0 0 0 0 0 0 2 1 1 0 0
0 0 0 0 0 0 0 0 0 0 0 0 0 0 0 0 0 0 0 0 0 0 0 0 0 0 0 0 0 0 0 0 0 0 0 0 0 0 0 0 0 0 0 0 0
0 0 0 0 0 0 0 0 0 0 0 0 0 0 0 0 0 0 0 0 0 0 0 0 0 0 0 0 0 0 0 0 0 0 0 0 0 0 0 0 0 0 0 0 0
0 0 0 0 0 0 0 0 0 0 0 0 0 0 0 0 0 0 0 0 0 0 0 0 0 0 0 0 0 0 0 0 0 0 0 0 0 0 0 0 0 0 0 0 0

GFSSW_con_sbcape_108.txt.gz
CAPE
44 85 116 93 77 80 76 58 56 44 10 0 57 21 1 0 0 0 0 0 0 0 0 0 0 0 0 0 0 0 0 0 0 0 0 0 0 0 0 0 0 0 0 0 0
29 70 89 110 102 45 28 29 16 12 10 11 92 15 0 0 0 0 0 0 0 0 0 0 0 0 0 0 0 0 0 0 0 0 0 0 0 0 0 0 0 0 0 0 0
38 43 67 77 115 58 26 5 0 4 1 14 128 22 0 0 0 1 5 0 0 0 0 0 0 0 0 0 0 0 0 0 0 0 0 0 0 0 0 0 0 0 0 0 0
58 43 26 118 161 80 32 10 15 4 2 29 116 3 0 0 0 3 1 0 0 0 0 0 0 0 0 0 0 0 0 0 0 0 0 0 0 0 0 0 0 0 0 0 0
89 51 71 109 64 87 78 15 0 0 0 127 67 1 0 0 8 0 0 0 0 0 0 0 0 0 0 0 0 0 0 0 0 0 0 0 0 0 0 0 0 0 0 0 0
142 92 105 121 36 45 68 6 17 0 0 155 60 5 0 1 4 0 0 0 0 0 0 0 0 0 0 0 0 0 0 0 0 0 0 0 0 0 0 0 0 0 0 0 0
147 168 118 115 9 32 32 0 12 13 104 164 19 27 0 14 0 0 0 0 0 0 0 0 0 0 0 0 0 0 0 0 0 0 0 0 0 0 0 0 0 0 0 0 0
175 151 121 80 32 61 0 0 1 30 35 119 48 8 7 1 0 0 0 0 0 0 0 0 0 0 0 0 0 0 0 0 0 0 0 0 0 0 0 0 0 0 0 0 0
190 63 74 70 39 16 8 9 12 27 47 46 0 8 10 16 0 0 0 0 0 0 0 0 0 0 0 0 0 0 0 0 0 0 0 0 0 0 0 0 0 0 0 0 0
57 61 52 37 10 311 24 50 74 58 0 0 0 0 4 0 0 0 0 0 0 0 0 0 0 0 0 0 0 0 0 0 0 0 0 0 0 0 0 0 0 0 0 0 0
51 51 41 57 19 175 124 42 13 6 0 6 2 2 0 0 0 0 0 0 0 0 0 0 0 0 0 0 0 0 0 0 0 0 0 0 0 0 0 0 0 0 0 0 0
27 14 21 57 63 63 12 5 13 11 12 4 0 0 0 0 0 0 0 0 0 0 0 0 0 0 0 0 0 0 0 0 0 0 0 0 0 0 0 0 0 0 0 1 5
19 7 6 14 6 21 5 17 15 2 2 7 0 0 0 0 0 0 0 0 0 0 0 0 0 0 0 0 0 0 0 0 0 0 0 0 0 0 0 0 0 0 7 15 13
23 3 0 1 0 0 2 1 1 2 6 6 2 0 0 0 0 0 0 0 0 0 0 0 0 0 0 0 0 0 0 0 0 5 3 0 1 0 0 0 0 0 2 2 3
10 6 0 0 2 4 0 0 0 1 0 8 1 0 0 0 0 0 0 0 0 0 0 0 0 0 0 0 0 0 0 0 2 9 9 0 7 0 0 0 1 4 2 11 3
0 0 0 0 0 0 0 0 0 8 3 4 0 0 0 0 0 0 0 0 0 0 0 0 0 0 0 0 0 0 0 4 4 6 3 0 1 0 0 2 7 7 5 10 5
0 0 0 0 0 0 0 0 1 8 0 0 1 0 0 0 0 0 0 0 0 1 2 0 0 0 0 0 0 0 4 5 6 8 0 0 6 0 0 4 10 16 5 8 6
0 0 0 0 0 0 0 0 1 9 7 0 2 2 3 2 0 0 0 1 0 0 0 0 0 0 0 0 0 1 3 4 3 4 2 2 2 0 0 0 5 7 6 5 9
0 0 0 0 0 0 0 5 10 1 0 1 0 0 3 0 0 0 0 0 0 0 1 3 0 0 0 0 0 3 4 5 12 14 10 0 0 0 0 2 0 6 6 6 9
0 0 0 0 0 0 0 3 0 0 0 0 0 0 0 0 0 0 0 0 0 0 0 0 1 0 0 0 0 1 0 5 23 5 0 0 0 0 0 7 8 10 6 5 10
0 0 0 0 0 0 1 0 0 0 0 0 0 0 0 0 0 0 0 0 0 0 0 0 0 0 0 0 0 2 6 5 1 1 2 0 0 0 2 3 7 8 5 4 9
0 0 0 0 0 0 1 0 0 0 0 0 0 0 0 0 0 0 0 0 0 0 0 0 1 0 0 0 0 0 0 0 0 0 5 2 0 0 1 2 2 4 4 4 2
0 0 0 0 0 0 0 0 0 0 0 0 0 0 0 0 0 0 0 0 0 0 0 0 0 0 0 0 0 0 0 0 0 0 0 4 0 0 0 1 3 6 4 2 1
0 0 0 0 0 0 0 0 0 0 0 0 0 0 0 0 0 0 0 0 0 0 0 0 1 0 0 0 0 0 0 0 0 3 0 0 0 0 0 0 1 2 2 2 1
0 0 0 0 0 0 0 0 0 0 0 0 0 0 0 0 0 0 0 0 0 0 0 0 2 0 0 0 0 0 0 0 1 0 0 0 0 0 0 0 0 0 0 0 0
0 0 0 0 0 0 0 0 0 0 0 0 0 0 0 0 0 0 0 0 0 0 0 0 4 0 0 0 0 0 0 0 0 0 0 0 0 0 0 0 0 0 0 0 0
0 0 0 0 0 0 0 0 0 0 0 0 0 0 0 0 0 0 0 0 0 0 0 0 0 0 0 0 0 0 0 0 0 0 0 0 0 0 0 0 0 0 0 0 0

GFSSW_con_sbcape_111.txt.gz
CAPE
52 17 53 49 102 60 73 67 33 38 33 21 73 6 0 0 0 0 0 0 0 0 0 0 0 0 0 0 0 0 0 0 0 0 0 0 0 0 0 0 0 0 0 0 0
114 53 64 93 111 6 13 2 0 0 27 51 125 8 0 0 0 0 4 0 0 0 0 0 0 0 0 0 0 0 0 0 0 0 0 0 0 0 0 0 0 0 0 0 0
98 76 47 147 127 27 15 0 0 0 2 45 183 14 0 0 0 7 5 0 0 0 0 0 0 0 0 0 0 0 0 0 0 0 0 0 0 0 0 0 0 0 0 0 0
78 43 72 157 127 11 22 0 0 0 0 47 28 0 0 0 2 6 0 0 0 0 0 0 0 0 0 0 0 0 0 0 0 0 0 0 0 0 0 0 0 0 0 0 0
46 23 36 84 102 32 0 0 0 0 0 132 4 1 0 5 3 0 0 0 0 0 0 0 0 0 0 0 0 0 0 0 0 0 0 0 0 0 0 0 0 0 0 0 0
77 18 52 32 16 57 5 0 0 0 0 117 17 3 4 1 2 0 0 0 0 0 0 0 0 0 0 0 0 0 0 0 0 0 0 0 0 0 0 0 0 0 0 0 0
63 52 97 13 79 50 16 0 8 0 2 84 53 0 0 5 0 0 0 0 0 0 0 0 0 0 0 0 0 0 0 0 0 0 0 0 0 0 0 0 0 0 0 0 0
104 99 115 71 2 1 0 0 7 53 203 65 0 0 1 0 0 0 0 0 0 0 0 0 0 0 0 0 0 0 0 0 0 0 0 0 0 0 0 0 0 0 0 0 0
82 84 68 46 11 0 0 0 30 64 103 49 0 0 1 0 0 0 0 0 0 0 0 0 0 0 0 0 0 0 0 0 0 0 0 0 0 0 0 0 0 0 0 0 0
43 14 21 15 2 2 1 44 76 36 6 2 0 0 0 0 0 0 0 0 0 0 0 0 0 0 0 0 0 0 0 0 0 0 0 0 0 0 0 0 0 0 0 0 0
4 20 60 108 482 115 56 55 0 0 18 18 6 3 9 0 0 0 0 0 0 0 0 0 0 0 0 0 0 0 0 0 0 0 0 0 0 0 0 0 0 0 0 0 0
1 32 51 93 52 21 2 7 11 3 10 8 1 4 3 1 0 0 0 0 0 0 0 0 0 0 0 0 0 0 0 0 0 0 0 0 0 0 0 0 0 0 0 0 0
0 4 25 41 57 24 2 9 17 8 9 15 5 2 0 0 0 0 0 0 0 0 0 0 0 0 0 0 0 0 0 0 0 0 0 0 0 0 0 0 0 0 0 0 1
4 0 0 0 25 8 1 0 3 4 5 3 2 0 0 0 0 0 0 0 0 0 0 0 0 0 0 0 0 0 0 0 0 1 0 0 0 0 0 0 0 0 0 0 0
0 3 0 0 8 13 0 2 0 8 14 0 3 0 0 0 0 0 0 0 0 0 0 0 0 0 0 0 0 0 0 0 3 1 2 0 0 0 0 0 0 0 2 1 2
0 0 0 0 0 0 0 0 0 14 5 6 4 1 0 0 0 0 0 0 0 0 0 0 0 0 0 0 0 0 0 0 3 3 3 0 0 0 0 0 0 0 7 6 8
0 0 0 0 0 0 0 0 4 10 0 2 3 1 0 0 0 0 0 0 0 0 0 0 0 0 0 1 0 0 3 9 4 3 1 0 0 0 0 0 1 4 9 3 5
0 0 0 0 0 0 0 0 3 3 2 0 0 0 0 0 0 0 0 0 0 0 0 2 0 0 0 0 1 1 0 3 1 8 2 0 0 0 0 0 0 2 0 4 5
0 0 0 0 0 0 0 10 10 1 0 0 0 0 0 0 0 0 0 0 0 0 0 6 2 0 0 0 0 3 3 2 9 4 3 0 0 0 0 0 1 2 5 5 2
0 0 0 0 0 0 0 1 0 0 0 0 0 0 0 0 0 0 0 0 0 0 0 0 2 0 0 0 0 2 0 1 9 1 0 0 0 0 0 0 0 0 2 2 6
0 0 0 0 0 0 7 0 0 0 0 0 0 0 0 0 0 0 0 0 0 0 0 0 0 0 0 0 0 2 0 0 0 0 2 0 0 0 0 0 0 0 2 3 5
0 0 0 0 0 0 5 0 0 0 0 0 0 0 0 0 0 0 0 0 0 0 0 0 0 0 0 0 0 0 0 0 0 0 5 2 0 0 0 0 0 0 1 1 3
0 0 0 0 0 0 0 0 0 0 0 0 0 0 0 0 0 0 0 0 0 0 0 0 0 0 0 0 0 0 0 0 0 0 0 0 0 0 0 0 0 0 0 3 1
0 0 0 0 0 0 0 0 0 0 0 0 0 0 0 0 0 0 0 0 0 0 0 0 0 0 0 0 0 0 0 0 4 9 0 0 0 0 0 0 0 0 0 0 0
0 0 0 0 0 0 0 0 0 0 0 0 0 0 0 0 0 0 0 0 0 0 0 0 0 0 0 0 0 0 0 0 0 0 7 0 0 0 0 0 0 0 0 0 0
0 0 0 0 0 0 0 0 0 0 0 0 0 0 0 0 0 0 0 0 0 0 0 3 1 0 0 0 0 0 0 0 0 0 0 0 0 0 0 0 0 0 0 0 0
0 0 0 0 0 0 0 0 0 0 0 0 0 0 0 0 0 0 0 0 0 0 0 1 1 1 0 0 0 0 0 0 0 0 0 0 0 0 0 0 0 0 0 0 0

GFSSW_con_sbcape_114.txt.gz
CAPE
144 83 103 52 72 92 93 13 0 0 1 30 61 26 0 0 0 0 0 0 0 0 0 0 0 0 0 0 0 0 0 0 0 0 0 0 0 0 0 0 0 0 0 0 0
160 186 56 16 42 36 7 0 0 0 0 1 54 36 0 0 0 0 0 0 0 0 0 0 0 0 0 0 0 0 0 0 0 0 0 0 0 0 0 0 0 0 0 0 0
128 55 66 96 71 22 0 0 0 0 0 24 86 31 0 0 2 6 0 0 0 0 0 0 0 0 0 0 0 0 0 0 0 0 0 0 0 0 0 0 0 0 0 0 0
141 175 164 186 113 26 0 0 0 0 0 55 9 2 0 0 3 1 0 0 0 0 0 0 0 0 0 0 0 0 0 0 0 0 0 0 0 0 0 0 0 0 0 0 0
76 103 155 165 58 3 0 0 0 0 1 103 1 0 2 0 0 0 0 0 0 0 0 0 0 0 0 0 0 0 0 0 0 0 0 0 0 0 0 0 0 0 0 0 0
55 68 34 29 33 0 0 1 0 0 146 36 6 12 0 0 0 0 0 0 0 0 0 0 0 0 0 0 0 0 0 0 0 0 0 0 0 0 0 0 0 0 0 0 0
48 37 0 0 37 21 3 2 2 0 143 94 46 0 0 0 0 0 0 0 0 0 0 0 0 0 0 0 0 0 0 0 0 0 0 0 0 0 0 0 0 0 0 0 0
107 55 39 19 18 14 0 3 82 179 73 123 26 0 0 0 0 0 0 0 0 0 0 0 0 0 0 0 0 0 0 0 0 0 0 0 0 0 0 0 0 0 0 0 0
101 101 32 97 32 0 0 46 89 65 15 1 0 0 0 0 0 0 0 0 0 0 0 0 0 0 0 0 0 0 0 0 0 0 0 0 0 0 0 0 0 0 0 0 0
116 139 131 40 24 0 61 54 9 10 0 0 0 0 0 0 0 0 0 0 0 0 0 0 0 0 0 0 0 0 0 0 0 0 0 0 0 0 0 0 0 0 0 0 0
129 210 372 105 80 52 29 8 0 0 9 14 1 0 0 0 0 0 0 0 0 0 0 0 0 0 0 0 0 0 0 0 0 0 0 0 0 0 0 0 0 0 0 0 0
74 76 85 90 63 4 2 0 4 2 4 15 4 0 0 0 0 0 0 0 0 0 0 0 0 0 0 0 0 0 0 0 0 0 0 0 0 0 0 0 0 0 0 0 0
12 20 19 28 7 10 0 8 6 0 2 6 7 3 0 0 0 0 0 0 0 0 0 0 0 0 0 0 0 0 0 0 0 0 0 0 0 0 0 0 0 0 0 0 0
0 0 0 3 3 1 0 0 0 1 0 4 2 0 0 0 0 0 0 0 0 0 0 0 0 0 0 0 0 0 0 0 0 0 0 0 0 0 0 0 0 0 0 0 0
0 0 0 0 0 0 0 1 0 0 0 0 0 0 0 0 0 0 0 0 0 0 0 0 0 0 0 0 0 0 0 0 0 0 0 0 0 0 0 0 0 0 0 0 0
0 0 0 0 3 0 0 0 0 0 0 0 0 0 0 0 0 0 0 0 0 0 0 0 0 0 0 0 0 0 0 0 0 0 0 0 0 0 0 0 0 0 0 0 0
0 0 0 0 0 0 0 0 0 2 0 0 0 0 0 0 0 0 0 0 0 0 0 0 0 0 0 0 0 0 0 0 0 0 0 0 0 0 0 0 0 0 0 0 0
0 0 0 0 0 0 0 0 0 0 1 0 0 0 0 0 0 0 0 0 0 0 0 0 0 0 0 0 0 0 0 0 0 0 0 0 0 0 0 0 0 0 0 0 0
0 0 0 0 0 0 0 0 0 0 0 0 0 0 0 0 0 0 0 0 0 0 0 0 0 0 0 0 0 0 0 0 0 0 0 0 0 0 0 0 0 0 0 0 0
0 0 0 0 0 0 0 0 0 0 0 0 0 0 0 0 0 0 0 0 0 0 0 0 0 0 0 0 0 0 0 0 0 0 0 0 0 0 0 0 0 0 0 0 1
0 0 0 0 0 0 0 0 0 0 0 0 0 0 0 0 0 0 0 0 0 0 0 0 0 0 0 0 0 0 0 0 0 0 0 0 0 0 0 0 0 0 0 0 3
0 0 0 0 0 0 0 0 0 0 0 0 0 0 0 0 0 0 0 0 0 0 0 0 0 0 0 0 0 0 0 0 0 0 0 0 0 0 0 0 0 0 0 0 1
0 0 0 0 0 0 0 0 0 0 0 0 0 0 0 0 0 0 0 0 0 0 0 0 0 0 0 0 0 0 0 0 0 0 0 0 0 0 0 0 0 0 0 0 0
0 0 0 0 0 0 0 0 0 0 0 0 0 0 0 0 0 0 0 0 0 0 0 0 0 0 0 0 0 0 0 0 0 0 0 0 0 0 0 0 0 0 0 0 0
0 0 0 0 0 0 0 0 0 0 0 0 0 0 0 0 0 0 0 0 0 0 0 0 0 0 0 0 0 0 0 0 0 0 0 0 0 0 0 0 0 0 0 0 0
0 0 0 0 0 0 0 0 0 0 0 0 0 0 0 0 0 0 0 0 0 0 0 0 0 0 0 0 0 0 0 0 0 0 0 0 0 0 0 0 0 0 0 0 0
0 0 0 0 0 0 0 0 0 0 0 0 0 0 0 0 0 0 0 0 0 0 0 0 0 0 0 0 0 0 0 0 0 0 0 0 0 0 0 0 0 0 0 0 0

GFSSW_con_sbcape_117.txt.gz
CAPE
171 348 248 217 134 196 137 25 1 0 42 70 107 15 0 0 0 0 0 0 0 0 0 0 0 0 0 0 0 0 0 0 0 0 0 0 0 0 0 0 0 0 0 0 0
64 120 104 202 95 103 12 0 0 0 35 106 128 48 9 0 0 0 1 0 0 0 0 0 0 0 0 0 0 0 0 0 0 0 0 0 0 0 0 0 0 0 0 0 0
122 47 166 254 114 47 22 9 0 0 100 69 196 6 0 0 0 0 0 0 0 0 0 0 0 0 0 0 0 0 0 0 0 0 0 0 0 0 0 0 0 0 0 0 0
157 234 293 262 80 28 9 0 0 0 185 192 39 0 0 0 1 0 0 0 0 0 0 0 0 0 0 0 0 0 0 0 0 0 0 0 0 0 0 0 0 0 0 0 0
150 252 229 153 49 20 13 8 0 42 173 48 1 1 0 0 0 0 0 0 0 0 0 0 0 0 0 0 0 0 0 0 0 0 0 0 0 0 0 0 0 0 0 0 0
47 29 37 53 28 5 4 31 0 317 144 79 10 0 0 0 0 0 0 0 0 0 0 0 0 0 0 0 0 0 0 0 0 0 0 0 0 0 0 0 0 0 0 0 0
39 5 18 93 36 8 16 83 1 347 160 77 0 0 0 0 0 0 0 0 0 0 0 0 0 0 0 0 0 0 0 0 0 0 0 0 0 0 0 0 0 0 0 0 0
58 26 15 7 3 0 69 151 201 227 165 60 0 0 0 0 0 0 0 0 0 0 0 0 0 0 0 0 0 0 0 0 0 0 0 0 0 0 0 0 0 0 0 0 0
84 1 25 23 4 25 188 263 240 167 105 2 0 0 0 0 0 0 0 0 0 0 0 0 0 0 0 0 0 0 0 0 0 0 0 0 0 0 0 0 0 0 0 0 0
249 188 135 12 39 123 79 23 16 8 6 0 0 0 0 0 0 0 0 0 0 0 0 0 0 0 0 0 0 0 0 0 0 0 0 0 0 0 0 0 0 0 0 0 0
322 148 92 59 104 20 0 0 0 0 0 2 0 0 0 0 0 0 0 0 0 0 0 0 0 0 0 0 0 0 0 0 0 0 0 0 0 0 0 0 0 0 0 0 0
47 164 76 62 7 0 0 0 0 0 4 0 0 0 0 0 0 0 0 0 0 0 0 0 0 0 0 0 0 0 0 0 0 0 0 0 0 0 0 0 0 0 0 0 0
6 28 30 12 0 0 0 1 0 0 0 0 0 0 0 0 0 0 0 0 0 0 0 0 0 0 0 0 0 0 0 0 0 0 0 0 0 0 0 0 0 0 0 0 0
0 0 1 1 0 0 0 0 0 0 0 0 0 0 0 0 0 0 0 0 0 0 0 0 0 0 0 0 0 0 0 0 0 0 0 0 0 0 0 0 0 0 0 0 0
0 0 1 0 0 0 0 0 0 0 0 0 0 0 0 0 0 0 0 0 0 0 0 0 0 0 0 0 0 0 0 0 0 0 0 0 0 0 0 0 0 0 0 0 0
0 0 0 0 0 0 0 0 0 0 0 0 0 0 0 0 0 0 0 0 0 0 0 0 0 0 0 0 0 0 0 0 0 0 0 0 0 0 0 0 0 0 0 0 0
0 0 0 0 0 0 0 0 0 0 0 0 0 0 0 0 0 0 0 0 0 0 0 0 0 0 0 0 0 0 0 0 0 0 0 0 0 0 0 0 0 0 0 0 0
0 0 0 0 0 0 0 0 0 0 0 0 0 0 0 0 0 0 0 0 0 0 0 0 0 0 0 0 0 0 0 0 0 0 0 0 0 0 0 0 0 0 0 0 0
0 0 0 0 0 0 0 0 0 0 0 0 0 0 0 0 0 0 0 0 0 0 0 0 0 0 0 0 0 0 0 0 0 0 0 0 0 0 0 0 0 0 0 0 0
0 0 0 0 0 0 0 0 0 0 0 0 0 0 0 0 0 0 0 0 0 0 0 0 0 0 0 0 0 0 0 0 0 0 0 0 0 0 0 0 0 0 0 0 0
0 0 0 0 0 0 0 0 0 0 0 0 0 0 0 0 0 0 0 0 0 0 0 0 0 0 0 0 0 0 0 0 0 0 0 0 0 0 0 0 0 0 0 0 0
0 0 0 0 0 0 0 0 0 0 0 0 0 0 0 0 0 0 0 0 0 0 0 0 0 0 0 0 0 0 0 0 0 0 0 0 0 0 0 0 0 0 0 0 0
0 0 0 0 0 0 0 0 0 0 0 0 0 0 0 0 0 0 0 0 0 0 0 0 0 0 0 0 0 0 0 0 0 0 0 0 0 0 0 0 0 0 0 0 0
0 0 0 0 0 0 0 0 0 0 0 0 0 0 0 0 0 0 0 0 0 0 0 0 0 0 0 0 0 0 0 0 0 0 0 0 0 0 0 0 0 0 0 0 0
0 0 0 0 0 0 0 0 0 0 0 0 0 0 0 0 0 0 0 0 0 0 0 0 0 0 0 0 0 0 0 0 0 0 0 0 0 0 0 0 0 0 0 0 0
0 0 0 0 0 0 0 0 0 0 0 0 0 0 0 0 0 0 0 0 0 0 0 0 0 0 0 0 0 0 0 0 0 0 0 0 0 0 0 0 0 0 0 0 0
0 0 0 0 0 0 0 0 0 0 0 0 0 0 0 0 0 0 0 0 0 0 0 0 0 0 0 0 0 0 0 0 0 0 0 0 0 0 0 0 0 0 0 0 0